<?xml version='1.0' encoding='UTF-8'?><gpx version="1.1" creator="JPX - https://github.com/jenetics/jpx" xmlns="http://www.topografix.com/GPX/1/1"><trk><trkseg><trkpt lat="42.17256872439716" lon="0.06527186045677345"><ele>610.0</ele><time>2026-04-24T16:34:12.003Z</time></trkpt><trkpt lat="42.17248307397934" lon="0.06530463381855019"><ele>610.0</ele><time>2026-04-24T16:34:14.003Z</time></trkpt><trkpt lat="42.17236732431745" lon="0.06535697895835631"><ele>610.0</ele><time>2026-04-24T16:34:16.003Z</time></trkpt><trkpt lat="42.172298473252795" lon="0.06540416484216516"><ele>610.0</ele><time>2026-04-24T16:34:17.003Z</time></trkpt><trkpt lat="42.17222137035084" lon="0.06541303626644221"><ele>610.0</ele><time>2026-04-24T16:34:18.003Z</time></trkpt><trkpt lat="42.17216220104285" lon="0.06549351432314328"><ele>610.0</ele><time>2026-04-24T16:34:19.003Z</time></trkpt><trkpt lat="42.17208870360242" lon="0.06554020268403692"><ele>610.0</ele><time>2026-04-24T16:34:20.003Z</time></trkpt><trkpt lat="42.17201665216326" lon="0.0655933855581065"><ele>610.0</ele><time>2026-04-24T16:34:21.003Z</time></trkpt><trkpt lat="42.1719350193589" lon="0.06564593276570316"><ele>610.0</ele><time>2026-04-24T16:34:22.003Z</time></trkpt><trkpt lat="42.171843297788094" lon="0.06570070317927046"><ele>610.0</ele><time>2026-04-24T16:34:23.003Z</time></trkpt><trkpt lat="42.17175670903619" lon="0.06575188949007296"><ele>610.0</ele><time>2026-04-24T16:34:24.003Z</time></trkpt><trkpt lat="42.17166086922872" lon="0.06580258912282033"><ele>610.0</ele><time>2026-04-24T16:34:25.003Z</time></trkpt><trkpt lat="42.17156356900417" lon="0.06586612218348076"><ele>610.0</ele><time>2026-04-24T16:34:26.003Z</time></trkpt><trkpt lat="42.171459615358174" lon="0.0659302606831051"><ele>610.0</ele><time>2026-04-24T16:34:27.003Z</time></trkpt><trkpt lat="42.1713516205824" lon="0.06598463202779707"><ele>610.0</ele><time>2026-04-24T16:34:28.003Z</time></trkpt><trkpt lat="42.17124851593129" lon="0.06604745102786048"><ele>608.8333333333334</ele><time>2026-04-24T16:34:29.003Z</time></trkpt><trkpt lat="42.17115328589082" lon="0.06610864156829645"><ele>607.6666666666667</ele><time>2026-04-24T16:34:30.003Z</time></trkpt><trkpt lat="42.171075635160626" lon="0.06615411626755775"><ele>606.5</ele><time>2026-04-24T16:34:31.003Z</time></trkpt><trkpt lat="42.17101381615516" lon="0.0661797424407012"><ele>605.3333333333334</ele><time>2026-04-24T16:34:32.003Z</time></trkpt><trkpt lat="42.17093102904387" lon="0.0662188514835326"><ele>604.1666666666666</ele><time>2026-04-24T16:34:34.003Z</time></trkpt><trkpt lat="42.17086010820933" lon="0.06624125718093368"><ele>603.0</ele><time>2026-04-24T16:34:36.003Z</time></trkpt><trkpt lat="42.17078625064809" lon="0.0662648016041593"><ele>603.0</ele><time>2026-04-24T16:34:39.003Z</time></trkpt><trkpt lat="42.170908872446" lon="0.06624799666801874"><ele>603.0</ele><time>2026-04-24T16:34:50.003Z</time></trkpt><trkpt lat="42.170985412691984" lon="0.06621822794551652"><ele>603.0</ele><time>2026-04-24T16:34:51.003Z</time></trkpt><trkpt lat="42.171056344597964" lon="0.06618716505761225"><ele>603.0</ele><time>2026-04-24T16:34:52.003Z</time></trkpt><trkpt lat="42.1711536231011" lon="0.06611294256547826"><ele>603.0</ele><time>2026-04-24T16:34:54.003Z</time></trkpt><trkpt lat="42.17119170304348" lon="0.06603321294424953"><ele>603.0</ele><time>2026-04-24T16:34:56.003Z</time></trkpt><trkpt lat="42.17119400481128" lon="0.06593918781651865"><ele>603.0</ele><time>2026-04-24T16:34:58.003Z</time></trkpt><trkpt lat="42.17118177904384" lon="0.0658109736989246"><ele>603.0</ele><time>2026-04-24T16:35:00.004Z</time></trkpt><trkpt lat="42.17115350413822" lon="0.06568778041879811"><ele>603.0</ele><time>2026-04-24T16:35:02.004Z</time></trkpt><trkpt lat="42.171128855776914" lon="0.06557650511592564"><ele>603.0</ele><time>2026-04-24T16:35:05.004Z</time></trkpt><trkpt lat="42.17108327795814" lon="0.06548070487551098"><ele>603.0</ele><time>2026-04-24T16:35:10.004Z</time></trkpt><trkpt lat="42.170999506512196" lon="0.06543155841020845"><ele>602.6666666666666</ele><time>2026-04-24T16:35:13.004Z</time></trkpt><trkpt lat="42.170923414732165" lon="0.06539663513237726"><ele>602.3333333333334</ele><time>2026-04-24T16:35:15.004Z</time></trkpt><trkpt lat="42.17084864014108" lon="0.06537991655913211"><ele>602.0</ele><time>2026-04-24T16:35:18.004Z</time></trkpt><trkpt lat="42.1707670469291" lon="0.06536114786301651"><ele>601.6666666666667</ele><time>2026-04-24T16:35:21.004Z</time></trkpt><trkpt lat="42.17072309261849" lon="0.06526085777204789"><ele>601.3333333333334</ele><time>2026-04-24T16:35:24.004Z</time></trkpt><trkpt lat="42.17071478588207" lon="0.06512896093561661"><ele>601.0</ele><time>2026-04-24T16:35:26.004Z</time></trkpt><trkpt lat="42.170744915494105" lon="0.06502679714464132"><ele>600.2</ele><time>2026-04-24T16:35:28.004Z</time></trkpt><trkpt lat="42.170814011294404" lon="0.06489061134851261"><ele>599.4000000000001</ele><time>2026-04-24T16:35:30.004Z</time></trkpt><trkpt lat="42.17085997333411" lon="0.06478620803225409"><ele>598.6</ele><time>2026-04-24T16:35:31.004Z</time></trkpt><trkpt lat="42.170893565289575" lon="0.06469297033353447"><ele>597.8000000000001</ele><time>2026-04-24T16:35:32.004Z</time></trkpt><trkpt lat="42.17091130464721" lon="0.06460906230814197"><ele>597.0</ele><time>2026-04-24T16:35:33.004Z</time></trkpt><trkpt lat="42.17095410287156" lon="0.06449169001260135"><ele>597.0</ele><time>2026-04-24T16:35:35.004Z</time></trkpt><trkpt lat="42.1710009726966" lon="0.06441429860986489"><ele>597.0</ele><time>2026-04-24T16:35:37.004Z</time></trkpt><trkpt lat="42.171058932050116" lon="0.06437781480200043"><ele>597.0</ele><time>2026-04-24T16:35:42.004Z</time></trkpt><trkpt lat="42.17113825897825" lon="0.06433979739266751"><ele>597.0</ele><time>2026-04-24T16:35:51.004Z</time></trkpt><trkpt lat="42.17097414180142" lon="0.06423407408838762"><ele>597.0</ele><time>2026-04-24T16:35:57.004Z</time></trkpt><trkpt lat="42.170956667047676" lon="0.06414955863881813"><ele>596.3333333333334</ele><time>2026-04-24T16:35:59.004Z</time></trkpt><trkpt lat="42.170940000986974" lon="0.06404857504557286"><ele>595.6666666666666</ele><time>2026-04-24T16:36:00.004Z</time></trkpt><trkpt lat="42.170933435224" lon="0.06394165051759303"><ele>595.0</ele><time>2026-04-24T16:36:01.004Z</time></trkpt><trkpt lat="42.17092349963278" lon="0.06380121762193457"><ele>594.3333333333333</ele><time>2026-04-24T16:36:02.004Z</time></trkpt><trkpt lat="42.17091805539939" lon="0.06370740177137273"><ele>593.6666666666666</ele><time>2026-04-24T16:36:03.004Z</time></trkpt><trkpt lat="42.17090078069423" lon="0.06355122226153204"><ele>593.0</ele><time>2026-04-24T16:36:05.004Z</time></trkpt><trkpt lat="42.17090410653794" lon="0.06345634154528837"><ele>593.0</ele><time>2026-04-24T16:36:06.004Z</time></trkpt><trkpt lat="42.170891331339014" lon="0.06333898742933061"><ele>593.0</ele><time>2026-04-24T16:36:07.004Z</time></trkpt><trkpt lat="42.1709158521144" lon="0.06320685740855293"><ele>593.0</ele><time>2026-04-24T16:36:08.004Z</time></trkpt><trkpt lat="42.17092464628174" lon="0.06309909093680634"><ele>593.0</ele><time>2026-04-24T16:36:09.004Z</time></trkpt><trkpt lat="42.17091611142731" lon="0.06299601578747162"><ele>593.0</ele><time>2026-04-24T16:36:10.004Z</time></trkpt><trkpt lat="42.17093039455932" lon="0.06287214153304324"><ele>593.0</ele><time>2026-04-24T16:36:12.004Z</time></trkpt><trkpt lat="42.1709490812568" lon="0.06278058826083895"><ele>592.1999999999999</ele><time>2026-04-24T16:36:23.004Z</time></trkpt><trkpt lat="42.17095418724899" lon="0.06264919890094205"><ele>591.4</ele><time>2026-04-24T16:36:25.004Z</time></trkpt><trkpt lat="42.17093572515688" lon="0.06249878621121271"><ele>590.5999999999999</ele><time>2026-04-24T16:36:27.004Z</time></trkpt><trkpt lat="42.17084011926713" lon="0.06239642220431894"><ele>589.8</ele><time>2026-04-24T16:36:29.004Z</time></trkpt><trkpt lat="42.1707852918981" lon="0.062350677415265184"><ele>589.0</ele><time>2026-04-24T16:36:30.004Z</time></trkpt><trkpt lat="42.17073584609781" lon="0.0622475451705705"><ele>589.25</ele><time>2026-04-24T16:36:31.004Z</time></trkpt><trkpt lat="42.17070300754436" lon="0.06215080153651065"><ele>589.5</ele><time>2026-04-24T16:36:33.004Z</time></trkpt><trkpt lat="42.170598950104456" lon="0.06200491835851011"><ele>589.75</ele><time>2026-04-24T16:36:35.004Z</time></trkpt><trkpt lat="42.170500869823194" lon="0.06197701157031384"><ele>590.0</ele><time>2026-04-24T16:36:37.004Z</time></trkpt><trkpt lat="42.17037103441967" lon="0.06196049233144116"><ele>590.0</ele><time>2026-04-24T16:36:39.005Z</time></trkpt><trkpt lat="42.17030883825962" lon="0.061936882442100584"><ele>590.0</ele><time>2026-04-24T16:36:41.005Z</time></trkpt><trkpt lat="42.17032940898281" lon="0.06129026900047161"><ele>589.0</ele><time>2026-04-24T16:36:43.005Z</time></trkpt><trkpt lat="42.170304015461234" lon="0.06120175248511848"><ele>588.0</ele><time>2026-04-24T16:36:45.005Z</time></trkpt><trkpt lat="42.17020472250341" lon="0.06119582564153918"><ele>587.0</ele><time>2026-04-24T16:36:47.005Z</time></trkpt><trkpt lat="42.17013342191247" lon="0.06121185958178195"><ele>586.0</ele><time>2026-04-24T16:36:48.005Z</time></trkpt><trkpt lat="42.17005817661922" lon="0.061223433869529525"><ele>585.0</ele><time>2026-04-24T16:36:49.005Z</time></trkpt><trkpt lat="42.16996746234286" lon="0.0611411933972263"><ele>584.0</ele><time>2026-04-24T16:36:51.005Z</time></trkpt><trkpt lat="42.169959435576615" lon="0.061044434817482354"><ele>584.0</ele><time>2026-04-24T16:36:52.005Z</time></trkpt><trkpt lat="42.16996738366944" lon="0.06091838545009595"><ele>584.0</ele><time>2026-04-24T16:36:53.005Z</time></trkpt><trkpt lat="42.16996922415502" lon="0.06081675103244961"><ele>584.0</ele><time>2026-04-24T16:36:54.005Z</time></trkpt><trkpt lat="42.1699106711193" lon="0.06067365398361163"><ele>584.0</ele><time>2026-04-24T16:36:56.005Z</time></trkpt><trkpt lat="42.16985508970961" lon="0.060621457827102924"><ele>584.0</ele><time>2026-04-24T16:36:57.005Z</time></trkpt><trkpt lat="42.16979128530292" lon="0.06054723247185904"><ele>584.0</ele><time>2026-04-24T16:36:58.005Z</time></trkpt><trkpt lat="42.16973729961145" lon="0.06047540083227659"><ele>585.0</ele><time>2026-04-24T16:36:59.005Z</time></trkpt><trkpt lat="42.16968926896869" lon="0.06040178105398319"><ele>586.0</ele><time>2026-04-24T16:37:00.005Z</time></trkpt><trkpt lat="42.169628293786324" lon="0.060315417409498195"><ele>587.0</ele><time>2026-04-24T16:37:01.005Z</time></trkpt><trkpt lat="42.1695594606119" lon="0.060223704719143005"><ele>588.0</ele><time>2026-04-24T16:37:02.005Z</time></trkpt><trkpt lat="42.16949591687393" lon="0.06011479980578628"><ele>589.0</ele><time>2026-04-24T16:37:03.005Z</time></trkpt><trkpt lat="42.16943336728335" lon="0.05999838249089877"><ele>588.6</ele><time>2026-04-24T16:37:04.005Z</time></trkpt><trkpt lat="42.16938003110801" lon="0.059872199405879394"><ele>588.2</ele><time>2026-04-24T16:37:05.005Z</time></trkpt><trkpt lat="42.16932720589933" lon="0.05976633185645322"><ele>587.8000000000001</ele><time>2026-04-24T16:37:06.005Z</time></trkpt><trkpt lat="42.16928493514885" lon="0.05967943182989279"><ele>587.4</ele><time>2026-04-24T16:37:07.005Z</time></trkpt><trkpt lat="42.169231042997176" lon="0.059578439155770054"><ele>587.0</ele><time>2026-04-24T16:37:08.005Z</time></trkpt><trkpt lat="42.16918533320652" lon="0.059486483331985446"><ele>587.0</ele><time>2026-04-24T16:37:09.005Z</time></trkpt><trkpt lat="42.1691235071049" lon="0.05937916387137812"><ele>587.0</ele><time>2026-04-24T16:37:10.005Z</time></trkpt><trkpt lat="42.16906112884726" lon="0.05925507675257402"><ele>587.0</ele><time>2026-04-24T16:37:11.005Z</time></trkpt><trkpt lat="42.169006729052214" lon="0.059153305428220525"><ele>587.0</ele><time>2026-04-24T16:37:12.005Z</time></trkpt><trkpt lat="42.168947491767725" lon="0.05907221129003046"><ele>587.0</ele><time>2026-04-24T16:37:13.005Z</time></trkpt><trkpt lat="42.16888499027293" lon="0.058984622294478845"><ele>586.3333333333333</ele><time>2026-04-24T16:37:14.005Z</time></trkpt><trkpt lat="42.16883157720198" lon="0.05888397296609322"><ele>585.6666666666666</ele><time>2026-04-24T16:37:15.005Z</time></trkpt><trkpt lat="42.168788914171905" lon="0.05878266348882484"><ele>585.0</ele><time>2026-04-24T16:37:16.005Z</time></trkpt><trkpt lat="42.168738471661456" lon="0.058693911188802565"><ele>584.3333333333334</ele><time>2026-04-24T16:37:17.005Z</time></trkpt><trkpt lat="42.16869310460782" lon="0.05859563166063762"><ele>583.6666666666667</ele><time>2026-04-24T16:37:18.005Z</time></trkpt><trkpt lat="42.1686716953529" lon="0.05849013334158575"><ele>583.0</ele><time>2026-04-24T16:37:19.005Z</time></trkpt><trkpt lat="42.168643369066345" lon="0.058366415359698"><ele>581.8</ele><time>2026-04-24T16:37:20.005Z</time></trkpt><trkpt lat="42.168606111203076" lon="0.05823796665344644"><ele>580.5999999999999</ele><time>2026-04-24T16:37:21.005Z</time></trkpt><trkpt lat="42.168544665588705" lon="0.05811643948972335"><ele>579.4000000000001</ele><time>2026-04-24T16:37:22.005Z</time></trkpt><trkpt lat="42.168482572944534" lon="0.058017447498972245"><ele>578.2</ele><time>2026-04-24T16:37:23.005Z</time></trkpt><trkpt lat="42.168410384292976" lon="0.05793463231968675"><ele>577.0</ele><time>2026-04-24T16:37:24.005Z</time></trkpt><trkpt lat="42.168335248608955" lon="0.05785709215160948"><ele>577.0</ele><time>2026-04-24T16:37:25.005Z</time></trkpt><trkpt lat="42.16825967529489" lon="0.05780969556433762"><ele>577.0</ele><time>2026-04-24T16:37:26.005Z</time></trkpt><trkpt lat="42.16819118787597" lon="0.05778818258946677"><ele>577.0</ele><time>2026-04-24T16:37:27.005Z</time></trkpt><trkpt lat="42.168093138984126" lon="0.05779707255631076"><ele>577.0</ele><time>2026-04-24T16:37:28.005Z</time></trkpt><trkpt lat="42.16799111535979" lon="0.05777161254240501"><ele>577.0</ele><time>2026-04-24T16:37:29.005Z</time></trkpt><trkpt lat="42.16789666096101" lon="0.05770622344074385"><ele>577.4</ele><time>2026-04-24T16:37:30.005Z</time></trkpt><trkpt lat="42.16779025424999" lon="0.05765167369389283"><ele>577.8000000000001</ele><time>2026-04-24T16:37:31.005Z</time></trkpt><trkpt lat="42.16767585738677" lon="0.057616088586403"><ele>578.2</ele><time>2026-04-24T16:37:32.005Z</time></trkpt><trkpt lat="42.16757974170772" lon="0.057562913180602714"><ele>578.6</ele><time>2026-04-24T16:37:33.005Z</time></trkpt><trkpt lat="42.16748217039174" lon="0.05751743087836935"><ele>579.0</ele><time>2026-04-24T16:37:34.005Z</time></trkpt><trkpt lat="42.16739291124527" lon="0.057465993043243485"><ele>578.3333333333334</ele><time>2026-04-24T16:37:35.005Z</time></trkpt><trkpt lat="42.167298417832" lon="0.05744818499155028"><ele>577.6666666666666</ele><time>2026-04-24T16:37:36.005Z</time></trkpt><trkpt lat="42.16720947116104" lon="0.05740028120609478"><ele>577.0</ele><time>2026-04-24T16:37:37.005Z</time></trkpt><trkpt lat="42.167140725979344" lon="0.05735705125896153"><ele>576.3333333333333</ele><time>2026-04-24T16:37:38.005Z</time></trkpt><trkpt lat="42.167067944296534" lon="0.05729113383474326"><ele>575.6666666666666</ele><time>2026-04-24T16:37:39.005Z</time></trkpt><trkpt lat="42.167017352594286" lon="0.05720354076228198"><ele>575.0</ele><time>2026-04-24T16:37:40.005Z</time></trkpt><trkpt lat="42.16694864922654" lon="0.057144702970483366"><ele>575.0</ele><time>2026-04-24T16:37:41.005Z</time></trkpt><trkpt lat="42.16690149197719" lon="0.05707788601545894"><ele>575.0</ele><time>2026-04-24T16:37:42.005Z</time></trkpt><trkpt lat="42.16685327386123" lon="0.057013573153925814"><ele>575.0</ele><time>2026-04-24T16:37:43.005Z</time></trkpt><trkpt lat="42.1668044904115" lon="0.05694887441034032"><ele>575.0</ele><time>2026-04-24T16:37:44.005Z</time></trkpt><trkpt lat="42.16676509237367" lon="0.056881864720519544"><ele>575.0</ele><time>2026-04-24T16:37:45.005Z</time></trkpt><trkpt lat="42.16672270042179" lon="0.056740472442175664"><ele>575.0</ele><time>2026-04-24T16:37:47.005Z</time></trkpt><trkpt lat="42.16671130377205" lon="0.05662902154373202"><ele>575.4</ele><time>2026-04-24T16:37:50.005Z</time></trkpt><trkpt lat="42.16670178932113" lon="0.056476572558123876"><ele>575.8</ele><time>2026-04-24T16:38:01.005Z</time></trkpt><trkpt lat="42.166667641308635" lon="0.05640089852541331"><ele>576.2</ele><time>2026-04-24T16:38:02.005Z</time></trkpt><trkpt lat="42.16660179014358" lon="0.056296986921310986"><ele>576.6</ele><time>2026-04-24T16:38:03.005Z</time></trkpt><trkpt lat="42.16651873251602" lon="0.05623011255858192"><ele>577.0</ele><time>2026-04-24T16:38:04.005Z</time></trkpt><trkpt lat="42.166428499473426" lon="0.05610653318401682"><ele>576.4</ele><time>2026-04-24T16:38:05.005Z</time></trkpt><trkpt lat="42.16634174480269" lon="0.05599419804058043"><ele>575.8000000000001</ele><time>2026-04-24T16:38:06.005Z</time></trkpt><trkpt lat="42.16628418559288" lon="0.055901355103388964"><ele>575.2</ele><time>2026-04-24T16:38:07.005Z</time></trkpt><trkpt lat="42.166226562788026" lon="0.05580125073677728"><ele>574.6</ele><time>2026-04-24T16:38:08.005Z</time></trkpt><trkpt lat="42.16615731346522" lon="0.05570749907664762"><ele>574.0</ele><time>2026-04-24T16:38:09.005Z</time></trkpt><trkpt lat="42.16606685935134" lon="0.0556251068179617"><ele>574.0</ele><time>2026-04-24T16:38:10.005Z</time></trkpt><trkpt lat="42.165976008972784" lon="0.05552562266710623"><ele>574.0</ele><time>2026-04-24T16:38:11.005Z</time></trkpt><trkpt lat="42.16587274248229" lon="0.05543939166776624"><ele>574.0</ele><time>2026-04-24T16:38:12.005Z</time></trkpt><trkpt lat="42.1657874063381" lon="0.055328804428932246"><ele>574.0</ele><time>2026-04-24T16:38:13.005Z</time></trkpt><trkpt lat="42.16571159455889" lon="0.055227935475770755"><ele>572.75</ele><time>2026-04-24T16:38:14.005Z</time></trkpt><trkpt lat="42.165639232217465" lon="0.05512789291157233"><ele>571.5</ele><time>2026-04-24T16:38:15.005Z</time></trkpt><trkpt lat="42.16554929756162" lon="0.05502706628371254"><ele>570.25</ele><time>2026-04-24T16:38:16.005Z</time></trkpt><trkpt lat="42.165449105253714" lon="0.054908108970120106"><ele>569.0</ele><time>2026-04-24T16:38:17.005Z</time></trkpt><trkpt lat="42.165357499404266" lon="0.054806001252384044"><ele>569.0</ele><time>2026-04-24T16:38:18.006Z</time></trkpt><trkpt lat="42.165261867258" lon="0.054696607051073015"><ele>569.0</ele><time>2026-04-24T16:38:19.006Z</time></trkpt><trkpt lat="42.16519435504642" lon="0.05459194405964492"><ele>569.0</ele><time>2026-04-24T16:38:20.006Z</time></trkpt><trkpt lat="42.16514020348621" lon="0.05451894211289805"><ele>569.0</ele><time>2026-04-24T16:38:21.006Z</time></trkpt><trkpt lat="42.16509504584781" lon="0.054450130679550304"><ele>569.0</ele><time>2026-04-24T16:38:22.006Z</time></trkpt><trkpt lat="42.16508990764845" lon="0.05432242058728475"><ele>569.0</ele><time>2026-04-24T16:38:24.006Z</time></trkpt><trkpt lat="42.165028343832525" lon="0.05420229764074937"><ele>569.0</ele><time>2026-04-24T16:38:26.006Z</time></trkpt><trkpt lat="42.16495709329818" lon="0.054183133208574256"><ele>569.0</ele><time>2026-04-24T16:38:27.006Z</time></trkpt><trkpt lat="42.16487934833438" lon="0.05413622030481631"><ele>569.0</ele><time>2026-04-24T16:38:28.006Z</time></trkpt><trkpt lat="42.16481080126802" lon="0.054046865248364745"><ele>569.0</ele><time>2026-04-24T16:38:29.006Z</time></trkpt><trkpt lat="42.16474532211823" lon="0.053969441331954394"><ele>569.0</ele><time>2026-04-24T16:38:30.006Z</time></trkpt><trkpt lat="42.16466075424317" lon="0.053906034767672466"><ele>568.0</ele><time>2026-04-24T16:38:31.006Z</time></trkpt><trkpt lat="42.16459474992181" lon="0.05383012294273282"><ele>567.0</ele><time>2026-04-24T16:38:32.006Z</time></trkpt><trkpt lat="42.16452229681178" lon="0.05382468773043414"><ele>566.0</ele><time>2026-04-24T16:38:33.006Z</time></trkpt><trkpt lat="42.16445116644971" lon="0.053797947816513654"><ele>565.0</ele><time>2026-04-24T16:38:34.006Z</time></trkpt><trkpt lat="42.16433750362257" lon="0.053760684889075636"><ele>564.0</ele><time>2026-04-24T16:38:36.006Z</time></trkpt><trkpt lat="42.16421614301074" lon="0.05371983558676517"><ele>564.0</ele><time>2026-04-24T16:38:39.006Z</time></trkpt><trkpt lat="42.16413286317928" lon="0.05369180406271114"><ele>564.0</ele><time>2026-04-24T16:38:42.006Z</time></trkpt><trkpt lat="42.16413376642943" lon="0.0534173365721866"><ele>564.0</ele><time>2026-04-24T16:38:44.006Z</time></trkpt><trkpt lat="42.16410325308593" lon="0.05333818040267646"><ele>564.0</ele><time>2026-04-24T16:38:48.006Z</time></trkpt><trkpt lat="42.164074330883246" lon="0.05325836539982495"><ele>564.0</ele><time>2026-04-24T16:38:51.006Z</time></trkpt><trkpt lat="42.16406453320535" lon="0.05315397861108089"><ele>564.0</ele><time>2026-04-24T16:38:54.006Z</time></trkpt><trkpt lat="42.1640697830765" lon="0.05305107672631495"><ele>564.0</ele><time>2026-04-24T16:38:58.006Z</time></trkpt><trkpt lat="42.16406349863687" lon="0.05296038998344176"><ele>564.0</ele><time>2026-04-24T16:39:02.006Z</time></trkpt><trkpt lat="42.16406676794927" lon="0.05307711769665086"><ele>564.0</ele><time>2026-04-24T16:39:34.006Z</time></trkpt><trkpt lat="42.16408026146907" lon="0.05321199108710663"><ele>564.0</ele><time>2026-04-24T16:39:36.006Z</time></trkpt><trkpt lat="42.164098990879836" lon="0.053321080249798494"><ele>564.0</ele><time>2026-04-24T16:39:38.006Z</time></trkpt><trkpt lat="42.16413437741367" lon="0.05341495082586151"><ele>564.0</ele><time>2026-04-24T16:39:40.006Z</time></trkpt><trkpt lat="42.164203835371275" lon="0.05348392445242953"><ele>564.0</ele><time>2026-04-24T16:39:42.006Z</time></trkpt><trkpt lat="42.16428942070008" lon="0.053444663702331294"><ele>564.0</ele><time>2026-04-24T16:39:56.006Z</time></trkpt><trkpt lat="42.164358411149884" lon="0.05338888045390567"><ele>564.0</ele><time>2026-04-24T16:40:00.007Z</time></trkpt><trkpt lat="42.16439978073242" lon="0.05332325881918224"><ele>564.0</ele><time>2026-04-24T16:40:04.007Z</time></trkpt><trkpt lat="42.164362853306194" lon="0.05325149193722832"><ele>564.0</ele><time>2026-04-24T16:40:10.007Z</time></trkpt><trkpt lat="42.16429968398345" lon="0.053228368623773586"><ele>562.7142857142858</ele><time>2026-04-24T16:40:13.007Z</time></trkpt><trkpt lat="42.16423356904237" lon="0.05321160946438378"><ele>561.4285714285714</ele><time>2026-04-24T16:40:15.007Z</time></trkpt><trkpt lat="42.164215217658565" lon="0.05311746193213302"><ele>560.1428571428571</ele><time>2026-04-24T16:40:19.007Z</time></trkpt><trkpt lat="42.16422087602656" lon="0.05302444401493094"><ele>558.8571428571429</ele><time>2026-04-24T16:40:22.007Z</time></trkpt><trkpt lat="42.164244259308106" lon="0.052940133084197455"><ele>557.5714285714286</ele><time>2026-04-24T16:40:24.007Z</time></trkpt><trkpt lat="42.16425834874153" lon="0.05284685586778836"><ele>556.2857142857143</ele><time>2026-04-24T16:40:27.007Z</time></trkpt><trkpt lat="42.1642531895756" lon="0.05275222976455641"><ele>555.0</ele><time>2026-04-24T16:40:29.007Z</time></trkpt><trkpt lat="42.16429838860486" lon="0.05268047308158585"><ele>555.0</ele><time>2026-04-24T16:40:31.007Z</time></trkpt><trkpt lat="42.164349530242546" lon="0.052621636486690444"><ele>555.0</ele><time>2026-04-24T16:40:33.007Z</time></trkpt><trkpt lat="42.16440272023638" lon="0.0525612684474181"><ele>555.0</ele><time>2026-04-24T16:40:35.007Z</time></trkpt><trkpt lat="42.164431558617075" lon="0.05246626346018909"><ele>555.0</ele><time>2026-04-24T16:40:37.007Z</time></trkpt><trkpt lat="42.1644529793316" lon="0.052339950441009954"><ele>555.0</ele><time>2026-04-24T16:40:39.007Z</time></trkpt><trkpt lat="42.1644612041542" lon="0.052241528181218286"><ele>555.0</ele><time>2026-04-24T16:40:42.007Z</time></trkpt><trkpt lat="42.16443866698227" lon="0.05214134695129742"><ele>553.1666666666666</ele><time>2026-04-24T16:40:47.007Z</time></trkpt><trkpt lat="42.164390851548" lon="0.05205041410921913"><ele>551.3333333333334</ele><time>2026-04-24T16:40:50.007Z</time></trkpt><trkpt lat="42.1643607016625" lon="0.05194811646941436"><ele>549.5</ele><time>2026-04-24T16:40:54.007Z</time></trkpt><trkpt lat="42.16430837490014" lon="0.05189534304160424"><ele>547.6666666666667</ele><time>2026-04-24T16:41:13.007Z</time></trkpt><trkpt lat="42.1643632007179" lon="0.05200084592590559"><ele>545.8333333333334</ele><time>2026-04-24T16:41:50.008Z</time></trkpt><trkpt lat="42.164394205325046" lon="0.05207557709886193"><ele>544.0</ele><time>2026-04-24T16:41:51.008Z</time></trkpt><trkpt lat="42.16445577425006" lon="0.0522123533046505"><ele>544.0</ele><time>2026-04-24T16:41:53.008Z</time></trkpt><trkpt lat="42.164463880370306" lon="0.052325518651446364"><ele>544.0</ele><time>2026-04-24T16:41:55.008Z</time></trkpt><trkpt lat="42.16443755675039" lon="0.052465771828300194"><ele>544.0</ele><time>2026-04-24T16:41:57.008Z</time></trkpt><trkpt lat="42.164364266672074" lon="0.05255734126669298"><ele>544.0</ele><time>2026-04-24T16:41:59.008Z</time></trkpt><trkpt lat="42.16426282391141" lon="0.052597247005176186"><ele>544.0</ele><time>2026-04-24T16:42:01.008Z</time></trkpt><trkpt lat="42.164175926768614" lon="0.05270937577561966"><ele>546.2</ele><time>2026-04-24T16:42:03.008Z</time></trkpt><trkpt lat="42.164190505746966" lon="0.052799637834784974"><ele>548.4</ele><time>2026-04-24T16:42:04.008Z</time></trkpt><trkpt lat="42.16423104549352" lon="0.05292699589425273"><ele>550.6</ele><time>2026-04-24T16:42:06.008Z</time></trkpt><trkpt lat="42.16422880591578" lon="0.05307426137536922"><ele>552.8</ele><time>2026-04-24T16:42:08.008Z</time></trkpt><trkpt lat="42.164260547214084" lon="0.05317941051406065"><ele>555.0</ele><time>2026-04-24T16:42:11.008Z</time></trkpt><trkpt lat="42.16435991270135" lon="0.053247587132550234"><ele>556.5</ele><time>2026-04-24T16:42:13.008Z</time></trkpt><trkpt lat="42.1644014863718" lon="0.053371843791980164"><ele>558.0</ele><time>2026-04-24T16:42:15.008Z</time></trkpt><trkpt lat="42.16442344893947" lon="0.05347684018787679"><ele>559.5</ele><time>2026-04-24T16:42:17.008Z</time></trkpt><trkpt lat="42.16443388211905" lon="0.05356482934950144"><ele>561.0</ele><time>2026-04-24T16:42:18.008Z</time></trkpt><trkpt lat="42.1644708957093" lon="0.053676255100767116"><ele>562.5</ele><time>2026-04-24T16:42:20.008Z</time></trkpt><trkpt lat="42.16453834727943" lon="0.05365374088497316"><ele>564.0</ele><time>2026-04-24T16:42:42.008Z</time></trkpt><trkpt lat="42.1646020315056" lon="0.05365400648133563"><ele>564.0</ele><time>2026-04-24T16:42:45.008Z</time></trkpt><trkpt lat="42.16469856482069" lon="0.053671465497189555"><ele>564.0</ele><time>2026-04-24T16:42:48.008Z</time></trkpt><trkpt lat="42.16473551252693" lon="0.05375008784242263"><ele>564.0</ele><time>2026-04-24T16:42:51.008Z</time></trkpt><trkpt lat="42.16470109881071" lon="0.05383023647058177"><ele>564.0</ele><time>2026-04-24T16:42:53.008Z</time></trkpt><trkpt lat="42.16468517342053" lon="0.053921917383013836"><ele>564.0</ele><time>2026-04-24T16:42:55.008Z</time></trkpt><trkpt lat="42.164728031338704" lon="0.054007943164930065"><ele>564.0</ele><time>2026-04-24T16:42:57.008Z</time></trkpt><trkpt lat="42.1646427721921" lon="0.05392380320458633"><ele>564.0</ele><time>2026-04-24T16:44:25.009Z</time></trkpt><trkpt lat="42.164556630548404" lon="0.053823321307738745"><ele>564.0</ele><time>2026-04-24T16:44:27.009Z</time></trkpt><trkpt lat="42.16448487448039" lon="0.05373031525864779"><ele>564.0</ele><time>2026-04-24T16:44:29.009Z</time></trkpt><trkpt lat="42.16440466633514" lon="0.05365320434570424"><ele>564.0</ele><time>2026-04-24T16:44:31.009Z</time></trkpt><trkpt lat="42.16433025070396" lon="0.05360888310229476"><ele>564.0</ele><time>2026-04-24T16:44:33.009Z</time></trkpt><trkpt lat="42.16426292456415" lon="0.053560852789127"><ele>564.0</ele><time>2026-04-24T16:44:35.009Z</time></trkpt><trkpt lat="42.16417025445772" lon="0.053528117418458705"><ele>564.0</ele><time>2026-04-24T16:44:37.009Z</time></trkpt><trkpt lat="42.16406452100037" lon="0.053548224896274754"><ele>564.0</ele><time>2026-04-24T16:44:39.009Z</time></trkpt><trkpt lat="42.16400867973597" lon="0.05361790819978128"><ele>564.0</ele><time>2026-04-24T16:44:41.009Z</time></trkpt><trkpt lat="42.16399519278619" lon="0.05371365078471861"><ele>564.0</ele><time>2026-04-24T16:44:45.009Z</time></trkpt><trkpt lat="42.16395754239645" lon="0.053806828262919375"><ele>564.0</ele><time>2026-04-24T16:45:13.01Z</time></trkpt><trkpt lat="42.16393106242721" lon="0.053902851986120624"><ele>563.4</ele><time>2026-04-24T16:45:15.01Z</time></trkpt><trkpt lat="42.16387773902271" lon="0.054008846683263036"><ele>562.8</ele><time>2026-04-24T16:45:17.01Z</time></trkpt><trkpt lat="42.16383083891697" lon="0.05411828104728333"><ele>562.2</ele><time>2026-04-24T16:45:19.01Z</time></trkpt><trkpt lat="42.1637598714297" lon="0.05425488911803537"><ele>561.6</ele><time>2026-04-24T16:45:21.01Z</time></trkpt><trkpt lat="42.16367657133715" lon="0.05438213969493509"><ele>561.0</ele><time>2026-04-24T16:45:23.01Z</time></trkpt><trkpt lat="42.163644535223966" lon="0.05446612989289"><ele>560.4</ele><time>2026-04-24T16:45:24.01Z</time></trkpt><trkpt lat="42.16358429600943" lon="0.05459531746537817"><ele>559.8</ele><time>2026-04-24T16:45:26.01Z</time></trkpt><trkpt lat="42.16346482577338" lon="0.054668047448525235"><ele>559.1999999999999</ele><time>2026-04-24T16:45:28.01Z</time></trkpt><trkpt lat="42.16339410617334" lon="0.05470194077268654"><ele>558.6</ele><time>2026-04-24T16:45:29.01Z</time></trkpt><trkpt lat="42.16332963762222" lon="0.054710779221316175"><ele>558.0</ele><time>2026-04-24T16:45:30.01Z</time></trkpt><trkpt lat="42.16321687560609" lon="0.054708277064502785"><ele>556.1666666666666</ele><time>2026-04-24T16:45:32.01Z</time></trkpt><trkpt lat="42.16315755886017" lon="0.05467974413616425"><ele>554.3333333333334</ele><time>2026-04-24T16:45:33.01Z</time></trkpt><trkpt lat="42.1630485724531" lon="0.054595508715564664"><ele>552.5</ele><time>2026-04-24T16:45:35.01Z</time></trkpt><trkpt lat="42.16297229941427" lon="0.05457386435872558"><ele>550.6666666666667</ele><time>2026-04-24T16:45:36.01Z</time></trkpt><trkpt lat="42.16288653586711" lon="0.05454365961862451"><ele>548.8333333333334</ele><time>2026-04-24T16:45:37.01Z</time></trkpt><trkpt lat="42.16280971740794" lon="0.05453831744661876"><ele>547.0</ele><time>2026-04-24T16:45:38.01Z</time></trkpt><trkpt lat="42.162746473200954" lon="0.05454492553211677"><ele>547.0</ele><time>2026-04-24T16:45:39.01Z</time></trkpt><trkpt lat="42.16268173115788" lon="0.054551767813525935"><ele>547.0</ele><time>2026-04-24T16:45:40.01Z</time></trkpt><trkpt lat="42.16260714927782" lon="0.05455884739597258"><ele>547.0</ele><time>2026-04-24T16:45:41.01Z</time></trkpt><trkpt lat="42.16254274252192" lon="0.05456568964934286"><ele>547.0</ele><time>2026-04-24T16:45:42.01Z</time></trkpt><trkpt lat="42.16247681149205" lon="0.05457533045426764"><ele>547.0</ele><time>2026-04-24T16:45:43.01Z</time></trkpt><trkpt lat="42.162367252399505" lon="0.054551139341864056"><ele>547.0</ele><time>2026-04-24T16:45:45.01Z</time></trkpt><trkpt lat="42.162313214335256" lon="0.05448413203330034"><ele>546.8000000000001</ele><time>2026-04-24T16:45:47.01Z</time></trkpt><trkpt lat="42.16224077475274" lon="0.05438755841781166"><ele>546.6</ele><time>2026-04-24T16:45:50.01Z</time></trkpt><trkpt lat="42.16216375192075" lon="0.05429183776292425"><ele>546.4000000000001</ele><time>2026-04-24T16:45:52.01Z</time></trkpt><trkpt lat="42.162087257946226" lon="0.05420961373096267"><ele>546.2</ele><time>2026-04-24T16:45:53.01Z</time></trkpt><trkpt lat="42.16201093993812" lon="0.054116488617726166"><ele>546.0</ele><time>2026-04-24T16:45:54.01Z</time></trkpt><trkpt lat="42.16193151163957" lon="0.05401924810037248"><ele>546.0</ele><time>2026-04-24T16:45:56.01Z</time></trkpt><trkpt lat="42.16188228037874" lon="0.0539608134248332"><ele>546.0</ele><time>2026-04-24T16:45:57.01Z</time></trkpt><trkpt lat="42.1618163749404" lon="0.05388443203230819"><ele>546.0</ele><time>2026-04-24T16:45:58.01Z</time></trkpt><trkpt lat="42.161752988537756" lon="0.053810831435520984"><ele>546.0</ele><time>2026-04-24T16:45:59.01Z</time></trkpt><trkpt lat="42.161699632268885" lon="0.053730699211370574"><ele>546.0</ele><time>2026-04-24T16:46:00.01Z</time></trkpt><trkpt lat="42.1616595271602" lon="0.053659022333234004"><ele>546.0</ele><time>2026-04-24T16:46:01.01Z</time></trkpt><trkpt lat="42.16161781235376" lon="0.053591226149963755"><ele>546.0</ele><time>2026-04-24T16:46:02.01Z</time></trkpt><trkpt lat="42.161568562291826" lon="0.05353557465592778"><ele>547.8333333333334</ele><time>2026-04-24T16:46:03.01Z</time></trkpt><trkpt lat="42.161514225222874" lon="0.05348745149396877"><ele>549.6666666666666</ele><time>2026-04-24T16:46:04.01Z</time></trkpt><trkpt lat="42.16144176714876" lon="0.05346151474907078"><ele>551.5</ele><time>2026-04-24T16:46:05.01Z</time></trkpt><trkpt lat="42.16136240133543" lon="0.05343316961738283"><ele>553.3333333333333</ele><time>2026-04-24T16:46:06.01Z</time></trkpt><trkpt lat="42.161280299181215" lon="0.05341316320813049"><ele>555.1666666666666</ele><time>2026-04-24T16:46:07.01Z</time></trkpt><trkpt lat="42.16119278370107" lon="0.05332934896884478"><ele>557.0</ele><time>2026-04-24T16:46:09.01Z</time></trkpt><trkpt lat="42.161148244820346" lon="0.053230856132050496"><ele>557.0</ele><time>2026-04-24T16:46:10.01Z</time></trkpt><trkpt lat="42.161114166270615" lon="0.053111350115859185"><ele>557.0</ele><time>2026-04-24T16:46:11.01Z</time></trkpt><trkpt lat="42.161105307511626" lon="0.053024094229215"><ele>557.0</ele><time>2026-04-24T16:46:12.01Z</time></trkpt><trkpt lat="42.1611059950673" lon="0.052918578890293826"><ele>557.0</ele><time>2026-04-24T16:46:13.01Z</time></trkpt><trkpt lat="42.16107899629834" lon="0.05279910454304538"><ele>557.0</ele><time>2026-04-24T16:46:14.01Z</time></trkpt><trkpt lat="42.161051561221775" lon="0.05271271437884729"><ele>557.0</ele><time>2026-04-24T16:46:15.01Z</time></trkpt><trkpt lat="42.16103121887842" lon="0.05261358113363676"><ele>557.0</ele><time>2026-04-24T16:46:16.01Z</time></trkpt><trkpt lat="42.16100701867501" lon="0.05253087251631336"><ele>557.0</ele><time>2026-04-24T16:46:17.01Z</time></trkpt><trkpt lat="42.16096270029245" lon="0.052438654146295165"><ele>557.0</ele><time>2026-04-24T16:46:18.01Z</time></trkpt><trkpt lat="42.16092228411058" lon="0.05237128965354405"><ele>557.0</ele><time>2026-04-24T16:46:19.01Z</time></trkpt><trkpt lat="42.16085767275104" lon="0.05230497023797663"><ele>557.0</ele><time>2026-04-24T16:46:20.01Z</time></trkpt><trkpt lat="42.160789718683674" lon="0.05224834953652451"><ele>557.0</ele><time>2026-04-24T16:46:21.01Z</time></trkpt><trkpt lat="42.16072223281351" lon="0.05218407146260379"><ele>557.4</ele><time>2026-04-24T16:46:22.01Z</time></trkpt><trkpt lat="42.16066527227158" lon="0.05211805537402779"><ele>557.8000000000001</ele><time>2026-04-24T16:46:23.01Z</time></trkpt><trkpt lat="42.16060135121825" lon="0.05196938739590161"><ele>558.2</ele><time>2026-04-24T16:46:25.01Z</time></trkpt><trkpt lat="42.16057778876026" lon="0.05183685753091235"><ele>558.6</ele><time>2026-04-24T16:46:27.01Z</time></trkpt><trkpt lat="42.16057631143516" lon="0.05174768974329154"><ele>559.0</ele><time>2026-04-24T16:46:28.01Z</time></trkpt><trkpt lat="42.16053910080732" lon="0.051558863607853"><ele>559.0</ele><time>2026-04-24T16:46:30.01Z</time></trkpt><trkpt lat="42.16051701964985" lon="0.05144883283467545"><ele>559.0</ele><time>2026-04-24T16:46:31.01Z</time></trkpt><trkpt lat="42.1604941266523" lon="0.05136048941787742"><ele>559.0</ele><time>2026-04-24T16:46:32.01Z</time></trkpt><trkpt lat="42.16045758059061" lon="0.05127505207686898"><ele>559.0</ele><time>2026-04-24T16:46:33.011Z</time></trkpt><trkpt lat="42.160425899841684" lon="0.05118948448793285"><ele>559.0</ele><time>2026-04-24T16:46:34.011Z</time></trkpt><trkpt lat="42.16033884663449" lon="0.05104441149604818"><ele>559.0</ele><time>2026-04-24T16:46:36.011Z</time></trkpt><trkpt lat="42.16028284182708" lon="0.0509747752898019"><ele>559.0</ele><time>2026-04-24T16:46:37.011Z</time></trkpt><trkpt lat="42.16022201105698" lon="0.05090348822850661"><ele>559.0</ele><time>2026-04-24T16:46:38.011Z</time></trkpt><trkpt lat="42.16015829734205" lon="0.05083428884161038"><ele>559.0</ele><time>2026-04-24T16:46:39.011Z</time></trkpt><trkpt lat="42.160103719518865" lon="0.05075052763929137"><ele>559.0</ele><time>2026-04-24T16:46:40.011Z</time></trkpt><trkpt lat="42.160040235290545" lon="0.050668700096335714"><ele>559.0</ele><time>2026-04-24T16:46:41.011Z</time></trkpt><trkpt lat="42.15997611180769" lon="0.05058022987271229"><ele>559.0</ele><time>2026-04-24T16:46:42.011Z</time></trkpt><trkpt lat="42.159909239301825" lon="0.05047053345255559"><ele>559.2</ele><time>2026-04-24T16:46:43.011Z</time></trkpt><trkpt lat="42.1598603737514" lon="0.05038465100617754"><ele>559.4</ele><time>2026-04-24T16:46:44.011Z</time></trkpt><trkpt lat="42.15982121462909" lon="0.050296555945639886"><ele>559.6</ele><time>2026-04-24T16:46:45.011Z</time></trkpt><trkpt lat="42.159777408116256" lon="0.05020037698479191"><ele>559.8</ele><time>2026-04-24T16:46:46.011Z</time></trkpt><trkpt lat="42.15971891284681" lon="0.050084265081995503"><ele>560.0</ele><time>2026-04-24T16:46:47.011Z</time></trkpt><trkpt lat="42.15965549005737" lon="0.04995728631133028"><ele>560.0</ele><time>2026-04-24T16:46:48.011Z</time></trkpt><trkpt lat="42.15958641872461" lon="0.0498136119128926"><ele>560.0</ele><time>2026-04-24T16:46:49.011Z</time></trkpt><trkpt lat="42.15953980210878" lon="0.04967255106942055"><ele>560.0</ele><time>2026-04-24T16:46:50.011Z</time></trkpt><trkpt lat="42.15948837097495" lon="0.04957502426576667"><ele>560.0</ele><time>2026-04-24T16:46:51.011Z</time></trkpt><trkpt lat="42.15943500038263" lon="0.049477605676439614"><ele>560.0</ele><time>2026-04-24T16:46:52.011Z</time></trkpt><trkpt lat="42.15939730344644" lon="0.04940291514867703"><ele>560.0</ele><time>2026-04-24T16:46:53.011Z</time></trkpt><trkpt lat="42.15934924880239" lon="0.04934733842840124"><ele>560.0</ele><time>2026-04-24T16:46:54.011Z</time></trkpt><trkpt lat="42.15925375939115" lon="0.049326436312314675"><ele>560.0</ele><time>2026-04-24T16:46:56.011Z</time></trkpt><trkpt lat="42.15916909037498" lon="0.049397993148957216"><ele>560.0</ele><time>2026-04-24T16:46:58.011Z</time></trkpt><trkpt lat="42.159070012863054" lon="0.04944790425208639"><ele>560.0</ele><time>2026-04-24T16:47:00.011Z</time></trkpt><trkpt lat="42.158997567609546" lon="0.049479053511665434"><ele>560.0</ele><time>2026-04-24T16:47:02.011Z</time></trkpt><trkpt lat="42.158932987504556" lon="0.04946776309351334"><ele>559.5</ele><time>2026-04-24T16:47:04.011Z</time></trkpt><trkpt lat="42.15886745715184" lon="0.049485392457916756"><ele>559.0</ele><time>2026-04-24T16:47:13.011Z</time></trkpt><trkpt lat="42.15877930278112" lon="0.049412748384571055"><ele>558.5</ele><time>2026-04-24T16:48:05.011Z</time></trkpt><trkpt lat="42.15875023210891" lon="0.04930872460097219"><ele>558.0</ele><time>2026-04-24T16:48:06.011Z</time></trkpt><trkpt lat="42.15873196756398" lon="0.04919651016757568"><ele>557.5</ele><time>2026-04-24T16:48:07.011Z</time></trkpt><trkpt lat="42.15870404012374" lon="0.049065821038001806"><ele>557.0</ele><time>2026-04-24T16:48:08.011Z</time></trkpt><trkpt lat="42.15866399748942" lon="0.04890427484582037"><ele>556.6666666666666</ele><time>2026-04-24T16:48:09.011Z</time></trkpt><trkpt lat="42.15861098429342" lon="0.048720846571497375"><ele>556.3333333333334</ele><time>2026-04-24T16:48:10.011Z</time></trkpt><trkpt lat="42.15855352797685" lon="0.048521096335032564"><ele>556.0</ele><time>2026-04-24T16:48:11.011Z</time></trkpt><trkpt lat="42.158488707083364" lon="0.0482874809136207"><ele>555.6666666666667</ele><time>2026-04-24T16:48:12.012Z</time></trkpt><trkpt lat="42.1584187480224" lon="0.048038646770031876"><ele>555.3333333333334</ele><time>2026-04-24T16:48:13.012Z</time></trkpt><trkpt lat="42.158342217097974" lon="0.04776416285371075"><ele>555.0</ele><time>2026-04-24T16:48:14.012Z</time></trkpt><trkpt lat="42.15826832302089" lon="0.04751290193675657"><ele>554.0</ele><time>2026-04-24T16:48:15.012Z</time></trkpt><trkpt lat="42.15819860403656" lon="0.04727632593308269"><ele>553.0</ele><time>2026-04-24T16:48:16.012Z</time></trkpt><trkpt lat="42.15813601118854" lon="0.047058148166533406"><ele>552.0</ele><time>2026-04-24T16:48:17.012Z</time></trkpt><trkpt lat="42.15806672713808" lon="0.046840921409307554"><ele>552.0</ele><time>2026-04-24T16:48:18.012Z</time></trkpt><trkpt lat="42.158010692187425" lon="0.046625688667919475"><ele>552.0</ele><time>2026-04-24T16:48:19.012Z</time></trkpt><trkpt lat="42.15795510863276" lon="0.046424095271950544"><ele>552.0</ele><time>2026-04-24T16:48:20.012Z</time></trkpt><trkpt lat="42.157897044266065" lon="0.04622410214715338"><ele>552.0</ele><time>2026-04-24T16:48:21.012Z</time></trkpt><trkpt lat="42.1578419187013" lon="0.04602765714368351"><ele>552.0</ele><time>2026-04-24T16:48:22.012Z</time></trkpt><trkpt lat="42.15779096674671" lon="0.04583522699194564"><ele>552.0</ele><time>2026-04-24T16:48:23.012Z</time></trkpt><trkpt lat="42.15773325844186" lon="0.0456332245078648"><ele>552.3333333333334</ele><time>2026-04-24T16:48:24.012Z</time></trkpt><trkpt lat="42.15767511169293" lon="0.04542126142895179"><ele>552.6666666666667</ele><time>2026-04-24T16:48:25.012Z</time></trkpt><trkpt lat="42.15760118029456" lon="0.045186261442734035"><ele>553.0</ele><time>2026-04-24T16:48:26.012Z</time></trkpt><trkpt lat="42.15754038980882" lon="0.044965992762709815"><ele>552.3333333333334</ele><time>2026-04-24T16:48:27.012Z</time></trkpt><trkpt lat="42.157487534723124" lon="0.04473833749976426"><ele>551.6666666666666</ele><time>2026-04-24T16:48:28.012Z</time></trkpt><trkpt lat="42.1574497178199" lon="0.04452946643599281"><ele>551.0</ele><time>2026-04-24T16:48:29.012Z</time></trkpt><trkpt lat="42.15746511790065" lon="0.044329172864437806"><ele>550.0</ele><time>2026-04-24T16:48:30.012Z</time></trkpt><trkpt lat="42.15749606554405" lon="0.04412042564699916"><ele>549.0</ele><time>2026-04-24T16:48:31.012Z</time></trkpt><trkpt lat="42.15756990504073" lon="0.043935275017343046"><ele>548.0</ele><time>2026-04-24T16:48:32.012Z</time></trkpt><trkpt lat="42.157651589446736" lon="0.043741723102476475"><ele>548.0</ele><time>2026-04-24T16:48:33.012Z</time></trkpt><trkpt lat="42.15772155715549" lon="0.04355306051812518"><ele>548.0</ele><time>2026-04-24T16:48:34.012Z</time></trkpt><trkpt lat="42.15781624971716" lon="0.043361986041652735"><ele>548.0</ele><time>2026-04-24T16:48:35.012Z</time></trkpt><trkpt lat="42.15788278740287" lon="0.043184693868635486"><ele>548.25</ele><time>2026-04-24T16:48:36.012Z</time></trkpt><trkpt lat="42.15792414492738" lon="0.0430099790029303"><ele>548.5</ele><time>2026-04-24T16:48:37.012Z</time></trkpt><trkpt lat="42.15793270402579" lon="0.04283360635731757"><ele>548.75</ele><time>2026-04-24T16:48:38.012Z</time></trkpt><trkpt lat="42.15790341848689" lon="0.042640724455078716"><ele>549.0</ele><time>2026-04-24T16:48:39.012Z</time></trkpt><trkpt lat="42.15784267522941" lon="0.042441478891192"><ele>549.0</ele><time>2026-04-24T16:48:40.012Z</time></trkpt><trkpt lat="42.157774363317095" lon="0.042243880208950604"><ele>549.0</ele><time>2026-04-24T16:48:41.012Z</time></trkpt><trkpt lat="42.157702800578754" lon="0.04203386007251887"><ele>549.0</ele><time>2026-04-24T16:48:42.012Z</time></trkpt><trkpt lat="42.15763419239468" lon="0.041816094818369384"><ele>549.3333333333334</ele><time>2026-04-24T16:48:43.012Z</time></trkpt><trkpt lat="42.15756122297767" lon="0.0416103617853283"><ele>549.6666666666667</ele><time>2026-04-24T16:48:44.012Z</time></trkpt><trkpt lat="42.157480553085705" lon="0.04137330950418797"><ele>550.0</ele><time>2026-04-24T16:48:45.012Z</time></trkpt><trkpt lat="42.15740816679638" lon="0.04113555199102"><ele>547.3333333333334</ele><time>2026-04-24T16:48:46.012Z</time></trkpt><trkpt lat="42.15733084265879" lon="0.04090139372897736"><ele>544.6666666666666</ele><time>2026-04-24T16:48:47.012Z</time></trkpt><trkpt lat="42.157253509970076" lon="0.04065498371355367"><ele>542.0</ele><time>2026-04-24T16:48:48.012Z</time></trkpt><trkpt lat="42.15718404530575" lon="0.04041996525910556"><ele>542.0</ele><time>2026-04-24T16:48:49.012Z</time></trkpt><trkpt lat="42.15711620290441" lon="0.040211084032332874"><ele>542.0</ele><time>2026-04-24T16:48:50.012Z</time></trkpt><trkpt lat="42.15702362633147" lon="0.0400116664212485"><ele>542.0</ele><time>2026-04-24T16:48:51.012Z</time></trkpt><trkpt lat="42.15689401224224" lon="0.03981333267185823"><ele>542.3333333333333</ele><time>2026-04-24T16:48:52.012Z</time></trkpt><trkpt lat="42.156736565649794" lon="0.039629152659872255"><ele>542.6666666666666</ele><time>2026-04-24T16:48:53.012Z</time></trkpt><trkpt lat="42.156557064013064" lon="0.03944292469810031"><ele>543.0</ele><time>2026-04-24T16:48:54.012Z</time></trkpt><trkpt lat="42.156384223111964" lon="0.039253831023654914"><ele>541.3333333333334</ele><time>2026-04-24T16:48:55.012Z</time></trkpt><trkpt lat="42.156220960021884" lon="0.039067880960780246"><ele>539.6666666666667</ele><time>2026-04-24T16:48:56.012Z</time></trkpt><trkpt lat="42.156075589983004" lon="0.03889572299753863"><ele>538.0</ele><time>2026-04-24T16:48:57.012Z</time></trkpt><trkpt lat="42.15593442778167" lon="0.038734222014816785"><ele>538.0</ele><time>2026-04-24T16:48:58.012Z</time></trkpt><trkpt lat="42.155805559884264" lon="0.03855896488251663"><ele>538.0</ele><time>2026-04-24T16:48:59.012Z</time></trkpt><trkpt lat="42.15563962410877" lon="0.03839897886489221"><ele>538.0</ele><time>2026-04-24T16:49:00.012Z</time></trkpt><trkpt lat="42.15548673041223" lon="0.038221742079860205"><ele>537.0</ele><time>2026-04-24T16:49:01.012Z</time></trkpt><trkpt lat="42.15533405909976" lon="0.03802545242169312"><ele>536.0</ele><time>2026-04-24T16:49:02.012Z</time></trkpt><trkpt lat="42.15518540074248" lon="0.037849297076052855"><ele>535.0</ele><time>2026-04-24T16:49:03.012Z</time></trkpt><trkpt lat="42.15502130051532" lon="0.03767086142753045"><ele>533.6666666666667</ele><time>2026-04-24T16:49:04.012Z</time></trkpt><trkpt lat="42.15485736003735" lon="0.03748588926988467"><ele>532.3333333333334</ele><time>2026-04-24T16:49:05.012Z</time></trkpt><trkpt lat="42.15468346395557" lon="0.03728721528671104"><ele>531.0</ele><time>2026-04-24T16:49:06.012Z</time></trkpt><trkpt lat="42.15452590307025" lon="0.03708949134514161"><ele>531.0</ele><time>2026-04-24T16:49:07.012Z</time></trkpt><trkpt lat="42.15435934720316" lon="0.0369053511828288"><ele>531.0</ele><time>2026-04-24T16:49:08.012Z</time></trkpt><trkpt lat="42.1541890939708" lon="0.03671662819393397"><ele>531.0</ele><time>2026-04-24T16:49:09.012Z</time></trkpt><trkpt lat="42.15403249444186" lon="0.03653905676640961"><ele>529.6666666666666</ele><time>2026-04-24T16:49:10.012Z</time></trkpt><trkpt lat="42.15388066592342" lon="0.03636949787098695"><ele>528.3333333333333</ele><time>2026-04-24T16:49:11.012Z</time></trkpt><trkpt lat="42.153724206298484" lon="0.036186967641344985"><ele>527.0</ele><time>2026-04-24T16:49:12.012Z</time></trkpt><trkpt lat="42.15357421819417" lon="0.03600982302993196"><ele>527.0</ele><time>2026-04-24T16:49:13.012Z</time></trkpt><trkpt lat="42.153434355071205" lon="0.035846529066186586"><ele>527.0</ele><time>2026-04-24T16:49:14.012Z</time></trkpt><trkpt lat="42.15330152600613" lon="0.03568901997374947"><ele>527.0</ele><time>2026-04-24T16:49:15.012Z</time></trkpt><trkpt lat="42.153166951016615" lon="0.03553680648696757"><ele>525.0</ele><time>2026-04-24T16:49:16.012Z</time></trkpt><trkpt lat="42.15304903432978" lon="0.0354092980683389"><ele>523.0</ele><time>2026-04-24T16:49:17.012Z</time></trkpt><trkpt lat="42.152934771636566" lon="0.03524553316504648"><ele>521.0</ele><time>2026-04-24T16:49:18.012Z</time></trkpt><trkpt lat="42.152800224077104" lon="0.0350928599244778"><ele>520.6666666666666</ele><time>2026-04-24T16:49:19.012Z</time></trkpt><trkpt lat="42.15267582751371" lon="0.03495202733605869"><ele>520.3333333333334</ele><time>2026-04-24T16:49:20.012Z</time></trkpt><trkpt lat="42.15255108927976" lon="0.03483384939306383"><ele>520.0</ele><time>2026-04-24T16:49:21.012Z</time></trkpt><trkpt lat="42.152443305384125" lon="0.0347111250078791"><ele>519.75</ele><time>2026-04-24T16:49:22.012Z</time></trkpt><trkpt lat="42.15234150468904" lon="0.03458521055535559"><ele>519.5</ele><time>2026-04-24T16:49:23.012Z</time></trkpt><trkpt lat="42.152206322884204" lon="0.034545026820071864"><ele>519.25</ele><time>2026-04-24T16:49:24.012Z</time></trkpt><trkpt lat="42.15205981023886" lon="0.034536590943473576"><ele>519.0</ele><time>2026-04-24T16:49:25.012Z</time></trkpt><trkpt lat="42.15192272455922" lon="0.03458639390886355"><ele>519.0</ele><time>2026-04-24T16:49:26.012Z</time></trkpt><trkpt lat="42.15179056445027" lon="0.03464245614315344"><ele>519.0</ele><time>2026-04-24T16:49:27.012Z</time></trkpt><trkpt lat="42.151670640885555" lon="0.034681569287564946"><ele>519.0</ele><time>2026-04-24T16:49:28.012Z</time></trkpt><trkpt lat="42.15156013913074" lon="0.03464199969619839"><ele>519.0</ele><time>2026-04-24T16:49:29.012Z</time></trkpt><trkpt lat="42.15145212369874" lon="0.03458271995376036"><ele>518.3333333333334</ele><time>2026-04-24T16:49:30.012Z</time></trkpt><trkpt lat="42.15135110740835" lon="0.03446737770184049"><ele>517.6666666666667</ele><time>2026-04-24T16:49:31.012Z</time></trkpt><trkpt lat="42.15126110792585" lon="0.034312995796250634"><ele>517.0</ele><time>2026-04-24T16:49:32.012Z</time></trkpt><trkpt lat="42.151155181554365" lon="0.03412325327161779"><ele>517.0</ele><time>2026-04-24T16:49:33.012Z</time></trkpt><trkpt lat="42.15104010748349" lon="0.0339448218949882"><ele>517.0</ele><time>2026-04-24T16:49:34.012Z</time></trkpt><trkpt lat="42.150955146503314" lon="0.03377404361977661"><ele>517.0</ele><time>2026-04-24T16:49:35.012Z</time></trkpt><trkpt lat="42.150859553072145" lon="0.03364095571627682"><ele>517.0</ele><time>2026-04-24T16:49:36.012Z</time></trkpt><trkpt lat="42.15075240312711" lon="0.033543309041591765"><ele>517.0</ele><time>2026-04-24T16:49:37.012Z</time></trkpt><trkpt lat="42.15061000765559" lon="0.0334673801345329"><ele>517.0</ele><time>2026-04-24T16:49:38.012Z</time></trkpt><trkpt lat="42.15044418170988" lon="0.03341697899827167"><ele>515.75</ele><time>2026-04-24T16:49:39.012Z</time></trkpt><trkpt lat="42.15027914626134" lon="0.0333831496898041"><ele>514.5</ele><time>2026-04-24T16:49:40.012Z</time></trkpt><trkpt lat="42.15015145577353" lon="0.03329455322623449"><ele>513.25</ele><time>2026-04-24T16:49:41.012Z</time></trkpt><trkpt lat="42.15004640256637" lon="0.033187602082903035"><ele>512.0</ele><time>2026-04-24T16:49:42.012Z</time></trkpt><trkpt lat="42.149949743128104" lon="0.03306940904598309"><ele>507.75</ele><time>2026-04-24T16:49:43.012Z</time></trkpt><trkpt lat="42.14984239462842" lon="0.032941302741124716"><ele>503.5</ele><time>2026-04-24T16:49:44.012Z</time></trkpt><trkpt lat="42.149713081519515" lon="0.03286756014754039"><ele>499.25</ele><time>2026-04-24T16:49:45.012Z</time></trkpt><trkpt lat="42.14959016587949" lon="0.03281720673642326"><ele>495.0</ele><time>2026-04-24T16:49:46.012Z</time></trkpt><trkpt lat="42.149483671961626" lon="0.032757030105152934"><ele>495.0</ele><time>2026-04-24T16:49:47.012Z</time></trkpt><trkpt lat="42.14940055279058" lon="0.03266867939697524"><ele>495.0</ele><time>2026-04-24T16:49:48.012Z</time></trkpt><trkpt lat="42.14935875446643" lon="0.03252915831908661"><ele>495.0</ele><time>2026-04-24T16:49:49.012Z</time></trkpt><trkpt lat="42.14932981691851" lon="0.032381214110529605"><ele>495.0</ele><time>2026-04-24T16:49:50.012Z</time></trkpt><trkpt lat="42.14932234697118" lon="0.032195060089714476"><ele>493.66666666666663</ele><time>2026-04-24T16:49:51.013Z</time></trkpt><trkpt lat="42.149340774456384" lon="0.03200065501942174"><ele>492.3333333333333</ele><time>2026-04-24T16:49:52.013Z</time></trkpt><trkpt lat="42.14939834626239" lon="0.03179383543751228"><ele>491.0</ele><time>2026-04-24T16:49:53.013Z</time></trkpt><trkpt lat="42.14946184569601" lon="0.03159005592975848"><ele>492.0</ele><time>2026-04-24T16:49:54.013Z</time></trkpt><trkpt lat="42.14954647086124" lon="0.031449068312186815"><ele>493.0</ele><time>2026-04-24T16:49:55.013Z</time></trkpt><trkpt lat="42.149658858740125" lon="0.031370179943202375"><ele>494.0</ele><time>2026-04-24T16:49:56.013Z</time></trkpt><trkpt lat="42.14978740392818" lon="0.03131944924961879"><ele>495.0</ele><time>2026-04-24T16:49:57.013Z</time></trkpt><trkpt lat="42.14991630626125" lon="0.03130986089073593"><ele>495.0</ele><time>2026-04-24T16:49:58.013Z</time></trkpt><trkpt lat="42.150029300782094" lon="0.03129881940679439"><ele>495.0</ele><time>2026-04-24T16:49:59.013Z</time></trkpt><trkpt lat="42.15010968404106" lon="0.03123712557282776"><ele>495.0</ele><time>2026-04-24T16:50:00.013Z</time></trkpt><trkpt lat="42.15016633862522" lon="0.031127630909677566"><ele>495.0</ele><time>2026-04-24T16:50:01.013Z</time></trkpt><trkpt lat="42.150197424603455" lon="0.031002275047385307"><ele>495.0</ele><time>2026-04-24T16:50:02.013Z</time></trkpt><trkpt lat="42.15019240614236" lon="0.03085547398039393"><ele>496.0</ele><time>2026-04-24T16:50:03.013Z</time></trkpt><trkpt lat="42.15015124231168" lon="0.030718520263338767"><ele>497.0</ele><time>2026-04-24T16:50:04.013Z</time></trkpt><trkpt lat="42.15007264207343" lon="0.03061049678111238"><ele>498.0</ele><time>2026-04-24T16:50:05.013Z</time></trkpt><trkpt lat="42.14996020993468" lon="0.030535993071232368"><ele>499.0</ele><time>2026-04-24T16:50:06.013Z</time></trkpt><trkpt lat="42.149835231174094" lon="0.0304535586662646"><ele>495.6666666666667</ele><time>2026-04-24T16:50:07.013Z</time></trkpt><trkpt lat="42.14969185536952" lon="0.030383097305838026"><ele>492.33333333333337</ele><time>2026-04-24T16:50:08.013Z</time></trkpt><trkpt lat="42.149549099807835" lon="0.030276601206547606"><ele>489.0</ele><time>2026-04-24T16:50:09.013Z</time></trkpt><trkpt lat="42.14939496956513" lon="0.03020249011641482"><ele>489.0</ele><time>2026-04-24T16:50:10.013Z</time></trkpt><trkpt lat="42.14925689577689" lon="0.03012685651660062"><ele>489.0</ele><time>2026-04-24T16:50:11.013Z</time></trkpt><trkpt lat="42.14912399764696" lon="0.030055113670258374"><ele>489.0</ele><time>2026-04-24T16:50:12.013Z</time></trkpt><trkpt lat="42.14900543314961" lon="0.029981210314841935"><ele>489.0</ele><time>2026-04-24T16:50:13.013Z</time></trkpt><trkpt lat="42.14888770017919" lon="0.029904288253571255"><ele>485.25</ele><time>2026-04-24T16:50:14.013Z</time></trkpt><trkpt lat="42.148770251929676" lon="0.029796877859898083"><ele>481.5</ele><time>2026-04-24T16:50:15.013Z</time></trkpt><trkpt lat="42.1486643805451" lon="0.02964595801469117"><ele>477.75</ele><time>2026-04-24T16:50:16.013Z</time></trkpt><trkpt lat="42.14858663065963" lon="0.029474317075334433"><ele>474.0</ele><time>2026-04-24T16:50:17.013Z</time></trkpt><trkpt lat="42.148516718833804" lon="0.029317685516999776"><ele>474.0</ele><time>2026-04-24T16:50:18.013Z</time></trkpt><trkpt lat="42.148466317829495" lon="0.029174869460083123"><ele>474.0</ele><time>2026-04-24T16:50:19.013Z</time></trkpt><trkpt lat="42.14846639913345" lon="0.02905640226798205"><ele>474.0</ele><time>2026-04-24T16:50:20.013Z</time></trkpt><trkpt lat="42.14851122842399" lon="0.028956713451816565"><ele>474.0</ele><time>2026-04-24T16:50:21.013Z</time></trkpt><trkpt lat="42.148589564384224" lon="0.028880838909790423"><ele>474.0</ele><time>2026-04-24T16:50:22.013Z</time></trkpt><trkpt lat="42.148710871301056" lon="0.028877445238676108"><ele>470.0</ele><time>2026-04-24T16:50:23.013Z</time></trkpt><trkpt lat="42.14883307995586" lon="0.028916388885624335"><ele>466.0</ele><time>2026-04-24T16:50:24.013Z</time></trkpt><trkpt lat="42.148990375402235" lon="0.028951924364943996"><ele>462.0</ele><time>2026-04-24T16:50:25.013Z</time></trkpt><trkpt lat="42.14916556228415" lon="0.028962383010182884"><ele>461.66666666666663</ele><time>2026-04-24T16:50:26.013Z</time></trkpt><trkpt lat="42.149345911638925" lon="0.029012137135562065"><ele>461.3333333333333</ele><time>2026-04-24T16:50:27.013Z</time></trkpt><trkpt lat="42.14957213202124" lon="0.029024460423017623"><ele>461.0</ele><time>2026-04-24T16:50:28.013Z</time></trkpt><trkpt lat="42.14978314532585" lon="0.029038039002806607"><ele>460.66666666666663</ele><time>2026-04-24T16:50:29.013Z</time></trkpt><trkpt lat="42.149981697637834" lon="0.02904524956876603"><ele>460.33333333333337</ele><time>2026-04-24T16:50:30.013Z</time></trkpt><trkpt lat="42.15015845503981" lon="0.029055158942141775"><ele>460.0</ele><time>2026-04-24T16:50:31.013Z</time></trkpt><trkpt lat="42.15033474826432" lon="0.029079114501529137"><ele>460.0</ele><time>2026-04-24T16:50:32.013Z</time></trkpt><trkpt lat="42.150497682940774" lon="0.02911436907181106"><ele>460.0</ele><time>2026-04-24T16:50:33.013Z</time></trkpt><trkpt lat="42.15065039997481" lon="0.02915769208191311"><ele>460.0</ele><time>2026-04-24T16:50:34.013Z</time></trkpt><trkpt lat="42.150784413729006" lon="0.029200188710569945"><ele>459.33333333333337</ele><time>2026-04-24T16:50:35.013Z</time></trkpt><trkpt lat="42.15093562444351" lon="0.029192208463015675"><ele>458.66666666666663</ele><time>2026-04-24T16:50:36.013Z</time></trkpt><trkpt lat="42.151092079074516" lon="0.02917309250453005"><ele>458.0</ele><time>2026-04-24T16:50:37.013Z</time></trkpt><trkpt lat="42.15125219113079" lon="0.029142331330117652"><ele>458.0</ele><time>2026-04-24T16:50:38.013Z</time></trkpt><trkpt lat="42.15138879108202" lon="0.029118976074193764"><ele>458.0</ele><time>2026-04-24T16:50:39.013Z</time></trkpt><trkpt lat="42.15150701231988" lon="0.02909833010582872"><ele>458.0</ele><time>2026-04-24T16:50:40.013Z</time></trkpt><trkpt lat="42.1516062580277" lon="0.029041378021499396"><ele>458.0</ele><time>2026-04-24T16:50:41.013Z</time></trkpt><trkpt lat="42.151694335495215" lon="0.028942934064232265"><ele>458.75</ele><time>2026-04-24T16:50:42.013Z</time></trkpt><trkpt lat="42.151767233044154" lon="0.02881366681980759"><ele>459.5</ele><time>2026-04-24T16:50:43.013Z</time></trkpt><trkpt lat="42.151815692604636" lon="0.028672878292931844"><ele>460.25</ele><time>2026-04-24T16:50:44.013Z</time></trkpt><trkpt lat="42.151854783838544" lon="0.028513721359262164"><ele>461.0</ele><time>2026-04-24T16:50:45.013Z</time></trkpt><trkpt lat="42.15187358648331" lon="0.028348297527302876"><ele>461.3333333333333</ele><time>2026-04-24T16:50:46.013Z</time></trkpt><trkpt lat="42.151858529699616" lon="0.028152676117906433"><ele>461.66666666666663</ele><time>2026-04-24T16:50:47.013Z</time></trkpt><trkpt lat="42.151799443916794" lon="0.027916336110646662"><ele>462.0</ele><time>2026-04-24T16:50:48.013Z</time></trkpt><trkpt lat="42.151749258723775" lon="0.027698716748096427"><ele>462.0</ele><time>2026-04-24T16:50:49.013Z</time></trkpt><trkpt lat="42.151711634255925" lon="0.027512626856728437"><ele>462.00000000000006</ele><time>2026-04-24T16:50:50.013Z</time></trkpt><trkpt lat="42.151682430173246" lon="0.027378695122495075"><ele>462.00000000000006</ele><time>2026-04-24T16:50:51.013Z</time></trkpt><trkpt lat="42.15165298773969" lon="0.027262390927304408"><ele>462.0</ele><time>2026-04-24T16:50:52.013Z</time></trkpt><trkpt lat="42.15162000605912" lon="0.027178450449502286"><ele>462.0</ele><time>2026-04-24T16:50:53.013Z</time></trkpt><trkpt lat="42.1515195483758" lon="0.02711762159776017"><ele>462.20000000000005</ele><time>2026-04-24T16:50:55.013Z</time></trkpt><trkpt lat="42.15144387526385" lon="0.027172637933210363"><ele>462.40000000000003</ele><time>2026-04-24T16:50:56.013Z</time></trkpt><trkpt lat="42.15137413854344" lon="0.02725659338040089"><ele>462.59999999999997</ele><time>2026-04-24T16:50:57.013Z</time></trkpt><trkpt lat="42.15129404951828" lon="0.027347061001573098"><ele>462.79999999999995</ele><time>2026-04-24T16:50:58.013Z</time></trkpt><trkpt lat="42.15120214965214" lon="0.027445109058377607"><ele>463.0</ele><time>2026-04-24T16:50:59.013Z</time></trkpt><trkpt lat="42.15109927646884" lon="0.02753556649522208"><ele>463.0</ele><time>2026-04-24T16:51:00.013Z</time></trkpt><trkpt lat="42.15099171500204" lon="0.027580091892633152"><ele>463.0</ele><time>2026-04-24T16:51:01.013Z</time></trkpt><trkpt lat="42.15086886552554" lon="0.027621337441435998"><ele>463.0</ele><time>2026-04-24T16:51:02.013Z</time></trkpt><trkpt lat="42.15072428075934" lon="0.027658379711574435"><ele>463.0</ele><time>2026-04-24T16:51:03.013Z</time></trkpt><trkpt lat="42.15054933822802" lon="0.027700238941281444"><ele>462.6666666666667</ele><time>2026-04-24T16:51:04.013Z</time></trkpt><trkpt lat="42.150353250693364" lon="0.027746239794871855"><ele>462.33333333333337</ele><time>2026-04-24T16:51:05.013Z</time></trkpt><trkpt lat="42.15017322854981" lon="0.027801115482470704"><ele>462.0</ele><time>2026-04-24T16:51:06.013Z</time></trkpt><trkpt lat="42.149997917278796" lon="0.02783222506012527"><ele>460.0</ele><time>2026-04-24T16:51:07.013Z</time></trkpt><trkpt lat="42.14984383269754" lon="0.027867786095872205"><ele>458.0</ele><time>2026-04-24T16:51:08.013Z</time></trkpt><trkpt lat="42.14969234536936" lon="0.027883253323604727"><ele>456.0</ele><time>2026-04-24T16:51:09.013Z</time></trkpt><trkpt lat="42.149548632411914" lon="0.027836967242190095"><ele>456.0</ele><time>2026-04-24T16:51:10.013Z</time></trkpt><trkpt lat="42.1494014439846" lon="0.027771274036524365"><ele>456.0</ele><time>2026-04-24T16:51:11.013Z</time></trkpt><trkpt lat="42.149247827059796" lon="0.02762373611024042"><ele>456.0</ele><time>2026-04-24T16:51:12.013Z</time></trkpt><trkpt lat="42.14910308702514" lon="0.02746187798568938"><ele>456.33333333333337</ele><time>2026-04-24T16:51:13.013Z</time></trkpt><trkpt lat="42.148959642452105" lon="0.02729928462036008"><ele>456.6666666666667</ele><time>2026-04-24T16:51:14.013Z</time></trkpt><trkpt lat="42.1488196852163" lon="0.027158906202187482"><ele>457.0</ele><time>2026-04-24T16:51:15.013Z</time></trkpt><trkpt lat="42.14868668594989" lon="0.027046037637550382"><ele>457.0</ele><time>2026-04-24T16:51:16.013Z</time></trkpt><trkpt lat="42.148576182777624" lon="0.02695637973948265"><ele>457.00000000000006</ele><time>2026-04-24T16:51:17.013Z</time></trkpt><trkpt lat="42.148485122487216" lon="0.026896910207351046"><ele>457.00000000000006</ele><time>2026-04-24T16:51:18.013Z</time></trkpt><trkpt lat="42.148407688255645" lon="0.026854413545934777"><ele>457.0</ele><time>2026-04-24T16:51:19.013Z</time></trkpt><trkpt lat="42.14834207963852" lon="0.02680850363778865"><ele>457.0</ele><time>2026-04-24T16:51:20.013Z</time></trkpt><trkpt lat="42.14829567292543" lon="0.026684516745806"><ele>457.0</ele><time>2026-04-24T16:51:22.013Z</time></trkpt><trkpt lat="42.148352104308074" lon="0.02658469571949373"><ele>457.0</ele><time>2026-04-24T16:51:24.013Z</time></trkpt><trkpt lat="42.14855274212598" lon="0.02659439939213074"><ele>457.0</ele><time>2026-04-24T16:51:27.013Z</time></trkpt><trkpt lat="42.14866982496213" lon="0.02664108838104128"><ele>457.0</ele><time>2026-04-24T16:51:28.013Z</time></trkpt><trkpt lat="42.14880690033133" lon="0.026671700174316793"><ele>457.0</ele><time>2026-04-24T16:51:29.013Z</time></trkpt><trkpt lat="42.14896961975473" lon="0.02669375075452408"><ele>457.0</ele><time>2026-04-24T16:51:30.014Z</time></trkpt><trkpt lat="42.14913309478145" lon="0.02669582451492315"><ele>457.0</ele><time>2026-04-24T16:51:31.014Z</time></trkpt><trkpt lat="42.149299496938525" lon="0.02668926113930673"><ele>457.75</ele><time>2026-04-24T16:51:32.014Z</time></trkpt><trkpt lat="42.149449829608706" lon="0.02667203358108954"><ele>458.5</ele><time>2026-04-24T16:51:33.014Z</time></trkpt><trkpt lat="42.14958013127687" lon="0.026636424614864474"><ele>459.25</ele><time>2026-04-24T16:51:34.014Z</time></trkpt><trkpt lat="42.14970271976289" lon="0.026595602084495573"><ele>460.0</ele><time>2026-04-24T16:51:35.014Z</time></trkpt><trkpt lat="42.1498245164707" lon="0.026549452968455633"><ele>462.25</ele><time>2026-04-24T16:51:36.014Z</time></trkpt><trkpt lat="42.149956063647025" lon="0.02649384046174067"><ele>464.5</ele><time>2026-04-24T16:51:37.014Z</time></trkpt><trkpt lat="42.150092391874296" lon="0.02641604080883643"><ele>466.75</ele><time>2026-04-24T16:51:38.014Z</time></trkpt><trkpt lat="42.15023513745878" lon="0.0263134181908735"><ele>469.0</ele><time>2026-04-24T16:51:39.014Z</time></trkpt><trkpt lat="42.15037524682758" lon="0.026202874262694117"><ele>469.0</ele><time>2026-04-24T16:51:40.014Z</time></trkpt><trkpt lat="42.15051425546721" lon="0.026077681383881036"><ele>469.0</ele><time>2026-04-24T16:51:41.014Z</time></trkpt><trkpt lat="42.15064442418686" lon="0.025933036526599916"><ele>469.0</ele><time>2026-04-24T16:51:42.014Z</time></trkpt><trkpt lat="42.15077401377323" lon="0.025756887927672983"><ele>472.6666666666667</ele><time>2026-04-24T16:51:43.014Z</time></trkpt><trkpt lat="42.150901500144194" lon="0.02557304571670803"><ele>476.33333333333337</ele><time>2026-04-24T16:51:44.014Z</time></trkpt><trkpt lat="42.1510273958964" lon="0.025378553300167316"><ele>480.0</ele><time>2026-04-24T16:51:45.014Z</time></trkpt><trkpt lat="42.15116385441151" lon="0.025165769234678347"><ele>480.0</ele><time>2026-04-24T16:51:46.014Z</time></trkpt><trkpt lat="42.1513016731377" lon="0.02498496647449671"><ele>480.0</ele><time>2026-04-24T16:51:47.014Z</time></trkpt><trkpt lat="42.151436637939504" lon="0.024781511645207494"><ele>480.0</ele><time>2026-04-24T16:51:48.014Z</time></trkpt><trkpt lat="42.15158496207146" lon="0.02455791808189253"><ele>483.0</ele><time>2026-04-24T16:51:49.014Z</time></trkpt><trkpt lat="42.1517380982337" lon="0.024325163826093062"><ele>486.0</ele><time>2026-04-24T16:51:50.014Z</time></trkpt><trkpt lat="42.15186758599183" lon="0.024105410776825154"><ele>489.0</ele><time>2026-04-24T16:51:51.014Z</time></trkpt><trkpt lat="42.15199624429692" lon="0.023915235451112064"><ele>489.0</ele><time>2026-04-24T16:51:52.014Z</time></trkpt><trkpt lat="42.15210660381454" lon="0.02374152920457745"><ele>489.0</ele><time>2026-04-24T16:51:53.014Z</time></trkpt><trkpt lat="42.15222309988541" lon="0.023584422195342482"><ele>489.0</ele><time>2026-04-24T16:51:54.014Z</time></trkpt><trkpt lat="42.15234066021579" lon="0.02341193191116986"><ele>492.66666666666663</ele><time>2026-04-24T16:51:55.014Z</time></trkpt><trkpt lat="42.152464772476776" lon="0.02322657390925528"><ele>496.3333333333333</ele><time>2026-04-24T16:51:56.014Z</time></trkpt><trkpt lat="42.15259915577751" lon="0.023040640552941645"><ele>500.0</ele><time>2026-04-24T16:51:57.014Z</time></trkpt><trkpt lat="42.152756350307655" lon="0.022879903884319364"><ele>500.0</ele><time>2026-04-24T16:51:58.014Z</time></trkpt><trkpt lat="42.15292139049045" lon="0.022718683530770438"><ele>500.0</ele><time>2026-04-24T16:51:59.014Z</time></trkpt><trkpt lat="42.153094447551474" lon="0.022580489098053776"><ele>500.0</ele><time>2026-04-24T16:52:00.003Z</time></trkpt><trkpt lat="42.1532705119769" lon="0.0224470005708524"><ele>503.66666666666663</ele><time>2026-04-24T16:52:01.003Z</time></trkpt><trkpt lat="42.15347173182393" lon="0.022354786440492495"><ele>507.33333333333337</ele><time>2026-04-24T16:52:02.003Z</time></trkpt><trkpt lat="42.1536760915565" lon="0.022276975512106927"><ele>511.0</ele><time>2026-04-24T16:52:03.003Z</time></trkpt><trkpt lat="42.15389220740741" lon="0.022227595958221952"><ele>514.0</ele><time>2026-04-24T16:52:04.003Z</time></trkpt><trkpt lat="42.15410931444998" lon="0.022209840466138636"><ele>517.0</ele><time>2026-04-24T16:52:05.003Z</time></trkpt><trkpt lat="42.1543268121363" lon="0.022219110719606677"><ele>520.0</ele><time>2026-04-24T16:52:06.003Z</time></trkpt><trkpt lat="42.15454588656475" lon="0.02224204265184373"><ele>520.0</ele><time>2026-04-24T16:52:07.003Z</time></trkpt><trkpt lat="42.15475305907778" lon="0.02229158978297027"><ele>520.0</ele><time>2026-04-24T16:52:08.003Z</time></trkpt><trkpt lat="42.15494357091868" lon="0.022341434265959127"><ele>520.0</ele><time>2026-04-24T16:52:09.003Z</time></trkpt><trkpt lat="42.15512083267647" lon="0.02238077941013773"><ele>520.3333333333334</ele><time>2026-04-24T16:52:10.003Z</time></trkpt><trkpt lat="42.15530876257677" lon="0.022401988650789212"><ele>520.6666666666666</ele><time>2026-04-24T16:52:11.003Z</time></trkpt><trkpt lat="42.15551103801247" lon="0.022390122509009132"><ele>521.0</ele><time>2026-04-24T16:52:12.003Z</time></trkpt><trkpt lat="42.15571479979655" lon="0.022373486728411045"><ele>521.0</ele><time>2026-04-24T16:52:13.003Z</time></trkpt><trkpt lat="42.155907089420424" lon="0.022323748817704606"><ele>521.0</ele><time>2026-04-24T16:52:14.003Z</time></trkpt><trkpt lat="42.15610400187046" lon="0.022253962874742576"><ele>521.0</ele><time>2026-04-24T16:52:15.003Z</time></trkpt><trkpt lat="42.15629039308052" lon="0.02215711234371348"><ele>521.0</ele><time>2026-04-24T16:52:16.003Z</time></trkpt><trkpt lat="42.15648647631268" lon="0.02203588546134974"><ele>521.0</ele><time>2026-04-24T16:52:17.003Z</time></trkpt><trkpt lat="42.15668053592794" lon="0.021898479762360867"><ele>521.0</ele><time>2026-04-24T16:52:18.003Z</time></trkpt><trkpt lat="42.15687674379356" lon="0.021750040460341905"><ele>524.5</ele><time>2026-04-24T16:52:19.003Z</time></trkpt><trkpt lat="42.15707941247816" lon="0.02159945062353296"><ele>528.0</ele><time>2026-04-24T16:52:20.003Z</time></trkpt><trkpt lat="42.15728522021415" lon="0.021445273225898728"><ele>529.0</ele><time>2026-04-24T16:52:21.003Z</time></trkpt><trkpt lat="42.15749402443416" lon="0.021295426932609256"><ele>530.0</ele><time>2026-04-24T16:52:22.003Z</time></trkpt><trkpt lat="42.15769243114699" lon="0.021149857048629823"><ele>530.0</ele><time>2026-04-24T16:52:23.003Z</time></trkpt><trkpt lat="42.157877481345274" lon="0.021012261310801264"><ele>530.0</ele><time>2026-04-24T16:52:24.003Z</time></trkpt><trkpt lat="42.158057669553145" lon="0.02088105437663079"><ele>530.0</ele><time>2026-04-24T16:52:25.003Z</time></trkpt><trkpt lat="42.158234479845795" lon="0.020742918295263476"><ele>532.0</ele><time>2026-04-24T16:52:26.003Z</time></trkpt><trkpt lat="42.1584128512986" lon="0.02061134230379998"><ele>534.0</ele><time>2026-04-24T16:52:27.003Z</time></trkpt><trkpt lat="42.1585927031951" lon="0.020475954503614537"><ele>536.0</ele><time>2026-04-24T16:52:28.003Z</time></trkpt><trkpt lat="42.15877093288332" lon="0.02032350227437785"><ele>536.0</ele><time>2026-04-24T16:52:29.003Z</time></trkpt><trkpt lat="42.15895270464517" lon="0.02015041609914206"><ele>536.0</ele><time>2026-04-24T16:52:30.003Z</time></trkpt><trkpt lat="42.15912867630028" lon="0.019956745404476228"><ele>538.3333333333333</ele><time>2026-04-24T16:52:31.003Z</time></trkpt><trkpt lat="42.15929351714339" lon="0.019747915735323116"><ele>540.6666666666666</ele><time>2026-04-24T16:52:32.003Z</time></trkpt><trkpt lat="42.15944394434046" lon="0.019536962037368946"><ele>543.0</ele><time>2026-04-24T16:52:33.003Z</time></trkpt><trkpt lat="42.15958002413099" lon="0.019314300326711283"><ele>543.3333333333334</ele><time>2026-04-24T16:52:34.003Z</time></trkpt><trkpt lat="42.159719204399714" lon="0.01909995354397821"><ele>543.6666666666667</ele><time>2026-04-24T16:52:35.003Z</time></trkpt><trkpt lat="42.15985410496482" lon="0.01888390140899642"><ele>544.0</ele><time>2026-04-24T16:52:36.003Z</time></trkpt><trkpt lat="42.15998653415332" lon="0.018663429179435573"><ele>545.3333333333334</ele><time>2026-04-24T16:52:37.003Z</time></trkpt><trkpt lat="42.160119638201" lon="0.018435567245870567"><ele>546.6666666666666</ele><time>2026-04-24T16:52:38.003Z</time></trkpt><trkpt lat="42.160255812032815" lon="0.018207943831519087"><ele>548.0</ele><time>2026-04-24T16:52:39.003Z</time></trkpt><trkpt lat="42.160395742597046" lon="0.017983667945057652"><ele>549.0</ele><time>2026-04-24T16:52:40.003Z</time></trkpt><trkpt lat="42.16054018886934" lon="0.017754804294738986"><ele>550.0</ele><time>2026-04-24T16:52:41.003Z</time></trkpt><trkpt lat="42.16068699214732" lon="0.01751503375201885"><ele>553.0</ele><time>2026-04-24T16:52:42.003Z</time></trkpt><trkpt lat="42.16083114438092" lon="0.01727157765138489"><ele>556.0</ele><time>2026-04-24T16:52:43.003Z</time></trkpt><trkpt lat="42.16096996103609" lon="0.0170393157283948"><ele>556.0</ele><time>2026-04-24T16:52:44.003Z</time></trkpt><trkpt lat="42.16109860871733" lon="0.016827895249752943"><ele>556.0</ele><time>2026-04-24T16:52:45.004Z</time></trkpt><trkpt lat="42.161214907167206" lon="0.016634933880228"><ele>556.0</ele><time>2026-04-24T16:52:46.004Z</time></trkpt><trkpt lat="42.16133083476982" lon="0.016438344802015187"><ele>556.6666666666667</ele><time>2026-04-24T16:52:47.004Z</time></trkpt><trkpt lat="42.16145696126076" lon="0.016246516891312672"><ele>557.3333333333334</ele><time>2026-04-24T16:52:48.003Z</time></trkpt><trkpt lat="42.16159859918037" lon="0.016062186274081784"><ele>558.0</ele><time>2026-04-24T16:52:49.003Z</time></trkpt><trkpt lat="42.16175711363523" lon="0.015884328692043974"><ele>559.6666666666666</ele><time>2026-04-24T16:52:50.003Z</time></trkpt><trkpt lat="42.161935314270025" lon="0.01572287132599524"><ele>561.3333333333333</ele><time>2026-04-24T16:52:51.003Z</time></trkpt><trkpt lat="42.162124348709874" lon="0.015580325253759691"><ele>563.0</ele><time>2026-04-24T16:52:52.003Z</time></trkpt><trkpt lat="42.162320938538535" lon="0.015452129840291508"><ele>564.3333333333333</ele><time>2026-04-24T16:52:53.003Z</time></trkpt><trkpt lat="42.16252667771991" lon="0.01532866849680183"><ele>565.6666666666666</ele><time>2026-04-24T16:52:54.003Z</time></trkpt><trkpt lat="42.16272005880505" lon="0.015217167927821712"><ele>567.0</ele><time>2026-04-24T16:52:55.003Z</time></trkpt><trkpt lat="42.16289565850009" lon="0.015110219717194884"><ele>567.0</ele><time>2026-04-24T16:52:56.003Z</time></trkpt><trkpt lat="42.16305440897887" lon="0.015013433563346546"><ele>567.0</ele><time>2026-04-24T16:52:57.003Z</time></trkpt><trkpt lat="42.16319175829416" lon="0.01492474609942162"><ele>567.0</ele><time>2026-04-24T16:52:58.004Z</time></trkpt><trkpt lat="42.16331661848713" lon="0.014847097376339146"><ele>567.6</ele><time>2026-04-24T16:52:59.004Z</time></trkpt><trkpt lat="42.16343453492459" lon="0.014778209564666533"><ele>568.2</ele><time>2026-04-24T16:53:00.004Z</time></trkpt><trkpt lat="42.16353770624287" lon="0.01471415617780858"><ele>568.8</ele><time>2026-04-24T16:53:01.004Z</time></trkpt><trkpt lat="42.16363803139947" lon="0.014666526733066714"><ele>569.4</ele><time>2026-04-24T16:53:02.004Z</time></trkpt><trkpt lat="42.16373243871686" lon="0.014626548792190096"><ele>570.0</ele><time>2026-04-24T16:53:03.004Z</time></trkpt><trkpt lat="42.16382158665583" lon="0.014596518783470602"><ele>570.0</ele><time>2026-04-24T16:53:04.004Z</time></trkpt><trkpt lat="42.16393323880993" lon="0.014662143099308026"><ele>570.0</ele><time>2026-04-24T16:53:05.004Z</time></trkpt><trkpt lat="42.164042307321175" lon="0.014743800897032644"><ele>570.0</ele><time>2026-04-24T16:53:06.004Z</time></trkpt><trkpt lat="42.16414038348465" lon="0.01479581589047565"><ele>570.0</ele><time>2026-04-24T16:53:07.004Z</time></trkpt><trkpt lat="42.16423442678878" lon="0.014836396778666001"><ele>571.3333333333334</ele><time>2026-04-24T16:53:08.004Z</time></trkpt><trkpt lat="42.164322564328494" lon="0.01487481994464803"><ele>572.6666666666666</ele><time>2026-04-24T16:53:09.004Z</time></trkpt><trkpt lat="42.16440522906052" lon="0.014912681809992077"><ele>574.0</ele><time>2026-04-24T16:53:10.004Z</time></trkpt><trkpt lat="42.16449071904821" lon="0.014944475196866662"><ele>575.3333333333333</ele><time>2026-04-24T16:53:11.004Z</time></trkpt><trkpt lat="42.16456248882974" lon="0.014980937434270588"><ele>576.6666666666666</ele><time>2026-04-24T16:53:12.004Z</time></trkpt><trkpt lat="42.16463364538823" lon="0.015010843769757065"><ele>578.0</ele><time>2026-04-24T16:53:13.004Z</time></trkpt><trkpt lat="42.16473613876886" lon="0.015075338159535948"><ele>578.5</ele><time>2026-04-24T16:53:15.004Z</time></trkpt><trkpt lat="42.164815854203354" lon="0.015130773326341709"><ele>579.0</ele><time>2026-04-24T16:53:17.004Z</time></trkpt><trkpt lat="42.164922250101384" lon="0.015186012404506552"><ele>579.5</ele><time>2026-04-24T16:53:19.004Z</time></trkpt><trkpt lat="42.16498420716189" lon="0.015211251409078039"><ele>580.0</ele><time>2026-04-24T16:53:20.004Z</time></trkpt><trkpt lat="42.165049043646945" lon="0.015239612726330625"><ele>580.5</ele><time>2026-04-24T16:53:21.004Z</time></trkpt><trkpt lat="42.16513936862852" lon="0.015282655208184417"><ele>581.0</ele><time>2026-04-24T16:53:23.004Z</time></trkpt><trkpt lat="42.16522196292068" lon="0.015095208116028864"><ele>581.5</ele><time>2026-04-24T16:53:27.004Z</time></trkpt><trkpt lat="42.16513578611704" lon="0.01498863623541124"><ele>582.0</ele><time>2026-04-24T16:53:29.004Z</time></trkpt><trkpt lat="42.16508292952959" lon="0.015036638943572267"><ele>582.5</ele><time>2026-04-24T16:53:37.004Z</time></trkpt><trkpt lat="42.16502568373745" lon="0.014984008397661747"><ele>583.0</ele><time>2026-04-24T16:54:33.005Z</time></trkpt><trkpt lat="42.16511267793227" lon="0.015046953720503657"><ele>583.5</ele><time>2026-04-24T17:08:30.016Z</time></trkpt><trkpt lat="42.16506164679901" lon="0.014952498088927558"><ele>584.0</ele><time>2026-04-24T17:13:09.019Z</time></trkpt><trkpt lat="42.16497609801481" lon="0.014920610668985116"><ele>584.0</ele><time>2026-04-24T17:14:12.018Z</time></trkpt><trkpt lat="42.16489559251922" lon="0.014966481578797016"><ele>584.0</ele><time>2026-04-24T17:14:14.017Z</time></trkpt><trkpt lat="42.16487302343006" lon="0.01505898816332972"><ele>584.0</ele><time>2026-04-24T17:14:17.017Z</time></trkpt><trkpt lat="42.16491022888625" lon="0.015133675556671727"><ele>584.0</ele><time>2026-04-24T17:14:28.016Z</time></trkpt><trkpt lat="42.165003987922326" lon="0.0152100724893408"><ele>584.0</ele><time>2026-04-24T17:14:30.016Z</time></trkpt><trkpt lat="42.16507150161962" lon="0.015246484466402819"><ele>584.0</ele><time>2026-04-24T17:14:31.016Z</time></trkpt><trkpt lat="42.1651423748585" lon="0.015282839645525988"><ele>584.5</ele><time>2026-04-24T17:14:32.016Z</time></trkpt><trkpt lat="42.165219222992164" lon="0.015322450361152163"><ele>585.0</ele><time>2026-04-24T17:14:33.016Z</time></trkpt><trkpt lat="42.1652952498237" lon="0.015348721741145275"><ele>585.5</ele><time>2026-04-24T17:14:34.016Z</time></trkpt><trkpt lat="42.165368653255555" lon="0.015375808347052914"><ele>586.0</ele><time>2026-04-24T17:14:35.016Z</time></trkpt><trkpt lat="42.1654476092271" lon="0.015413048511439483"><ele>586.5</ele><time>2026-04-24T17:14:36.016Z</time></trkpt><trkpt lat="42.165529831622536" lon="0.015462450978129887"><ele>587.0</ele><time>2026-04-24T17:14:37.016Z</time></trkpt><trkpt lat="42.16562175913116" lon="0.015506165354799987"><ele>589.5</ele><time>2026-04-24T17:14:38.016Z</time></trkpt><trkpt lat="42.165729968304525" lon="0.015535167143927423"><ele>592.0</ele><time>2026-04-24T17:14:39.016Z</time></trkpt><trkpt lat="42.16585314382632" lon="0.015534036394009054"><ele>594.5</ele><time>2026-04-24T17:14:40.016Z</time></trkpt><trkpt lat="42.16597814974609" lon="0.015511614418229645"><ele>597.0</ele><time>2026-04-24T17:14:41.016Z</time></trkpt><trkpt lat="42.16608856477369" lon="0.015468096568280486"><ele>597.0</ele><time>2026-04-24T17:14:42.016Z</time></trkpt><trkpt lat="42.1662009177229" lon="0.015427216719761187"><ele>597.0</ele><time>2026-04-24T17:14:43.016Z</time></trkpt><trkpt lat="42.166311807980335" lon="0.015402547291447733"><ele>597.0</ele><time>2026-04-24T17:14:44.016Z</time></trkpt><trkpt lat="42.16640299644131" lon="0.01537468032932794"><ele>597.0</ele><time>2026-04-24T17:14:45.016Z</time></trkpt><trkpt lat="42.16648834139824" lon="0.015351817718215602"><ele>597.0</ele><time>2026-04-24T17:14:46.016Z</time></trkpt><trkpt lat="42.166561688501695" lon="0.015318642284141476"><ele>598.6</ele><time>2026-04-24T17:14:47.016Z</time></trkpt><trkpt lat="42.16662781540199" lon="0.015291419393116547"><ele>600.2</ele><time>2026-04-24T17:14:48.016Z</time></trkpt><trkpt lat="42.166712573754154" lon="0.015266069315539635"><ele>601.8</ele><time>2026-04-24T17:14:50.016Z</time></trkpt><trkpt lat="42.16666031350045" lon="0.015065603137631134"><ele>603.4</ele><time>2026-04-24T17:14:54.016Z</time></trkpt><trkpt lat="42.166592387110875" lon="0.015002497297787598"><ele>605.0</ele><time>2026-04-24T17:14:55.016Z</time></trkpt><trkpt lat="42.16652907030879" lon="0.014919779231406029"><ele>602.4</ele><time>2026-04-24T17:14:56.016Z</time></trkpt><trkpt lat="42.16649625878264" lon="0.014825796783205362"><ele>599.8</ele><time>2026-04-24T17:14:57.016Z</time></trkpt><trkpt lat="42.166473375187486" lon="0.014721944771299096"><ele>597.2</ele><time>2026-04-24T17:14:58.016Z</time></trkpt><trkpt lat="42.166463240287776" lon="0.01460005694081475"><ele>594.6</ele><time>2026-04-24T17:14:59.016Z</time></trkpt><trkpt lat="42.16647092532315" lon="0.014450681657761292"><ele>592.0</ele><time>2026-04-24T17:15:00.016Z</time></trkpt><trkpt lat="42.166482262317956" lon="0.014299540157113872"><ele>590.5</ele><time>2026-04-24T17:15:01.016Z</time></trkpt><trkpt lat="42.166488186987266" lon="0.014130876085078951"><ele>589.0</ele><time>2026-04-24T17:15:02.016Z</time></trkpt><trkpt lat="42.16649094466112" lon="0.013949315027675938"><ele>587.5</ele><time>2026-04-24T17:15:03.016Z</time></trkpt><trkpt lat="42.16649739297309" lon="0.013758542333488803"><ele>586.0</ele><time>2026-04-24T17:15:04.016Z</time></trkpt><trkpt lat="42.16650861202691" lon="0.01356211105813328"><ele>586.0</ele><time>2026-04-24T17:15:05.016Z</time></trkpt><trkpt lat="42.16651227629275" lon="0.013361745240105843"><ele>586.0</ele><time>2026-04-24T17:15:06.016Z</time></trkpt><trkpt lat="42.166510888869304" lon="0.013162969283781545"><ele>586.0</ele><time>2026-04-24T17:15:07.016Z</time></trkpt><trkpt lat="42.16650987841975" lon="0.012959594731294728"><ele>586.0</ele><time>2026-04-24T17:15:08.016Z</time></trkpt><trkpt lat="42.16650788731917" lon="0.012750832906379881"><ele>585.3333333333334</ele><time>2026-04-24T17:15:09.016Z</time></trkpt><trkpt lat="42.1664974368517" lon="0.012536410584680205"><ele>584.6666666666666</ele><time>2026-04-24T17:15:10.016Z</time></trkpt><trkpt lat="42.16648257310479" lon="0.012329506460575408"><ele>584.0</ele><time>2026-04-24T17:15:11.016Z</time></trkpt><trkpt lat="42.16647140882649" lon="0.012109213018834455"><ele>583.6666666666666</ele><time>2026-04-24T17:15:12.016Z</time></trkpt><trkpt lat="42.166478450692416" lon="0.011895938925502024"><ele>583.3333333333334</ele><time>2026-04-24T17:15:13.016Z</time></trkpt><trkpt lat="42.16650028555781" lon="0.011698903556240967"><ele>583.0</ele><time>2026-04-24T17:15:14.016Z</time></trkpt><trkpt lat="42.166521561832795" lon="0.01147676032456751"><ele>585.6666666666667</ele><time>2026-04-24T17:15:15.016Z</time></trkpt><trkpt lat="42.166542292101205" lon="0.011250854562803737"><ele>588.3333333333334</ele><time>2026-04-24T17:15:16.016Z</time></trkpt><trkpt lat="42.16655926030064" lon="0.011033468580773004"><ele>591.0</ele><time>2026-04-24T17:15:17.016Z</time></trkpt><trkpt lat="42.16657628812113" lon="0.010825504657747996"><ele>590.5</ele><time>2026-04-24T17:15:18.016Z</time></trkpt><trkpt lat="42.16659372112624" lon="0.010612561485155794"><ele>590.0</ele><time>2026-04-24T17:15:19.016Z</time></trkpt><trkpt lat="42.16661014293061" lon="0.010416391270718488"><ele>589.5</ele><time>2026-04-24T17:15:20.016Z</time></trkpt><trkpt lat="42.16664366795272" lon="0.010229139854920659"><ele>589.0</ele><time>2026-04-24T17:15:21.016Z</time></trkpt><trkpt lat="42.166702930984364" lon="0.010054834858267804"><ele>588.3333333333334</ele><time>2026-04-24T17:15:22.016Z</time></trkpt><trkpt lat="42.16678324630813" lon="0.009875595866819548"><ele>587.6666666666666</ele><time>2026-04-24T17:15:23.016Z</time></trkpt><trkpt lat="42.16687718688093" lon="0.009707462936286012"><ele>587.0</ele><time>2026-04-24T17:15:24.016Z</time></trkpt><trkpt lat="42.166968448539606" lon="0.009544550253110809"><ele>587.0</ele><time>2026-04-24T17:15:25.016Z</time></trkpt><trkpt lat="42.16704727033923" lon="0.009393956984056005"><ele>587.0</ele><time>2026-04-24T17:15:26.016Z</time></trkpt><trkpt lat="42.167108975522446" lon="0.00925193107145499"><ele>587.0</ele><time>2026-04-24T17:15:27.016Z</time></trkpt><trkpt lat="42.167158792005935" lon="0.009123789086961938"><ele>587.0</ele><time>2026-04-24T17:15:28.016Z</time></trkpt><trkpt lat="42.16719046702165" lon="0.00899600999867259"><ele>586.8333333333333</ele><time>2026-04-24T17:15:29.016Z</time></trkpt><trkpt lat="42.167200926905615" lon="0.008874110276693322"><ele>586.6666666666666</ele><time>2026-04-24T17:15:30.016Z</time></trkpt><trkpt lat="42.167194241105825" lon="0.008767304735782324"><ele>586.5</ele><time>2026-04-24T17:15:31.016Z</time></trkpt><trkpt lat="42.16712356129493" lon="0.00868053827473742"><ele>586.3333333333334</ele><time>2026-04-24T17:15:32.016Z</time></trkpt><trkpt lat="42.167113629351434" lon="0.008572952790259703"><ele>586.1666666666667</ele><time>2026-04-24T17:15:33.016Z</time></trkpt><trkpt lat="42.167096890869466" lon="0.008457611067450252"><ele>586.0</ele><time>2026-04-24T17:15:34.016Z</time></trkpt><trkpt lat="42.167087706250875" lon="0.00829355809662644"><ele>585.3333333333334</ele><time>2026-04-24T17:15:35.016Z</time></trkpt><trkpt lat="42.167162161354156" lon="0.00810220570562073"><ele>584.6666666666666</ele><time>2026-04-24T17:15:36.016Z</time></trkpt><trkpt lat="42.16718393259632" lon="0.007880291752377113"><ele>584.0</ele><time>2026-04-24T17:15:37.016Z</time></trkpt><trkpt lat="42.16721598902493" lon="0.0076448223962203455"><ele>583.3333333333333</ele><time>2026-04-24T17:15:38.016Z</time></trkpt><trkpt lat="42.16725134737235" lon="0.007397349299132976"><ele>582.6666666666666</ele><time>2026-04-24T17:15:39.016Z</time></trkpt><trkpt lat="42.16729247890426" lon="0.007144764798816485"><ele>582.0</ele><time>2026-04-24T17:15:40.016Z</time></trkpt><trkpt lat="42.167331640167504" lon="0.006904856920925017"><ele>584.3333333333334</ele><time>2026-04-24T17:15:41.016Z</time></trkpt><trkpt lat="42.16736833926048" lon="0.006665170115366502"><ele>586.6666666666667</ele><time>2026-04-24T17:15:42.016Z</time></trkpt><trkpt lat="42.167409455426096" lon="0.006443287851199406"><ele>589.0</ele><time>2026-04-24T17:15:43.016Z</time></trkpt><trkpt lat="42.167493368743564" lon="0.006271461028505415"><ele>589.3333333333334</ele><time>2026-04-24T17:15:44.016Z</time></trkpt><trkpt lat="42.16759296179859" lon="0.006100932169319384"><ele>589.6666666666666</ele><time>2026-04-24T17:15:45.016Z</time></trkpt><trkpt lat="42.16770635869513" lon="0.005913269346718878"><ele>590.0</ele><time>2026-04-24T17:15:46.016Z</time></trkpt><trkpt lat="42.167833422902916" lon="0.0057371173659068395"><ele>588.6666666666666</ele><time>2026-04-24T17:15:47.016Z</time></trkpt><trkpt lat="42.16796051243034" lon="0.005543495799562787"><ele>587.3333333333334</ele><time>2026-04-24T17:15:48.016Z</time></trkpt><trkpt lat="42.168083979303" lon="0.005358405078792524"><ele>586.0</ele><time>2026-04-24T17:15:49.016Z</time></trkpt><trkpt lat="42.16820889171281" lon="0.005161151785604818"><ele>588.0</ele><time>2026-04-24T17:15:50.016Z</time></trkpt><trkpt lat="42.168333803942666" lon="0.00497952317185081"><ele>590.0</ele><time>2026-04-24T17:15:51.016Z</time></trkpt><trkpt lat="42.1684532209902" lon="0.004790050491186783"><ele>592.0</ele><time>2026-04-24T17:15:52.016Z</time></trkpt><trkpt lat="42.16858275260259" lon="0.0045996772686493605"><ele>592.0</ele><time>2026-04-24T17:15:53.016Z</time></trkpt><trkpt lat="42.168698036603544" lon="0.00442472228328082"><ele>592.0</ele><time>2026-04-24T17:15:54.015Z</time></trkpt><trkpt lat="42.16881905525855" lon="0.004229672462772383"><ele>592.0</ele><time>2026-04-24T17:15:55.016Z</time></trkpt><trkpt lat="42.168923040626005" lon="0.004051172699092577"><ele>593.3333333333334</ele><time>2026-04-24T17:15:56.016Z</time></trkpt><trkpt lat="42.16902537976863" lon="0.003846554861425482"><ele>594.6666666666666</ele><time>2026-04-24T17:15:57.015Z</time></trkpt><trkpt lat="42.169098168482115" lon="0.003636490794062399"><ele>596.0</ele><time>2026-04-24T17:15:58.016Z</time></trkpt><trkpt lat="42.169165359774134" lon="0.0033968488819898475"><ele>598.3333333333333</ele><time>2026-04-24T17:15:59.016Z</time></trkpt><trkpt lat="42.16923607678873" lon="0.003156023158956085"><ele>600.6666666666666</ele><time>2026-04-24T17:16:00.016Z</time></trkpt><trkpt lat="42.169320290334255" lon="0.0029172238851486168"><ele>603.0</ele><time>2026-04-24T17:16:01.015Z</time></trkpt><trkpt lat="42.169402078237674" lon="0.002692910035745033"><ele>602.3333333333334</ele><time>2026-04-24T17:16:02.015Z</time></trkpt><trkpt lat="42.169485159421306" lon="0.002454264315878293"><ele>601.6666666666667</ele><time>2026-04-24T17:16:03.015Z</time></trkpt><trkpt lat="42.16956717407629" lon="0.00221292357640622"><ele>601.0</ele><time>2026-04-24T17:16:04.015Z</time></trkpt><trkpt lat="42.16964222681065" lon="0.001975741775900054"><ele>601.0</ele><time>2026-04-24T17:16:05.015Z</time></trkpt><trkpt lat="42.16971827187471" lon="0.001735570688466287"><ele>601.0</ele><time>2026-04-24T17:16:06.015Z</time></trkpt><trkpt lat="42.16980105535035" lon="0.0015060169719613892"><ele>601.0</ele><time>2026-04-24T17:16:07.015Z</time></trkpt><trkpt lat="42.16988185854161" lon="0.0012693748845043224"><ele>603.0</ele><time>2026-04-24T17:16:08.015Z</time></trkpt><trkpt lat="42.16995942171905" lon="0.0010385931634229008"><ele>605.0</ele><time>2026-04-24T17:16:09.015Z</time></trkpt><trkpt lat="42.17003341772472" lon="8.091991411229553E-4"><ele>607.0</ele><time>2026-04-24T17:16:10.015Z</time></trkpt><trkpt lat="42.170109859514" lon="5.626209569132713E-4"><ele>607.0</ele><time>2026-04-24T17:16:11.015Z</time></trkpt><trkpt lat="42.170188596066666" lon="3.167128370402531E-4"><ele>607.0</ele><time>2026-04-24T17:16:12.015Z</time></trkpt><trkpt lat="42.17026496591873" lon="6.962891504672531E-5"><ele>607.0</ele><time>2026-04-24T17:16:13.015Z</time></trkpt><trkpt lat="42.170339364548326" lon="-1.7121398583783305E-4"><ele>607.0</ele><time>2026-04-24T17:16:14.015Z</time></trkpt><trkpt lat="42.17042180407165" lon="-4.172447171260807E-4"><ele>607.0</ele><time>2026-04-24T17:16:15.015Z</time></trkpt><trkpt lat="42.17050375779025" lon="-6.584788585642633E-4"><ele>607.0</ele><time>2026-04-24T17:16:16.015Z</time></trkpt><trkpt lat="42.170584756808815" lon="-9.061867618474705E-4"><ele>607.3333333333334</ele><time>2026-04-24T17:16:17.015Z</time></trkpt><trkpt lat="42.17066060084648" lon="-0.0011534052311138311"><ele>607.6666666666666</ele><time>2026-04-24T17:16:18.015Z</time></trkpt><trkpt lat="42.17073151125226" lon="-0.0013900953742436817"><ele>608.0</ele><time>2026-04-24T17:16:19.015Z</time></trkpt><trkpt lat="42.17081093360468" lon="-0.001623770023609834"><ele>607.6666666666666</ele><time>2026-04-24T17:16:20.015Z</time></trkpt><trkpt lat="42.17088920229826" lon="-0.0018552505436366603"><ele>607.3333333333334</ele><time>2026-04-24T17:16:21.015Z</time></trkpt><trkpt lat="42.17096475926267" lon="-0.0020913846020144435"><ele>607.0</ele><time>2026-04-24T17:16:22.015Z</time></trkpt><trkpt lat="42.17104070458512" lon="-0.0023293739550162133"><ele>607.0</ele><time>2026-04-24T17:16:23.015Z</time></trkpt><trkpt lat="42.1711090990724" lon="-0.0025542671306155087"><ele>607.0</ele><time>2026-04-24T17:16:24.015Z</time></trkpt><trkpt lat="42.171182316815184" lon="-0.002790653814151342"><ele>607.0</ele><time>2026-04-24T17:16:25.015Z</time></trkpt><trkpt lat="42.17125424475904" lon="-0.0030158340629294184"><ele>607.0</ele><time>2026-04-24T17:16:26.015Z</time></trkpt><trkpt lat="42.17132630063072" lon="-0.0032344854554767076"><ele>607.0</ele><time>2026-04-24T17:16:27.015Z</time></trkpt><trkpt lat="42.17139641768333" lon="-0.003452569685407395"><ele>607.0</ele><time>2026-04-24T17:16:28.015Z</time></trkpt><trkpt lat="42.17145836042475" lon="-0.0036550993939258817"><ele>607.6666666666667</ele><time>2026-04-24T17:16:29.015Z</time></trkpt><trkpt lat="42.171522689294356" lon="-0.0038623395772984545"><ele>608.3333333333334</ele><time>2026-04-24T17:16:30.015Z</time></trkpt><trkpt lat="42.17158723309868" lon="-0.004065169925899627"><ele>609.0</ele><time>2026-04-24T17:16:31.015Z</time></trkpt><trkpt lat="42.171655012500885" lon="-0.004284537575116946"><ele>612.0</ele><time>2026-04-24T17:16:32.015Z</time></trkpt><trkpt lat="42.17172793224316" lon="-0.0044998427714843"><ele>615.0</ele><time>2026-04-24T17:16:33.015Z</time></trkpt><trkpt lat="42.17179137700302" lon="-0.00471244937291897"><ele>618.0</ele><time>2026-04-24T17:16:34.015Z</time></trkpt><trkpt lat="42.17186492637386" lon="-0.004911917863233437"><ele>617.0</ele><time>2026-04-24T17:16:35.015Z</time></trkpt><trkpt lat="42.171922549637664" lon="-0.005111996020517164"><ele>616.0</ele><time>2026-04-24T17:16:36.015Z</time></trkpt><trkpt lat="42.17197925594521" lon="-0.005299375276086049"><ele>615.0</ele><time>2026-04-24T17:16:37.015Z</time></trkpt><trkpt lat="42.17203356773049" lon="-0.005475910519556879"><ele>615.0</ele><time>2026-04-24T17:16:38.015Z</time></trkpt><trkpt lat="42.17209219025805" lon="-0.005649696377194321"><ele>615.0</ele><time>2026-04-24T17:16:39.015Z</time></trkpt><trkpt lat="42.17216483255495" lon="-0.0058206373241524315"><ele>615.0</ele><time>2026-04-24T17:16:40.015Z</time></trkpt><trkpt lat="42.17226685762111" lon="-0.005993791770306842"><ele>615.75</ele><time>2026-04-24T17:16:41.015Z</time></trkpt><trkpt lat="42.17237816915855" lon="-0.006136276172808815"><ele>616.5</ele><time>2026-04-24T17:16:42.015Z</time></trkpt><trkpt lat="42.17250397769256" lon="-0.0062456954113728575"><ele>617.25</ele><time>2026-04-24T17:16:43.015Z</time></trkpt><trkpt lat="42.172617356802064" lon="-0.006328993855126451"><ele>618.0</ele><time>2026-04-24T17:16:44.015Z</time></trkpt><trkpt lat="42.172739172121155" lon="-0.006363133643015244"><ele>618.0</ele><time>2026-04-24T17:16:45.015Z</time></trkpt><trkpt lat="42.17286075954631" lon="-0.006368640480160973"><ele>618.0</ele><time>2026-04-24T17:16:46.015Z</time></trkpt><trkpt lat="42.17298557082102" lon="-0.00639188207629082"><ele>618.0</ele><time>2026-04-24T17:16:47.015Z</time></trkpt><trkpt lat="42.173080537777295" lon="-0.00641026715740965"><ele>618.0</ele><time>2026-04-24T17:16:48.015Z</time></trkpt><trkpt lat="42.17315745767377" lon="-0.006472963080362916"><ele>618.0</ele><time>2026-04-24T17:16:49.015Z</time></trkpt><trkpt lat="42.17320783500009" lon="-0.006593668999278825"><ele>617.0</ele><time>2026-04-24T17:16:50.015Z</time></trkpt><trkpt lat="42.17324592688394" lon="-0.0067378490030642986"><ele>616.0</ele><time>2026-04-24T17:16:51.015Z</time></trkpt><trkpt lat="42.17326266690388" lon="-0.006871443879568742"><ele>615.0</ele><time>2026-04-24T17:16:52.015Z</time></trkpt><trkpt lat="42.17324862016141" lon="-0.007023334618086321"><ele>614.0</ele><time>2026-04-24T17:16:53.016Z</time></trkpt><trkpt lat="42.173190674548835" lon="-0.0071860976227528465"><ele>613.75</ele><time>2026-04-24T17:16:54.016Z</time></trkpt><trkpt lat="42.17310278601864" lon="-0.0073252885175837095"><ele>613.5</ele><time>2026-04-24T17:16:55.016Z</time></trkpt><trkpt lat="42.173015273590146" lon="-0.00747329604653572"><ele>613.25</ele><time>2026-04-24T17:16:56.016Z</time></trkpt><trkpt lat="42.172925427929144" lon="-0.007615004821736911"><ele>613.0</ele><time>2026-04-24T17:16:57.016Z</time></trkpt><trkpt lat="42.172833051993024" lon="-0.007752148686146098"><ele>613.0</ele><time>2026-04-24T17:16:58.016Z</time></trkpt><trkpt lat="42.17273580373576" lon="-0.007886088087186334"><ele>613.0</ele><time>2026-04-24T17:16:59.016Z</time></trkpt><trkpt lat="42.1726192340897" lon="-0.008012951314837717"><ele>613.0</ele><time>2026-04-24T17:17:00.016Z</time></trkpt><trkpt lat="42.172490235789006" lon="-0.00814684421728707"><ele>613.0</ele><time>2026-04-24T17:17:01.016Z</time></trkpt><trkpt lat="42.1723615513443" lon="-0.008282463272455461"><ele>613.0</ele><time>2026-04-24T17:17:02.016Z</time></trkpt><trkpt lat="42.172237362379725" lon="-0.008410867484921009"><ele>613.0</ele><time>2026-04-24T17:17:03.016Z</time></trkpt><trkpt lat="42.172112758729405" lon="-0.00851766805782375"><ele>612.0</ele><time>2026-04-24T17:17:04.016Z</time></trkpt><trkpt lat="42.1719772453952" lon="-0.00858998404911945"><ele>611.0</ele><time>2026-04-24T17:17:05.016Z</time></trkpt><trkpt lat="42.171818704790645" lon="-0.008627793942107937"><ele>610.0</ele><time>2026-04-24T17:17:06.016Z</time></trkpt><trkpt lat="42.1716425091373" lon="-0.008645539821261677"><ele>608.3333333333334</ele><time>2026-04-24T17:17:07.016Z</time></trkpt><trkpt lat="42.171453282032196" lon="-0.008670967474864906"><ele>606.6666666666666</ele><time>2026-04-24T17:17:08.016Z</time></trkpt><trkpt lat="42.17125865728411" lon="-0.008710163962656996"><ele>605.0</ele><time>2026-04-24T17:17:09.016Z</time></trkpt><trkpt lat="42.1710549752984" lon="-0.008756242513152898"><ele>605.0</ele><time>2026-04-24T17:17:10.016Z</time></trkpt><trkpt lat="42.1708494482133" lon="-0.008799853008870807"><ele>605.0</ele><time>2026-04-24T17:17:11.016Z</time></trkpt><trkpt lat="42.170637850196776" lon="-0.008843375750065196"><ele>605.0</ele><time>2026-04-24T17:17:12.016Z</time></trkpt><trkpt lat="42.170429088477064" lon="-0.008891311922465162"><ele>604.3333333333333</ele><time>2026-04-24T17:17:13.016Z</time></trkpt><trkpt lat="42.17022695020798" lon="-0.008930154796622618"><ele>603.6666666666666</ele><time>2026-04-24T17:17:14.016Z</time></trkpt><trkpt lat="42.17002894725136" lon="-0.008989191762814186"><ele>603.0</ele><time>2026-04-24T17:17:15.016Z</time></trkpt><trkpt lat="42.1698337524751" lon="-0.00903015402772475"><ele>602.0</ele><time>2026-04-24T17:17:16.016Z</time></trkpt><trkpt lat="42.169625741316075" lon="-0.009073805895809275"><ele>601.0</ele><time>2026-04-24T17:17:17.016Z</time></trkpt><trkpt lat="42.16943986986804" lon="-0.009114695089341786"><ele>600.0</ele><time>2026-04-24T17:17:18.016Z</time></trkpt><trkpt lat="42.16925755559593" lon="-0.009136807389185079"><ele>599.3333333333334</ele><time>2026-04-24T17:17:19.016Z</time></trkpt><trkpt lat="42.16909021083592" lon="-0.009164856246704696"><ele>598.6666666666667</ele><time>2026-04-24T17:17:20.016Z</time></trkpt><trkpt lat="42.16890628683788" lon="-0.009171406604569757"><ele>598.0</ele><time>2026-04-24T17:17:21.016Z</time></trkpt><trkpt lat="42.168729025415004" lon="-0.009133469930449147"><ele>597.0</ele><time>2026-04-24T17:17:22.016Z</time></trkpt><trkpt lat="42.168543981113" lon="-0.009067225694312802"><ele>596.0</ele><time>2026-04-24T17:17:23.016Z</time></trkpt><trkpt lat="42.16833891949239" lon="-0.00902806441798343"><ele>595.0</ele><time>2026-04-24T17:17:24.016Z</time></trkpt><trkpt lat="42.16814602353172" lon="-0.00897056471066283"><ele>594.0</ele><time>2026-04-24T17:17:25.016Z</time></trkpt><trkpt lat="42.167974640316004" lon="-0.008920793314009804"><ele>593.0</ele><time>2026-04-24T17:17:26.016Z</time></trkpt><trkpt lat="42.16780899936111" lon="-0.008877084020237895"><ele>592.0</ele><time>2026-04-24T17:17:27.016Z</time></trkpt><trkpt lat="42.1676470188725" lon="-0.008852383268636506"><ele>592.0</ele><time>2026-04-24T17:17:28.016Z</time></trkpt><trkpt lat="42.16747385984448" lon="-0.008860432526315682"><ele>592.0</ele><time>2026-04-24T17:17:29.016Z</time></trkpt><trkpt lat="42.167294324112994" lon="-0.008877276004413886"><ele>592.0</ele><time>2026-04-24T17:17:30.016Z</time></trkpt><trkpt lat="42.16711136434513" lon="-0.00889474300450578"><ele>590.5</ele><time>2026-04-24T17:17:31.016Z</time></trkpt><trkpt lat="42.16694606348111" lon="-0.00890964998620271"><ele>589.0</ele><time>2026-04-24T17:17:32.016Z</time></trkpt><trkpt lat="42.16681016917222" lon="-0.00893537412731753"><ele>587.5</ele><time>2026-04-24T17:17:33.016Z</time></trkpt><trkpt lat="42.16670637812072" lon="-0.009001263197030387"><ele>586.0</ele><time>2026-04-24T17:17:34.016Z</time></trkpt><trkpt lat="42.16661649606956" lon="-0.00909934174601692"><ele>585.2</ele><time>2026-04-24T17:17:35.016Z</time></trkpt><trkpt lat="42.16654581400362" lon="-0.00922230819573068"><ele>584.4000000000001</ele><time>2026-04-24T17:17:36.016Z</time></trkpt><trkpt lat="42.166513305823905" lon="-0.009360032684545064"><ele>583.6</ele><time>2026-04-24T17:17:37.016Z</time></trkpt><trkpt lat="42.166542479077854" lon="-0.009490763552998275"><ele>582.8000000000001</ele><time>2026-04-24T17:17:38.016Z</time></trkpt><trkpt lat="42.16660613396378" lon="-0.009626133700252374"><ele>582.0</ele><time>2026-04-24T17:17:39.016Z</time></trkpt><trkpt lat="42.16666912034895" lon="-0.00977077445807298"><ele>582.0</ele><time>2026-04-24T17:17:40.016Z</time></trkpt><trkpt lat="42.16677112946569" lon="-0.00989036649198135"><ele>582.0</ele><time>2026-04-24T17:17:41.016Z</time></trkpt><trkpt lat="42.166890779897386" lon="-0.010014041338361783"><ele>582.0</ele><time>2026-04-24T17:17:42.016Z</time></trkpt><trkpt lat="42.16698592318832" lon="-0.010101955777279436"><ele>582.0</ele><time>2026-04-24T17:17:43.016Z</time></trkpt><trkpt lat="42.16705472882072" lon="-0.01018755394593855"><ele>581.0</ele><time>2026-04-24T17:17:44.016Z</time></trkpt><trkpt lat="42.167093967001755" lon="-0.01029524040959707"><ele>580.0</ele><time>2026-04-24T17:17:45.016Z</time></trkpt><trkpt lat="42.16708457886731" lon="-0.010429065923368126"><ele>579.0</ele><time>2026-04-24T17:17:46.016Z</time></trkpt><trkpt lat="42.167042804936756" lon="-0.010556917687619929"><ele>578.0</ele><time>2026-04-24T17:17:47.016Z</time></trkpt><trkpt lat="42.16696809405129" lon="-0.010645914952986921"><ele>577.0</ele><time>2026-04-24T17:17:48.016Z</time></trkpt><trkpt lat="42.16685863350212" lon="-0.010718394850045703"><ele>577.0</ele><time>2026-04-24T17:17:49.016Z</time></trkpt><trkpt lat="42.166730334948994" lon="-0.01078297323271879"><ele>577.0</ele><time>2026-04-24T17:17:50.016Z</time></trkpt><trkpt lat="42.16659218125224" lon="-0.010830991207661157"><ele>577.0</ele><time>2026-04-24T17:17:51.016Z</time></trkpt><trkpt lat="42.16644770706782" lon="-0.010875777058516788"><ele>577.0</ele><time>2026-04-24T17:17:52.016Z</time></trkpt><trkpt lat="42.16629999086587" lon="-0.010969669411005075"><ele>576.6666666666667</ele><time>2026-04-24T17:17:53.016Z</time></trkpt><trkpt lat="42.16614461391148" lon="-0.0110281940821872"><ele>576.3333333333334</ele><time>2026-04-24T17:17:54.016Z</time></trkpt><trkpt lat="42.165981679624" lon="-0.011095314086464992"><ele>576.0</ele><time>2026-04-24T17:17:55.016Z</time></trkpt><trkpt lat="42.16580767840361" lon="-0.011169193499799198"><ele>573.3333333333334</ele><time>2026-04-24T17:17:56.016Z</time></trkpt><trkpt lat="42.16562758497138" lon="-0.01123991427823109"><ele>570.6666666666667</ele><time>2026-04-24T17:17:57.016Z</time></trkpt><trkpt lat="42.16545051984918" lon="-0.011310600268062876"><ele>568.0</ele><time>2026-04-24T17:17:58.016Z</time></trkpt><trkpt lat="42.16526811406345" lon="-0.011385692366716"><ele>568.0</ele><time>2026-04-24T17:17:59.016Z</time></trkpt><trkpt lat="42.165094013995635" lon="-0.011461451240913958"><ele>568.0</ele><time>2026-04-24T17:18:00.016Z</time></trkpt><trkpt lat="42.16493149704582" lon="-0.011534271160227238"><ele>568.0</ele><time>2026-04-24T17:18:01.016Z</time></trkpt><trkpt lat="42.16479221050431" lon="-0.011589984354318314"><ele>567.1999999999999</ele><time>2026-04-24T17:18:02.016Z</time></trkpt><trkpt lat="42.16467230372232" lon="-0.011627123043802493"><ele>566.4</ele><time>2026-04-24T17:18:03.016Z</time></trkpt><trkpt lat="42.1645663937099" lon="-0.011644256697224527"><ele>565.5999999999999</ele><time>2026-04-24T17:18:04.016Z</time></trkpt><trkpt lat="42.16446573157857" lon="-0.01161594590496874"><ele>564.8</ele><time>2026-04-24T17:18:05.016Z</time></trkpt><trkpt lat="42.16437679232142" lon="-0.011546506796054413"><ele>564.0</ele><time>2026-04-24T17:18:06.016Z</time></trkpt><trkpt lat="42.16430217861714" lon="-0.01143313601217615"><ele>564.0</ele><time>2026-04-24T17:18:07.016Z</time></trkpt><trkpt lat="42.16421792981935" lon="-0.01132232595139298"><ele>564.0</ele><time>2026-04-24T17:18:08.016Z</time></trkpt><trkpt lat="42.1641345293685" lon="-0.011175063739128679"><ele>564.0</ele><time>2026-04-24T17:18:09.016Z</time></trkpt><trkpt lat="42.16404705983692" lon="-0.011018973642688865"><ele>564.0</ele><time>2026-04-24T17:18:10.016Z</time></trkpt><trkpt lat="42.16395166368588" lon="-0.01085628211654867"><ele>561.75</ele><time>2026-04-24T17:18:11.016Z</time></trkpt><trkpt lat="42.163870208813165" lon="-0.010705196397152495"><ele>559.5</ele><time>2026-04-24T17:18:12.016Z</time></trkpt><trkpt lat="42.16379381728244" lon="-0.010602413815210108"><ele>557.25</ele><time>2026-04-24T17:18:13.016Z</time></trkpt><trkpt lat="42.16369999553658" lon="-0.010531397885224612"><ele>555.0</ele><time>2026-04-24T17:18:14.016Z</time></trkpt><trkpt lat="42.16358397585362" lon="-0.010551822772470283"><ele>555.0</ele><time>2026-04-24T17:18:15.016Z</time></trkpt><trkpt lat="42.163455955869296" lon="-0.01056106093216235"><ele>555.0</ele><time>2026-04-24T17:18:16.016Z</time></trkpt><trkpt lat="42.163304062362045" lon="-0.01056593496197373"><ele>555.0</ele><time>2026-04-24T17:18:17.016Z</time></trkpt><trkpt lat="42.163149910537804" lon="-0.010578176726694304"><ele>555.0</ele><time>2026-04-24T17:18:18.016Z</time></trkpt><trkpt lat="42.162996207446874" lon="-0.010575562566201915"><ele>556.3333333333334</ele><time>2026-04-24T17:18:19.016Z</time></trkpt><trkpt lat="42.162852095582345" lon="-0.010515847838529529"><ele>557.6666666666667</ele><time>2026-04-24T17:18:20.016Z</time></trkpt><trkpt lat="42.16270926884818" lon="-0.010414898264265534"><ele>559.0</ele><time>2026-04-24T17:18:21.016Z</time></trkpt><trkpt lat="42.16258437689902" lon="-0.010290843532783601"><ele>559.0</ele><time>2026-04-24T17:18:22.016Z</time></trkpt><trkpt lat="42.162476272302044" lon="-0.01018101216551515"><ele>559.0</ele><time>2026-04-24T17:18:23.016Z</time></trkpt><trkpt lat="42.16236246747628" lon="-0.010108798064934806"><ele>559.0</ele><time>2026-04-24T17:18:24.016Z</time></trkpt><trkpt lat="42.16225729360044" lon="-0.010036011020427867"><ele>559.0</ele><time>2026-04-24T17:18:25.016Z</time></trkpt><trkpt lat="42.16215914032283" lon="-0.009997093464527169"><ele>559.75</ele><time>2026-04-24T17:18:26.016Z</time></trkpt><trkpt lat="42.16205306305947" lon="-0.010001385784954643"><ele>560.5</ele><time>2026-04-24T17:18:27.016Z</time></trkpt><trkpt lat="42.16194480836095" lon="-0.010066989696177527"><ele>561.25</ele><time>2026-04-24T17:18:28.016Z</time></trkpt><trkpt lat="42.161846583775656" lon="-0.010174562033653248"><ele>562.0</ele><time>2026-04-24T17:18:29.016Z</time></trkpt><trkpt lat="42.161727069360325" lon="-0.010297348343602426"><ele>562.0</ele><time>2026-04-24T17:18:30.016Z</time></trkpt><trkpt lat="42.16161539420362" lon="-0.010384649880233677"><ele>562.0</ele><time>2026-04-24T17:18:31.016Z</time></trkpt><trkpt lat="42.161496433078575" lon="-0.010461651010917455"><ele>562.0</ele><time>2026-04-24T17:18:32.016Z</time></trkpt><trkpt lat="42.16136348804934" lon="-0.010499222116080707"><ele>562.0</ele><time>2026-04-24T17:18:33.016Z</time></trkpt><trkpt lat="42.1612328874166" lon="-0.010503147043501597"><ele>562.0</ele><time>2026-04-24T17:18:34.016Z</time></trkpt><trkpt lat="42.16110121231223" lon="-0.010496314243825251"><ele>562.0</ele><time>2026-04-24T17:18:35.016Z</time></trkpt><trkpt lat="42.16096938112602" lon="-0.010520332394240323"><ele>562.0</ele><time>2026-04-24T17:18:36.016Z</time></trkpt><trkpt lat="42.16083808865779" lon="-0.010527411282906986"><ele>562.0</ele><time>2026-04-24T17:18:37.016Z</time></trkpt><trkpt lat="42.16070218828774" lon="-0.010536113285361332"><ele>562.75</ele><time>2026-04-24T17:18:38.016Z</time></trkpt><trkpt lat="42.160566273134606" lon="-0.010540816043358136"><ele>563.5</ele><time>2026-04-24T17:18:39.016Z</time></trkpt><trkpt lat="42.16043512373172" lon="-0.010548589214007332"><ele>564.25</ele><time>2026-04-24T17:18:40.016Z</time></trkpt><trkpt lat="42.16029589917983" lon="-0.010577491022142322"><ele>565.0</ele><time>2026-04-24T17:18:41.016Z</time></trkpt><trkpt lat="42.1601631358316" lon="-0.010621440286767597"><ele>565.0</ele><time>2026-04-24T17:18:42.016Z</time></trkpt><trkpt lat="42.16002780984266" lon="-0.010684591155077307"><ele>565.0</ele><time>2026-04-24T17:18:43.016Z</time></trkpt><trkpt lat="42.15989466180158" lon="-0.010755610624326223"><ele>565.0</ele><time>2026-04-24T17:18:44.016Z</time></trkpt><trkpt lat="42.159765035333656" lon="-0.010815545783556715"><ele>565.0</ele><time>2026-04-24T17:18:45.016Z</time></trkpt><trkpt lat="42.15963274340217" lon="-0.010877055426477093"><ele>567.0</ele><time>2026-04-24T17:18:46.016Z</time></trkpt><trkpt lat="42.15949906583922" lon="-0.01093204620191253"><ele>569.0</ele><time>2026-04-24T17:18:47.016Z</time></trkpt><trkpt lat="42.159374021794584" lon="-0.010983321396791047"><ele>571.0</ele><time>2026-04-24T17:18:48.016Z</time></trkpt><trkpt lat="42.159261014827614" lon="-0.01102798377042657"><ele>573.0</ele><time>2026-04-24T17:18:49.016Z</time></trkpt><trkpt lat="42.15915718635285" lon="-0.011079799770506774"><ele>573.0</ele><time>2026-04-24T17:18:50.016Z</time></trkpt><trkpt lat="42.159053645227246" lon="-0.011129667369015944"><ele>573.0</ele><time>2026-04-24T17:18:51.016Z</time></trkpt><trkpt lat="42.15893945308611" lon="-0.011177136456324342"><ele>573.0</ele><time>2026-04-24T17:18:52.016Z</time></trkpt><trkpt lat="42.158811096813565" lon="-0.011234394488273028"><ele>573.0</ele><time>2026-04-24T17:18:53.016Z</time></trkpt><trkpt lat="42.15867493544212" lon="-0.011294256826391952"><ele>571.75</ele><time>2026-04-24T17:18:54.016Z</time></trkpt><trkpt lat="42.158528462807254" lon="-0.011353133834650812"><ele>570.5</ele><time>2026-04-24T17:18:55.016Z</time></trkpt><trkpt lat="42.158385928649544" lon="-0.01141350822072551"><ele>569.25</ele><time>2026-04-24T17:18:56.016Z</time></trkpt><trkpt lat="42.158249989913905" lon="-0.011472778790890948"><ele>568.0</ele><time>2026-04-24T17:18:57.016Z</time></trkpt><trkpt lat="42.15813413747997" lon="-0.011545240470381144"><ele>568.5</ele><time>2026-04-24T17:18:58.016Z</time></trkpt><trkpt lat="42.1580134540106" lon="-0.011593917416230237"><ele>569.0</ele><time>2026-04-24T17:18:59.016Z</time></trkpt><trkpt lat="42.15788984609586" lon="-0.011659488643699473"><ele>569.5</ele><time>2026-04-24T17:19:00.016Z</time></trkpt><trkpt lat="42.15776458382196" lon="-0.011740407452984776"><ele>570.0</ele><time>2026-04-24T17:19:01.016Z</time></trkpt><trkpt lat="42.15764615279295" lon="-0.011832553776013043"><ele>570.0</ele><time>2026-04-24T17:19:02.016Z</time></trkpt><trkpt lat="42.157521729843964" lon="-0.011927299837594212"><ele>570.0</ele><time>2026-04-24T17:19:03.016Z</time></trkpt><trkpt lat="42.157399666158646" lon="-0.012022099337091943"><ele>570.0</ele><time>2026-04-24T17:19:04.016Z</time></trkpt><trkpt lat="42.15727940734407" lon="-0.012114260621054316"><ele>570.0</ele><time>2026-04-24T17:19:05.016Z</time></trkpt><trkpt lat="42.157141872211696" lon="-0.012194010774030452"><ele>570.0</ele><time>2026-04-24T17:19:06.016Z</time></trkpt><trkpt lat="42.15701301578434" lon="-0.012265131396756149"><ele>570.0</ele><time>2026-04-24T17:19:07.016Z</time></trkpt><trkpt lat="42.1568833325733" lon="-0.012293313752617952"><ele>570.0</ele><time>2026-04-24T17:19:08.016Z</time></trkpt><trkpt lat="42.156752026779344" lon="-0.012292820666060989"><ele>570.0</ele><time>2026-04-24T17:19:09.016Z</time></trkpt><trkpt lat="42.156620648944966" lon="-0.012281932330661065"><ele>571.5</ele><time>2026-04-24T17:19:10.016Z</time></trkpt><trkpt lat="42.15649683594152" lon="-0.012263302839471472"><ele>573.0</ele><time>2026-04-24T17:19:11.016Z</time></trkpt><trkpt lat="42.15636760585883" lon="-0.012268731371953097"><ele>574.5</ele><time>2026-04-24T17:19:12.016Z</time></trkpt><trkpt lat="42.156238607789845" lon="-0.012260974436516432"><ele>576.0</ele><time>2026-04-24T17:19:13.017Z</time></trkpt><trkpt lat="42.156110918677406" lon="-0.012255710744721074"><ele>576.0</ele><time>2026-04-24T17:19:14.017Z</time></trkpt><trkpt lat="42.155982996143955" lon="-0.012254964244296753"><ele>576.0</ele><time>2026-04-24T17:19:15.017Z</time></trkpt><trkpt lat="42.15585372673947" lon="-0.012255824796881837"><ele>576.0</ele><time>2026-04-24T17:19:16.017Z</time></trkpt><trkpt lat="42.155726262625535" lon="-0.012262293620728717"><ele>576.0</ele><time>2026-04-24T17:19:17.017Z</time></trkpt><trkpt lat="42.15559611426026" lon="-0.012270653759312015"><ele>576.75</ele><time>2026-04-24T17:19:18.017Z</time></trkpt><trkpt lat="42.155469805497084" lon="-0.012293882230263804"><ele>577.5</ele><time>2026-04-24T17:19:19.017Z</time></trkpt><trkpt lat="42.15534195475322" lon="-0.01233393664932971"><ele>578.25</ele><time>2026-04-24T17:19:20.017Z</time></trkpt><trkpt lat="42.15521753505992" lon="-0.012382231131048487"><ele>579.0</ele><time>2026-04-24T17:19:21.017Z</time></trkpt><trkpt lat="42.15510225372908" lon="-0.012423827225875293"><ele>579.0</ele><time>2026-04-24T17:19:22.017Z</time></trkpt><trkpt lat="42.15499549254825" lon="-0.012464866013350598"><ele>579.0</ele><time>2026-04-24T17:19:23.017Z</time></trkpt><trkpt lat="42.154892151121466" lon="-0.012490648643918066"><ele>579.0</ele><time>2026-04-24T17:19:24.017Z</time></trkpt><trkpt lat="42.15478894941062" lon="-0.012503177977231399"><ele>579.0</ele><time>2026-04-24T17:19:25.017Z</time></trkpt><trkpt lat="42.15469211833467" lon="-0.012503290450667604"><ele>579.0</ele><time>2026-04-24T17:19:26.017Z</time></trkpt><trkpt lat="42.15460892593726" lon="-0.012454810324928584"><ele>581.2</ele><time>2026-04-24T17:19:27.017Z</time></trkpt><trkpt lat="42.15453079201265" lon="-0.012363943026674968"><ele>583.4</ele><time>2026-04-24T17:19:28.017Z</time></trkpt><trkpt lat="42.15445419226562" lon="-0.012239383888819788"><ele>585.6</ele><time>2026-04-24T17:19:29.017Z</time></trkpt><trkpt lat="42.15439900222576" lon="-0.012123114870627913"><ele>587.8</ele><time>2026-04-24T17:19:30.017Z</time></trkpt><trkpt lat="42.15434416872301" lon="-0.012012501349741809"><ele>590.0</ele><time>2026-04-24T17:19:31.017Z</time></trkpt><trkpt lat="42.15427253280047" lon="-0.011925304528082104"><ele>590.0</ele><time>2026-04-24T17:19:32.017Z</time></trkpt><trkpt lat="42.15420971005428" lon="-0.01183069478117845"><ele>590.0</ele><time>2026-04-24T17:19:33.017Z</time></trkpt><trkpt lat="42.154110339774746" lon="-0.011782419349009166"><ele>590.0</ele><time>2026-04-24T17:19:34.017Z</time></trkpt><trkpt lat="42.154008195125755" lon="-0.011735932832568107"><ele>590.0</ele><time>2026-04-24T17:19:35.017Z</time></trkpt><trkpt lat="42.15390133881627" lon="-0.011693794439447607"><ele>590.0</ele><time>2026-04-24T17:19:36.017Z</time></trkpt><trkpt lat="42.15378993116715" lon="-0.011652528197247785"><ele>590.75</ele><time>2026-04-24T17:19:37.017Z</time></trkpt><trkpt lat="42.15366898124663" lon="-0.011609340732372095"><ele>591.5</ele><time>2026-04-24T17:19:38.017Z</time></trkpt><trkpt lat="42.153544957009366" lon="-0.011554069425350021"><ele>592.25</ele><time>2026-04-24T17:19:39.017Z</time></trkpt><trkpt lat="42.15341867027236" lon="-0.011495586813789925"><ele>593.0</ele><time>2026-04-24T17:19:40.017Z</time></trkpt><trkpt lat="42.15329729355618" lon="-0.011446751882355843"><ele>592.5</ele><time>2026-04-24T17:19:41.017Z</time></trkpt><trkpt lat="42.15317203070885" lon="-0.011401017045978231"><ele>592.0</ele><time>2026-04-24T17:19:42.017Z</time></trkpt><trkpt lat="42.15303446060963" lon="-0.011372637983948598"><ele>591.5</ele><time>2026-04-24T17:19:43.017Z</time></trkpt><trkpt lat="42.15289358943591" lon="-0.01135199144643989"><ele>591.0</ele><time>2026-04-24T17:19:44.017Z</time></trkpt><trkpt lat="42.15274332561293" lon="-0.011344432069393512"><ele>591.0</ele><time>2026-04-24T17:19:45.017Z</time></trkpt><trkpt lat="42.15260199618228" lon="-0.011329648891056672"><ele>591.0</ele><time>2026-04-24T17:19:46.017Z</time></trkpt><trkpt lat="42.15245879984563" lon="-0.01130519708454047"><ele>591.0</ele><time>2026-04-24T17:19:47.017Z</time></trkpt><trkpt lat="42.152329903895954" lon="-0.011287418898561528"><ele>591.0</ele><time>2026-04-24T17:19:48.017Z</time></trkpt><trkpt lat="42.15221309331637" lon="-0.011274057584742161"><ele>592.0</ele><time>2026-04-24T17:19:49.017Z</time></trkpt><trkpt lat="42.15209456906032" lon="-0.011254166390767342"><ele>593.0</ele><time>2026-04-24T17:19:50.017Z</time></trkpt><trkpt lat="42.15197120617398" lon="-0.0112238372312415"><ele>594.0</ele><time>2026-04-24T17:19:51.017Z</time></trkpt><trkpt lat="42.15186167782841" lon="-0.011177251400578313"><ele>595.0</ele><time>2026-04-24T17:19:52.017Z</time></trkpt><trkpt lat="42.151750951929394" lon="-0.011103281454717966"><ele>595.0</ele><time>2026-04-24T17:19:53.017Z</time></trkpt><trkpt lat="42.15164311016152" lon="-0.011019031346926661"><ele>595.0</ele><time>2026-04-24T17:19:54.017Z</time></trkpt><trkpt lat="42.15152720699915" lon="-0.01095511544723771"><ele>595.0</ele><time>2026-04-24T17:19:55.017Z</time></trkpt><trkpt lat="42.15141793424811" lon="-0.010864949749228752"><ele>595.0</ele><time>2026-04-24T17:19:56.017Z</time></trkpt><trkpt lat="42.15130218974062" lon="-0.010772334197928321"><ele>594.25</ele><time>2026-04-24T17:19:57.017Z</time></trkpt><trkpt lat="42.1511850393215" lon="-0.010685288836835847"><ele>593.5</ele><time>2026-04-24T17:19:58.017Z</time></trkpt><trkpt lat="42.15106696158456" lon="-0.010597695146996156"><ele>592.75</ele><time>2026-04-24T17:19:59.017Z</time></trkpt><trkpt lat="42.150943011866865" lon="-0.010509623560918644"><ele>592.0</ele><time>2026-04-24T17:20:00.017Z</time></trkpt><trkpt lat="42.150815430900195" lon="-0.01042817530264865"><ele>593.75</ele><time>2026-04-24T17:20:01.017Z</time></trkpt><trkpt lat="42.15069279027463" lon="-0.01033768144992437"><ele>595.5</ele><time>2026-04-24T17:20:02.017Z</time></trkpt><trkpt lat="42.15056440436639" lon="-0.010258584390538148"><ele>597.25</ele><time>2026-04-24T17:20:03.016Z</time></trkpt><trkpt lat="42.15043335132183" lon="-0.010171812999472512"><ele>599.0</ele><time>2026-04-24T17:20:04.016Z</time></trkpt><trkpt lat="42.15030994227481" lon="-0.010096018959855397"><ele>599.0</ele><time>2026-04-24T17:20:05.016Z</time></trkpt><trkpt lat="42.15018502575909" lon="-0.010045215513171843"><ele>599.0</ele><time>2026-04-24T17:20:06.016Z</time></trkpt><trkpt lat="42.15004909576182" lon="-0.010039681363524337"><ele>599.0</ele><time>2026-04-24T17:20:07.016Z</time></trkpt><trkpt lat="42.149917343366425" lon="-0.010011267617898644"><ele>599.0</ele><time>2026-04-24T17:20:08.016Z</time></trkpt><trkpt lat="42.14978872467641" lon="-0.01000506577673458"><ele>598.6</ele><time>2026-04-24T17:20:09.016Z</time></trkpt><trkpt lat="42.1496674828245" lon="-0.009994673160336566"><ele>598.2</ele><time>2026-04-24T17:20:10.016Z</time></trkpt><trkpt lat="42.14955395105712" lon="-0.009992109412987326"><ele>597.8000000000001</ele><time>2026-04-24T17:20:11.016Z</time></trkpt><trkpt lat="42.14944627082621" lon="-0.009981281852608985"><ele>597.4</ele><time>2026-04-24T17:20:12.016Z</time></trkpt><trkpt lat="42.149348104214866" lon="-0.00995651610014318"><ele>597.0</ele><time>2026-04-24T17:20:13.016Z</time></trkpt><trkpt lat="42.1492402533035" lon="-0.00992222672357476"><ele>597.0</ele><time>2026-04-24T17:20:14.016Z</time></trkpt><trkpt lat="42.14912996569078" lon="-0.009853845012969353"><ele>597.0</ele><time>2026-04-24T17:20:15.016Z</time></trkpt><trkpt lat="42.14902560075466" lon="-0.009778859713232148"><ele>597.0</ele><time>2026-04-24T17:20:16.017Z</time></trkpt><trkpt lat="42.14891205359623" lon="-0.00971429515367871"><ele>597.0</ele><time>2026-04-24T17:20:17.017Z</time></trkpt><trkpt lat="42.14880821965565" lon="-0.0096217262101374"><ele>598.0</ele><time>2026-04-24T17:20:18.017Z</time></trkpt><trkpt lat="42.14871573506992" lon="-0.00953294723678973"><ele>599.0</ele><time>2026-04-24T17:20:19.017Z</time></trkpt><trkpt lat="42.14864397258043" lon="-0.00943513617474911"><ele>600.0</ele><time>2026-04-24T17:20:20.017Z</time></trkpt><trkpt lat="42.148582197089176" lon="-0.009325168030757015"><ele>601.0</ele><time>2026-04-24T17:20:21.017Z</time></trkpt><trkpt lat="42.14854939117192" lon="-0.009193834096390739"><ele>602.0</ele><time>2026-04-24T17:20:22.017Z</time></trkpt><trkpt lat="42.14849676171849" lon="-0.009074951360793322"><ele>602.0</ele><time>2026-04-24T17:20:23.017Z</time></trkpt><trkpt lat="42.148471670828975" lon="-0.00891710337875217"><ele>602.0</ele><time>2026-04-24T17:20:24.017Z</time></trkpt><trkpt lat="42.148417712749215" lon="-0.008774763671028333"><ele>602.0</ele><time>2026-04-24T17:20:25.017Z</time></trkpt><trkpt lat="42.1483846925656" lon="-0.0086289183736551"><ele>602.0</ele><time>2026-04-24T17:20:26.017Z</time></trkpt><trkpt lat="42.148339835095136" lon="-0.008488457964530727"><ele>602.0</ele><time>2026-04-24T17:20:27.017Z</time></trkpt><trkpt lat="42.148276742266695" lon="-0.008379080410782091"><ele>602.0</ele><time>2026-04-24T17:20:28.017Z</time></trkpt><trkpt lat="42.14821057708991" lon="-0.008251214812799699"><ele>602.0</ele><time>2026-04-24T17:20:29.017Z</time></trkpt><trkpt lat="42.14814361726641" lon="-0.008109578389820498"><ele>602.0</ele><time>2026-04-24T17:20:30.017Z</time></trkpt><trkpt lat="42.148061800726644" lon="-0.00797090478996884"><ele>601.5</ele><time>2026-04-24T17:20:31.017Z</time></trkpt><trkpt lat="42.1479805320153" lon="-0.007832543521663326"><ele>601.0</ele><time>2026-04-24T17:20:32.017Z</time></trkpt><trkpt lat="42.147904577581436" lon="-0.007703365001659351"><ele>600.5</ele><time>2026-04-24T17:20:33.017Z</time></trkpt><trkpt lat="42.14783706085439" lon="-0.007585170522056992"><ele>600.0</ele><time>2026-04-24T17:20:34.017Z</time></trkpt><trkpt lat="42.14777227709987" lon="-0.00747599482205712"><ele>600.0</ele><time>2026-04-24T17:20:35.017Z</time></trkpt><trkpt lat="42.14768874240645" lon="-0.007382164322987204"><ele>600.0</ele><time>2026-04-24T17:20:36.017Z</time></trkpt><trkpt lat="42.1475979294861" lon="-0.007298547419536675"><ele>600.0</ele><time>2026-04-24T17:20:37.017Z</time></trkpt><trkpt lat="42.1474994918646" lon="-0.0072137716805820845"><ele>600.0</ele><time>2026-04-24T17:20:38.017Z</time></trkpt><trkpt lat="42.14740231482094" lon="-0.007130094433823312"><ele>601.2</ele><time>2026-04-24T17:20:39.017Z</time></trkpt><trkpt lat="42.14729987809994" lon="-0.007075217606972754"><ele>602.4</ele><time>2026-04-24T17:20:40.017Z</time></trkpt><trkpt lat="42.147213039506006" lon="-0.007000193715966253"><ele>603.6</ele><time>2026-04-24T17:20:41.017Z</time></trkpt><trkpt lat="42.14712598497652" lon="-0.006930090726891642"><ele>604.8</ele><time>2026-04-24T17:20:42.017Z</time></trkpt><trkpt lat="42.147041536744375" lon="-0.0068581065970870665"><ele>606.0</ele><time>2026-04-24T17:20:43.017Z</time></trkpt><trkpt lat="42.14695570909678" lon="-0.00678423394829523"><ele>606.0</ele><time>2026-04-24T17:20:44.017Z</time></trkpt><trkpt lat="42.14687336469181" lon="-0.006711083862965312"><ele>606.0</ele><time>2026-04-24T17:20:45.017Z</time></trkpt><trkpt lat="42.146784613549706" lon="-0.006637146692661902"><ele>606.0</ele><time>2026-04-24T17:20:46.017Z</time></trkpt><trkpt lat="42.14668721752177" lon="-0.006559719394469394"><ele>606.0</ele><time>2026-04-24T17:20:47.017Z</time></trkpt><trkpt lat="42.14659040536046" lon="-0.006484231215983451"><ele>606.0</ele><time>2026-04-24T17:20:48.017Z</time></trkpt><trkpt lat="42.1464948934159" lon="-0.0064116281823687156"><ele>605.6666666666666</ele><time>2026-04-24T17:20:49.017Z</time></trkpt><trkpt lat="42.14641197973289" lon="-0.006340400981952378"><ele>605.3333333333334</ele><time>2026-04-24T17:20:50.017Z</time></trkpt><trkpt lat="42.146337600586776" lon="-0.006281456292780553"><ele>605.0</ele><time>2026-04-24T17:20:51.017Z</time></trkpt><trkpt lat="42.146272364624195" lon="-0.00623620845330168"><ele>604.6666666666667</ele><time>2026-04-24T17:20:52.017Z</time></trkpt><trkpt lat="42.146206949491315" lon="-0.006215971264444303"><ele>604.3333333333334</ele><time>2026-04-24T17:20:53.017Z</time></trkpt><trkpt lat="42.146087314121424" lon="-0.006223741558714525"><ele>604.0</ele><time>2026-04-24T17:20:55.017Z</time></trkpt><trkpt lat="42.14597893874741" lon="-0.006278437291740146"><ele>604.0</ele><time>2026-04-24T17:20:57.017Z</time></trkpt><trkpt lat="42.14591630570196" lon="-0.006308191355762747"><ele>604.0</ele><time>2026-04-24T17:20:58.017Z</time></trkpt><trkpt lat="42.145847931910964" lon="-0.0063376501835294904"><ele>604.0</ele><time>2026-04-24T17:20:59.017Z</time></trkpt><trkpt lat="42.14577753410903" lon="-0.006369548410111066"><ele>604.0</ele><time>2026-04-24T17:21:00.017Z</time></trkpt><trkpt lat="42.145699096756644" lon="-0.006403746696431412"><ele>604.0</ele><time>2026-04-24T17:21:01.017Z</time></trkpt><trkpt lat="42.14562249821789" lon="-0.006445734257386711"><ele>604.0</ele><time>2026-04-24T17:21:02.017Z</time></trkpt><trkpt lat="42.14554454907576" lon="-0.006492726826422125"><ele>603.6666666666667</ele><time>2026-04-24T17:21:03.017Z</time></trkpt><trkpt lat="42.145467437378926" lon="-0.006544884195591522"><ele>603.3333333333334</ele><time>2026-04-24T17:21:04.017Z</time></trkpt><trkpt lat="42.14539259756137" lon="-0.006604339792885218"><ele>603.0</ele><time>2026-04-24T17:21:05.017Z</time></trkpt><trkpt lat="42.145323729241696" lon="-0.0066736418213754626"><ele>602.6666666666666</ele><time>2026-04-24T17:21:06.017Z</time></trkpt><trkpt lat="42.14526100844942" lon="-0.006753154654405327"><ele>602.3333333333333</ele><time>2026-04-24T17:21:07.017Z</time></trkpt><trkpt lat="42.14520376384298" lon="-0.006838973948482207"><ele>602.0</ele><time>2026-04-24T17:21:08.017Z</time></trkpt><trkpt lat="42.145156079313615" lon="-0.006917697991306714"><ele>602.0</ele><time>2026-04-24T17:21:09.017Z</time></trkpt><trkpt lat="42.145082289765014" lon="-0.007027226810879215"><ele>602.0</ele><time>2026-04-24T17:21:11.017Z</time></trkpt><trkpt lat="42.14501825509872" lon="-0.007129088099949742"><ele>602.0</ele><time>2026-04-24T17:21:13.017Z</time></trkpt><trkpt lat="42.144946944942184" lon="-0.007253192148732024"><ele>602.0</ele><time>2026-04-24T17:21:15.017Z</time></trkpt><trkpt lat="42.14490312556805" lon="-0.007321699223754532"><ele>602.0</ele><time>2026-04-24T17:21:16.017Z</time></trkpt><trkpt lat="42.144852618359465" lon="-0.007395288905357041"><ele>602.0</ele><time>2026-04-24T17:21:17.017Z</time></trkpt><trkpt lat="42.14480399548855" lon="-0.007463105448263098"><ele>602.0</ele><time>2026-04-24T17:21:18.017Z</time></trkpt><trkpt lat="42.14475626239196" lon="-0.007531058669188761"><ele>602.0</ele><time>2026-04-24T17:21:19.017Z</time></trkpt><trkpt lat="42.14471297827548" lon="-0.007595854819062813"><ele>602.0</ele><time>2026-04-24T17:21:20.017Z</time></trkpt><trkpt lat="42.14463770459338" lon="-0.007711474224156055"><ele>602.0</ele><time>2026-04-24T17:21:22.017Z</time></trkpt><trkpt lat="42.14459109548144" lon="-0.00780775450288264"><ele>602.0</ele><time>2026-04-24T17:21:24.017Z</time></trkpt><trkpt lat="42.14454157307606" lon="-0.007897743996618413"><ele>602.6</ele><time>2026-04-24T17:21:26.017Z</time></trkpt><trkpt lat="42.144507540999975" lon="-0.007978589538841672"><ele>603.2</ele><time>2026-04-24T17:21:29.017Z</time></trkpt><trkpt lat="42.14444523446134" lon="-0.008011582915474071"><ele>603.8</ele><time>2026-04-24T17:21:38.017Z</time></trkpt><trkpt lat="42.144492600811425" lon="-0.007941734836713737"><ele>604.4</ele><time>2026-04-24T17:21:41.017Z</time></trkpt><trkpt lat="42.14456371579515" lon="-0.007946203235891606"><ele>605.0</ele><time>2026-04-24T17:21:45.017Z</time></trkpt><trkpt lat="42.14479661282692" lon="-0.008262197066471019"><ele>605.0</ele><time>2026-04-24T17:22:11.017Z</time></trkpt></trkseg><trkseg><trkpt lat="42.25627927262343" lon="-0.06871015036844301"><ele>690.0</ele><time>2026-04-25T07:57:22.952Z</time></trkpt><trkpt lat="42.25627927262343" lon="-0.06871015036844301"><ele>690.0</ele><time>2026-04-25T07:57:22.952Z</time></trkpt><trkpt lat="42.25627927262343" lon="-0.06871015036844301"><ele>690.0</ele><time>2026-04-25T07:57:22.952Z</time></trkpt><trkpt lat="42.25627927262343" lon="-0.06871015036844301"><ele>690.0</ele><time>2026-04-25T07:57:22.952Z</time></trkpt><trkpt lat="42.25627927262343" lon="-0.06871015036844301"><ele>690.0</ele><time>2026-04-25T07:57:22.952Z</time></trkpt><trkpt lat="42.256222024273654" lon="-0.0687716165528612"><ele>690.0</ele><time>2026-04-25T08:01:01.944Z</time></trkpt><trkpt lat="42.25616906785802" lon="-0.06870033994669922"><ele>690.0</ele><time>2026-04-25T08:01:04.944Z</time></trkpt><trkpt lat="42.25610608782105" lon="-0.068648876510757"><ele>690.0</ele><time>2026-04-25T08:01:07.944Z</time></trkpt><trkpt lat="42.25604452206837" lon="-0.06862721877613198"><ele>690.0</ele><time>2026-04-25T08:01:10.944Z</time></trkpt><trkpt lat="42.2560008766664" lon="-0.06872030473898368"><ele>690.0</ele><time>2026-04-25T08:01:13.944Z</time></trkpt><trkpt lat="42.25599922923852" lon="-0.06881734547522247"><ele>690.0</ele><time>2026-04-25T08:01:15.944Z</time></trkpt><trkpt lat="42.25597371999973" lon="-0.06892173570246043"><ele>690.0</ele><time>2026-04-25T08:01:17.944Z</time></trkpt><trkpt lat="42.25595555294643" lon="-0.06902518021746208"><ele>690.0</ele><time>2026-04-25T08:01:19.944Z</time></trkpt><trkpt lat="42.2559461821306" lon="-0.06913469908897886"><ele>690.0</ele><time>2026-04-25T08:01:21.944Z</time></trkpt><trkpt lat="42.25593125880918" lon="-0.06923535328620198"><ele>690.0</ele><time>2026-04-25T08:01:24.944Z</time></trkpt><trkpt lat="42.25587458149414" lon="-0.06939865610433112"><ele>690.0</ele><time>2026-04-25T08:02:21.943Z</time></trkpt><trkpt lat="42.25587146469188" lon="-0.06948861259184065"><ele>690.0</ele><time>2026-04-25T08:02:22.943Z</time></trkpt><trkpt lat="42.25586585716142" lon="-0.06964172490736918"><ele>690.6666666666666</ele><time>2026-04-25T08:02:24.943Z</time></trkpt><trkpt lat="42.25590618803827" lon="-0.06979524365785161"><ele>691.3333333333334</ele><time>2026-04-25T08:02:26.941Z</time></trkpt><trkpt lat="42.2559472520935" lon="-0.06986275132291946"><ele>692.0</ele><time>2026-04-25T08:02:27.941Z</time></trkpt><trkpt lat="42.25600090574411" lon="-0.06991163759733736"><ele>692.6666666666667</ele><time>2026-04-25T08:02:28.941Z</time></trkpt><trkpt lat="42.256069175737395" lon="-0.06996029719785035"><ele>693.3333333333334</ele><time>2026-04-25T08:02:29.941Z</time></trkpt><trkpt lat="42.25614129520104" lon="-0.06999747061682754"><ele>694.0</ele><time>2026-04-25T08:02:30.941Z</time></trkpt><trkpt lat="42.25622055731435" lon="-0.07001655121852642"><ele>694.0</ele><time>2026-04-25T08:02:31.941Z</time></trkpt><trkpt lat="42.25630029208463" lon="-0.07001430074216253"><ele>694.0</ele><time>2026-04-25T08:02:32.941Z</time></trkpt><trkpt lat="42.25638111309782" lon="-0.07001659467688888"><ele>694.0</ele><time>2026-04-25T08:02:33.941Z</time></trkpt><trkpt lat="42.25646299499214" lon="-0.07001712426503813"><ele>694.0</ele><time>2026-04-25T08:02:34.941Z</time></trkpt><trkpt lat="42.25653791824213" lon="-0.07001453781862467"><ele>694.0</ele><time>2026-04-25T08:02:35.941Z</time></trkpt><trkpt lat="42.25660964935135" lon="-0.07001554113303164"><ele>694.0</ele><time>2026-04-25T08:02:36.941Z</time></trkpt><trkpt lat="42.256679450034056" lon="-0.07001639264943592"><ele>694.3333333333334</ele><time>2026-04-25T08:02:37.941Z</time></trkpt><trkpt lat="42.25674428397433" lon="-0.07001593457326982"><ele>694.6666666666667</ele><time>2026-04-25T08:02:38.941Z</time></trkpt><trkpt lat="42.2568588485541" lon="-0.07000548415005335"><ele>695.0</ele><time>2026-04-25T08:02:40.941Z</time></trkpt><trkpt lat="42.256948816674225" lon="-0.07001156232926857"><ele>695.3333333333334</ele><time>2026-04-25T08:02:42.941Z</time></trkpt><trkpt lat="42.25702594275936" lon="-0.07001662914514775"><ele>695.6666666666666</ele><time>2026-04-25T08:02:44.941Z</time></trkpt><trkpt lat="42.25709637648826" lon="-0.07000454238569741"><ele>696.0</ele><time>2026-04-25T08:02:46.941Z</time></trkpt><trkpt lat="42.25717008523896" lon="-0.07001088787057502"><ele>696.0</ele><time>2026-04-25T08:02:48.941Z</time></trkpt><trkpt lat="42.2572700634639" lon="-0.07001275908296087"><ele>696.0</ele><time>2026-04-25T08:02:50.941Z</time></trkpt><trkpt lat="42.257334400999106" lon="-0.07000752483156499"><ele>696.0</ele><time>2026-04-25T08:02:51.941Z</time></trkpt><trkpt lat="42.25740647995292" lon="-0.06999857443655393"><ele>696.0</ele><time>2026-04-25T08:02:52.941Z</time></trkpt><trkpt lat="42.25747174744071" lon="-0.06997840308065043"><ele>696.0</ele><time>2026-04-25T08:02:53.941Z</time></trkpt><trkpt lat="42.25755545278353" lon="-0.06991762043837729"><ele>696.0</ele><time>2026-04-25T08:02:56.941Z</time></trkpt><trkpt lat="42.257494159271744" lon="-0.06999929111982872"><ele>696.0</ele><time>2026-04-25T08:03:15.94Z</time></trkpt><trkpt lat="42.25741866762728" lon="-0.06999710371321058"><ele>696.0</ele><time>2026-04-25T08:03:17.94Z</time></trkpt><trkpt lat="42.25732607655142" lon="-0.07002350310105955"><ele>696.0</ele><time>2026-04-25T08:03:19.94Z</time></trkpt><trkpt lat="42.257226560326714" lon="-0.07002317920509145"><ele>696.0</ele><time>2026-04-25T08:03:21.94Z</time></trkpt><trkpt lat="42.2570979952333" lon="-0.07003185987736667"><ele>696.0</ele><time>2026-04-25T08:03:23.94Z</time></trkpt><trkpt lat="42.25702602797379" lon="-0.07003681847210999"><ele>696.0</ele><time>2026-04-25T08:03:24.94Z</time></trkpt><trkpt lat="42.25695704539648" lon="-0.07003577299361156"><ele>696.0</ele><time>2026-04-25T08:03:25.94Z</time></trkpt><trkpt lat="42.25688569705791" lon="-0.07003514059426515"><ele>696.0</ele><time>2026-04-25T08:03:26.94Z</time></trkpt><trkpt lat="42.25681119312945" lon="-0.07003593292325087"><ele>696.0</ele><time>2026-04-25T08:03:27.94Z</time></trkpt><trkpt lat="42.256733565742785" lon="-0.0700306042304539"><ele>696.0</ele><time>2026-04-25T08:03:28.94Z</time></trkpt><trkpt lat="42.256651519394666" lon="-0.07002982149061651"><ele>696.0</ele><time>2026-04-25T08:03:29.94Z</time></trkpt><trkpt lat="42.25657068661223" lon="-0.0700380100964548"><ele>696.0</ele><time>2026-04-25T08:03:30.94Z</time></trkpt><trkpt lat="42.25648687081585" lon="-0.07004141774977775"><ele>696.0</ele><time>2026-04-25T08:03:31.94Z</time></trkpt><trkpt lat="42.256403913829466" lon="-0.07003802159001125"><ele>696.0</ele><time>2026-04-25T08:03:32.94Z</time></trkpt><trkpt lat="42.25631862386885" lon="-0.07003717286757564"><ele>696.0</ele><time>2026-04-25T08:03:33.94Z</time></trkpt><trkpt lat="42.25623986227343" lon="-0.07003808680156677"><ele>696.0</ele><time>2026-04-25T08:03:34.94Z</time></trkpt><trkpt lat="42.2561624380203" lon="-0.07002791054883692"><ele>696.0</ele><time>2026-04-25T08:03:35.94Z</time></trkpt><trkpt lat="42.2560855361938" lon="-0.07000219841730317"><ele>695.5999999999999</ele><time>2026-04-25T08:03:36.94Z</time></trkpt><trkpt lat="42.25601244352742" lon="-0.06994648297166696"><ele>695.2</ele><time>2026-04-25T08:03:37.941Z</time></trkpt><trkpt lat="42.25595434720281" lon="-0.06987940134324525"><ele>694.8</ele><time>2026-04-25T08:03:38.941Z</time></trkpt><trkpt lat="42.255895642181535" lon="-0.06975652136092418"><ele>694.4000000000001</ele><time>2026-04-25T08:03:40.942Z</time></trkpt><trkpt lat="42.25585979556662" lon="-0.06963958471010841"><ele>694.0</ele><time>2026-04-25T08:03:42.942Z</time></trkpt><trkpt lat="42.25586193123043" lon="-0.06951010173893721"><ele>694.0</ele><time>2026-04-25T08:03:44.943Z</time></trkpt><trkpt lat="42.25587579855565" lon="-0.0693581990410674"><ele>694.0</ele><time>2026-04-25T08:03:46.943Z</time></trkpt><trkpt lat="42.25590069145417" lon="-0.06920797928100579"><ele>694.0</ele><time>2026-04-25T08:03:48.944Z</time></trkpt><trkpt lat="42.25593030131216" lon="-0.06907492329452218"><ele>694.0</ele><time>2026-04-25T08:03:50.944Z</time></trkpt><trkpt lat="42.2559509996304" lon="-0.06894576903358408"><ele>694.0</ele><time>2026-04-25T08:03:52.944Z</time></trkpt><trkpt lat="42.25597990956298" lon="-0.0688286448813753"><ele>694.0</ele><time>2026-04-25T08:03:54.945Z</time></trkpt><trkpt lat="42.2559185004562" lon="-0.06887457501817738"><ele>694.0</ele><time>2026-04-25T08:04:00.945Z</time></trkpt><trkpt lat="42.25586814757393" lon="-0.06901202011126684"><ele>694.0</ele><time>2026-04-25T08:04:02.945Z</time></trkpt><trkpt lat="42.25584036200452" lon="-0.06913788373929947"><ele>694.0</ele><time>2026-04-25T08:04:04.945Z</time></trkpt><trkpt lat="42.25578686892491" lon="-0.06921393655018278"><ele>694.0</ele><time>2026-04-25T08:04:07.946Z</time></trkpt><trkpt lat="42.255715363140446" lon="-0.0692395741509115"><ele>694.0</ele><time>2026-04-25T08:04:11.946Z</time></trkpt><trkpt lat="42.25566888362987" lon="-0.06929820189627446"><ele>694.0</ele><time>2026-04-25T08:04:14.946Z</time></trkpt><trkpt lat="42.25562843567476" lon="-0.06936993314176235"><ele>694.0</ele><time>2026-04-25T08:04:16.946Z</time></trkpt><trkpt lat="42.25557495691158" lon="-0.06946433633078715"><ele>694.0</ele><time>2026-04-25T08:04:19.946Z</time></trkpt><trkpt lat="42.2555629552652" lon="-0.0695563240191324"><ele>694.0</ele><time>2026-04-25T08:04:21.946Z</time></trkpt><trkpt lat="42.25553946086762" lon="-0.0696554644931779"><ele>694.0</ele><time>2026-04-25T08:04:23.946Z</time></trkpt><trkpt lat="42.25546866268581" lon="-0.06977699987584284"><ele>694.0</ele><time>2026-04-25T08:04:25.946Z</time></trkpt><trkpt lat="42.255421868352165" lon="-0.0698379041900859"><ele>694.0</ele><time>2026-04-25T08:04:26.946Z</time></trkpt><trkpt lat="42.25538003904682" lon="-0.06990297053609834"><ele>694.0</ele><time>2026-04-25T08:04:27.946Z</time></trkpt><trkpt lat="42.25532804942118" lon="-0.06998408931593793"><ele>694.0</ele><time>2026-04-25T08:04:29.946Z</time></trkpt><trkpt lat="42.25537430431641" lon="-0.0700972110764558"><ele>694.0</ele><time>2026-04-25T08:04:32.945Z</time></trkpt><trkpt lat="42.255496031799005" lon="-0.07014061606915571"><ele>694.0</ele><time>2026-04-25T08:04:34.944Z</time></trkpt><trkpt lat="42.25556971617475" lon="-0.07015662615357227"><ele>694.0</ele><time>2026-04-25T08:04:35.944Z</time></trkpt><trkpt lat="42.25565189226439" lon="-0.07017435474264955"><ele>694.0</ele><time>2026-04-25T08:04:36.945Z</time></trkpt><trkpt lat="42.25573834332679" lon="-0.07018343307596042"><ele>694.0</ele><time>2026-04-25T08:04:37.945Z</time></trkpt><trkpt lat="42.255825355932345" lon="-0.07020374473866131"><ele>694.0</ele><time>2026-04-25T08:04:38.944Z</time></trkpt><trkpt lat="42.25590698577443" lon="-0.07022749384418579"><ele>694.0</ele><time>2026-04-25T08:04:39.945Z</time></trkpt><trkpt lat="42.25596945213979" lon="-0.07023867946402697"><ele>694.0</ele><time>2026-04-25T08:04:40.945Z</time></trkpt><trkpt lat="42.25606655415187" lon="-0.07025407392592287"><ele>694.0</ele><time>2026-04-25T08:04:42.944Z</time></trkpt><trkpt lat="42.25616012125232" lon="-0.07029873249806895"><ele>694.0</ele><time>2026-04-25T08:04:44.944Z</time></trkpt><trkpt lat="42.25622116143004" lon="-0.07034994698847996"><ele>694.0</ele><time>2026-04-25T08:04:45.944Z</time></trkpt><trkpt lat="42.256285547129245" lon="-0.0704064118070883"><ele>694.0</ele><time>2026-04-25T08:04:46.944Z</time></trkpt><trkpt lat="42.25634188244076" lon="-0.07044768109337363"><ele>694.0</ele><time>2026-04-25T08:04:47.944Z</time></trkpt><trkpt lat="42.25644895404637" lon="-0.07052299427037387"><ele>694.0</ele><time>2026-04-25T08:04:49.944Z</time></trkpt><trkpt lat="42.25651158278084" lon="-0.07054807969327796"><ele>694.0</ele><time>2026-04-25T08:04:50.944Z</time></trkpt><trkpt lat="42.256572978375736" lon="-0.07057448599197091"><ele>694.4000000000001</ele><time>2026-04-25T08:04:51.944Z</time></trkpt><trkpt lat="42.25667037624238" lon="-0.07061518219594093"><ele>694.8</ele><time>2026-04-25T08:04:53.944Z</time></trkpt><trkpt lat="42.25674383720965" lon="-0.07062010604307843"><ele>695.2</ele><time>2026-04-25T08:04:55.944Z</time></trkpt><trkpt lat="42.25680721793713" lon="-0.0706835888352595"><ele>695.5999999999999</ele><time>2026-04-25T08:04:57.944Z</time></trkpt><trkpt lat="42.256882835953476" lon="-0.07083215822195252"><ele>696.0</ele><time>2026-04-25T08:04:59.944Z</time></trkpt><trkpt lat="42.256944775456795" lon="-0.07092491844390528"><ele>693.5999999999999</ele><time>2026-04-25T08:05:00.944Z</time></trkpt><trkpt lat="42.257016984265974" lon="-0.07102152352274473"><ele>691.2</ele><time>2026-04-25T08:05:01.944Z</time></trkpt><trkpt lat="42.25709115046994" lon="-0.07111387946756408"><ele>688.8</ele><time>2026-04-25T08:05:02.944Z</time></trkpt><trkpt lat="42.257169996453335" lon="-0.07120814043019659"><ele>686.4000000000001</ele><time>2026-04-25T08:05:03.944Z</time></trkpt><trkpt lat="42.257244765278315" lon="-0.07129331096675447"><ele>684.0</ele><time>2026-04-25T08:05:04.944Z</time></trkpt><trkpt lat="42.25730946509484" lon="-0.0713873761334911"><ele>683.8000000000001</ele><time>2026-04-25T08:05:05.944Z</time></trkpt><trkpt lat="42.257352740168415" lon="-0.07149053837371955"><ele>683.6</ele><time>2026-04-25T08:05:06.944Z</time></trkpt><trkpt lat="42.257362877064175" lon="-0.07161421852778141"><ele>683.4</ele><time>2026-04-25T08:05:07.944Z</time></trkpt><trkpt lat="42.2573540019904" lon="-0.0717564902730604"><ele>683.2</ele><time>2026-04-25T08:05:08.944Z</time></trkpt><trkpt lat="42.25734545717538" lon="-0.07189786855644238"><ele>683.0</ele><time>2026-04-25T08:05:09.944Z</time></trkpt><trkpt lat="42.257328638938866" lon="-0.0720386217808582"><ele>682.8</ele><time>2026-04-25T08:05:10.944Z</time></trkpt><trkpt lat="42.257298522506254" lon="-0.0721760565261761"><ele>682.5999999999999</ele><time>2026-04-25T08:05:11.944Z</time></trkpt><trkpt lat="42.25725778644264" lon="-0.0723037915091616"><ele>682.4000000000001</ele><time>2026-04-25T08:05:12.944Z</time></trkpt><trkpt lat="42.25721242160748" lon="-0.07241888441340776"><ele>682.2</ele><time>2026-04-25T08:05:13.944Z</time></trkpt><trkpt lat="42.257178299486675" lon="-0.07252666082705388"><ele>682.0</ele><time>2026-04-25T08:05:14.944Z</time></trkpt><trkpt lat="42.25715127684625" lon="-0.07263479282467221"><ele>681.8333333333334</ele><time>2026-04-25T08:05:15.944Z</time></trkpt><trkpt lat="42.257152921632226" lon="-0.0727361259379958"><ele>681.6666666666667</ele><time>2026-04-25T08:05:16.944Z</time></trkpt><trkpt lat="42.25716885570898" lon="-0.0728337731527649"><ele>681.5</ele><time>2026-04-25T08:05:17.944Z</time></trkpt><trkpt lat="42.257200224057605" lon="-0.07294812259749618"><ele>681.3333333333334</ele><time>2026-04-25T08:05:18.944Z</time></trkpt><trkpt lat="42.25723910409011" lon="-0.07305902462298806"><ele>681.1666666666666</ele><time>2026-04-25T08:05:19.944Z</time></trkpt><trkpt lat="42.25728161220696" lon="-0.07318668635979773"><ele>681.0</ele><time>2026-04-25T08:05:20.944Z</time></trkpt><trkpt lat="42.2573205406054" lon="-0.07331047983324848"><ele>682.4</ele><time>2026-04-25T08:05:21.944Z</time></trkpt><trkpt lat="42.257353683818486" lon="-0.07342974744302586"><ele>683.8</ele><time>2026-04-25T08:05:22.944Z</time></trkpt><trkpt lat="42.257378523616616" lon="-0.07354815254125445"><ele>685.1999999999999</ele><time>2026-04-25T08:05:23.944Z</time></trkpt><trkpt lat="42.25738208636633" lon="-0.07367272490504272"><ele>686.5999999999999</ele><time>2026-04-25T08:05:24.944Z</time></trkpt><trkpt lat="42.25734962033332" lon="-0.07379144395325223"><ele>688.0</ele><time>2026-04-25T08:05:25.944Z</time></trkpt><trkpt lat="42.257294815838115" lon="-0.07389628629193856"><ele>686.2</ele><time>2026-04-25T08:05:26.944Z</time></trkpt><trkpt lat="42.25723803235908" lon="-0.07399993023837215"><ele>684.4</ele><time>2026-04-25T08:05:27.944Z</time></trkpt><trkpt lat="42.257191374327626" lon="-0.07411723263003869"><ele>682.6</ele><time>2026-04-25T08:05:28.944Z</time></trkpt><trkpt lat="42.257163139807346" lon="-0.07424866380417636"><ele>680.8000000000001</ele><time>2026-04-25T08:05:29.944Z</time></trkpt><trkpt lat="42.25714376159212" lon="-0.07438917977607457"><ele>679.0</ele><time>2026-04-25T08:05:30.944Z</time></trkpt><trkpt lat="42.25713726521041" lon="-0.07453028034614276"><ele>677.75</ele><time>2026-04-25T08:05:31.944Z</time></trkpt><trkpt lat="42.25714087950061" lon="-0.0746795785264561"><ele>676.5</ele><time>2026-04-25T08:05:32.944Z</time></trkpt><trkpt lat="42.257160597874574" lon="-0.07482874856272448"><ele>675.25</ele><time>2026-04-25T08:05:33.944Z</time></trkpt><trkpt lat="42.2571893738561" lon="-0.07497854578377394"><ele>674.0</ele><time>2026-04-25T08:05:34.944Z</time></trkpt><trkpt lat="42.25722337123516" lon="-0.07513624265761755"><ele>674.25</ele><time>2026-04-25T08:05:35.944Z</time></trkpt><trkpt lat="42.25725234068381" lon="-0.07530044963558402"><ele>674.5</ele><time>2026-04-25T08:05:36.944Z</time></trkpt><trkpt lat="42.25727258756167" lon="-0.07545968003578339"><ele>674.75</ele><time>2026-04-25T08:05:37.944Z</time></trkpt><trkpt lat="42.257292863880586" lon="-0.07561513211659364"><ele>675.0</ele><time>2026-04-25T08:05:38.944Z</time></trkpt><trkpt lat="42.25731137020825" lon="-0.0757697778719988"><ele>673.25</ele><time>2026-04-25T08:05:39.944Z</time></trkpt><trkpt lat="42.25732777472864" lon="-0.07593163966890366"><ele>671.5</ele><time>2026-04-25T08:05:40.944Z</time></trkpt><trkpt lat="42.25735200213955" lon="-0.07609197476210694"><ele>669.75</ele><time>2026-04-25T08:05:41.944Z</time></trkpt><trkpt lat="42.25738808107269" lon="-0.07625005173878208"><ele>668.0</ele><time>2026-04-25T08:05:42.944Z</time></trkpt><trkpt lat="42.25741149513497" lon="-0.07642575120381066"><ele>666.5</ele><time>2026-04-25T08:05:43.944Z</time></trkpt><trkpt lat="42.257409177795154" lon="-0.07661566173340788"><ele>665.0</ele><time>2026-04-25T08:05:44.944Z</time></trkpt><trkpt lat="42.257390433674985" lon="-0.07681543976924024"><ele>663.5</ele><time>2026-04-25T08:05:45.944Z</time></trkpt><trkpt lat="42.25735455275311" lon="-0.07701646912593135"><ele>662.0</ele><time>2026-04-25T08:05:46.944Z</time></trkpt><trkpt lat="42.25731703763492" lon="-0.07720417638931049"><ele>661.75</ele><time>2026-04-25T08:05:47.944Z</time></trkpt><trkpt lat="42.25727521256033" lon="-0.07738152450460731"><ele>661.5</ele><time>2026-04-25T08:05:48.944Z</time></trkpt><trkpt lat="42.25723297554531" lon="-0.07755106262033118"><ele>661.25</ele><time>2026-04-25T08:05:49.944Z</time></trkpt><trkpt lat="42.25719499379998" lon="-0.07772228173099023"><ele>661.0</ele><time>2026-04-25T08:05:50.943Z</time></trkpt><trkpt lat="42.25716659348479" lon="-0.07789314530335424"><ele>660.0</ele><time>2026-04-25T08:05:51.943Z</time></trkpt><trkpt lat="42.25715470510103" lon="-0.0780646558094137"><ele>659.0</ele><time>2026-04-25T08:05:52.943Z</time></trkpt><trkpt lat="42.25715828005379" lon="-0.07823977652110227"><ele>658.0</ele><time>2026-04-25T08:05:53.943Z</time></trkpt><trkpt lat="42.25718541027527" lon="-0.07841713865057152"><ele>657.0</ele><time>2026-04-25T08:05:54.943Z</time></trkpt><trkpt lat="42.257240902948965" lon="-0.07858332339196043"><ele>657.5</ele><time>2026-04-25T08:05:55.943Z</time></trkpt><trkpt lat="42.25731644952797" lon="-0.07874170913475602"><ele>658.0</ele><time>2026-04-25T08:05:56.943Z</time></trkpt><trkpt lat="42.257391325892556" lon="-0.07890764217582738"><ele>658.5</ele><time>2026-04-25T08:05:57.943Z</time></trkpt><trkpt lat="42.25744643591352" lon="-0.07908439420086033"><ele>659.0</ele><time>2026-04-25T08:05:58.943Z</time></trkpt><trkpt lat="42.25749052302014" lon="-0.07927077049348422"><ele>659.0</ele><time>2026-04-25T08:05:59.943Z</time></trkpt><trkpt lat="42.257533328793684" lon="-0.07946267501614096"><ele>659.0</ele><time>2026-04-25T08:06:00.943Z</time></trkpt><trkpt lat="42.25756590249647" lon="-0.0796567005223146"><ele>659.0</ele><time>2026-04-25T08:06:01.943Z</time></trkpt><trkpt lat="42.25758792834911" lon="-0.07984815962088078"><ele>659.0</ele><time>2026-04-25T08:06:02.943Z</time></trkpt><trkpt lat="42.257604894902954" lon="-0.08003158218282322"><ele>658.8000000000001</ele><time>2026-04-25T08:06:03.943Z</time></trkpt><trkpt lat="42.257619592050446" lon="-0.08019418083809586"><ele>658.6</ele><time>2026-04-25T08:06:04.943Z</time></trkpt><trkpt lat="42.257636133381176" lon="-0.08034965859420304"><ele>658.4</ele><time>2026-04-25T08:06:05.943Z</time></trkpt><trkpt lat="42.257652073574604" lon="-0.08049056797260175"><ele>658.2</ele><time>2026-04-25T08:06:06.943Z</time></trkpt><trkpt lat="42.25767338553146" lon="-0.08062924261478055"><ele>658.0</ele><time>2026-04-25T08:06:07.943Z</time></trkpt><trkpt lat="42.25770002838642" lon="-0.08074938160778135"><ele>657.0</ele><time>2026-04-25T08:06:08.943Z</time></trkpt><trkpt lat="42.25774173366473" lon="-0.08086058921761179"><ele>656.0</ele><time>2026-04-25T08:06:09.943Z</time></trkpt><trkpt lat="42.25779897052529" lon="-0.08096325147738238"><ele>655.0</ele><time>2026-04-25T08:06:10.943Z</time></trkpt><trkpt lat="42.2578672743525" lon="-0.08104555694606722"><ele>654.0</ele><time>2026-04-25T08:06:11.943Z</time></trkpt><trkpt lat="42.257950513582166" lon="-0.0811136043777762"><ele>653.0</ele><time>2026-04-25T08:06:12.943Z</time></trkpt><trkpt lat="42.25803504876931" lon="-0.08118662279917734"><ele>653.0</ele><time>2026-04-25T08:06:13.943Z</time></trkpt><trkpt lat="42.25812027742834" lon="-0.08126808501788639"><ele>653.0</ele><time>2026-04-25T08:06:14.943Z</time></trkpt><trkpt lat="42.258293309756056" lon="-0.08145233468552932"><ele>653.0</ele><time>2026-04-25T08:06:16.943Z</time></trkpt><trkpt lat="42.25837687083731" lon="-0.08156960652817233"><ele>653.0</ele><time>2026-04-25T08:06:17.943Z</time></trkpt><trkpt lat="42.25845631168878" lon="-0.08169793228845311"><ele>652.5</ele><time>2026-04-25T08:06:18.943Z</time></trkpt><trkpt lat="42.258526244952236" lon="-0.08184444494959582"><ele>652.0</ele><time>2026-04-25T08:06:19.943Z</time></trkpt><trkpt lat="42.258587037449594" lon="-0.08198332587279676"><ele>651.5</ele><time>2026-04-25T08:06:20.943Z</time></trkpt><trkpt lat="42.25864948926766" lon="-0.0820973740061024"><ele>651.0</ele><time>2026-04-25T08:06:21.943Z</time></trkpt><trkpt lat="42.258727575906136" lon="-0.08218215232180226"><ele>651.0</ele><time>2026-04-25T08:06:22.943Z</time></trkpt><trkpt lat="42.258820934730636" lon="-0.08223618715891076"><ele>651.0</ele><time>2026-04-25T08:06:23.943Z</time></trkpt><trkpt lat="42.25891745960915" lon="-0.08224945583159285"><ele>651.0</ele><time>2026-04-25T08:06:24.943Z</time></trkpt><trkpt lat="42.25901898432285" lon="-0.08223969536522358"><ele>651.0</ele><time>2026-04-25T08:06:25.943Z</time></trkpt><trkpt lat="42.25911762974624" lon="-0.08222064222426008"><ele>651.0</ele><time>2026-04-25T08:06:26.943Z</time></trkpt><trkpt lat="42.25920421753796" lon="-0.0822132556275811"><ele>649.8333333333334</ele><time>2026-04-25T08:06:27.943Z</time></trkpt><trkpt lat="42.259274706600145" lon="-0.08221195573947267"><ele>648.6666666666666</ele><time>2026-04-25T08:06:28.943Z</time></trkpt><trkpt lat="42.259361215997316" lon="-0.08229894057336055"><ele>647.5</ele><time>2026-04-25T08:06:30.943Z</time></trkpt><trkpt lat="42.2593860411864" lon="-0.08238766087935054"><ele>646.3333333333333</ele><time>2026-04-25T08:06:31.943Z</time></trkpt><trkpt lat="42.25940797162768" lon="-0.08249446966647972"><ele>645.1666666666666</ele><time>2026-04-25T08:06:32.943Z</time></trkpt><trkpt lat="42.259429364666154" lon="-0.08261309825931226"><ele>644.0</ele><time>2026-04-25T08:06:33.943Z</time></trkpt><trkpt lat="42.25943903821345" lon="-0.08274145973509095"><ele>643.2</ele><time>2026-04-25T08:06:34.943Z</time></trkpt><trkpt lat="42.25943197480855" lon="-0.08288170698081126"><ele>642.4000000000001</ele><time>2026-04-25T08:06:35.943Z</time></trkpt><trkpt lat="42.25940440198991" lon="-0.08301555660523169"><ele>641.6</ele><time>2026-04-25T08:06:36.943Z</time></trkpt><trkpt lat="42.25936193947506" lon="-0.08313917130361131"><ele>640.8</ele><time>2026-04-25T08:06:37.943Z</time></trkpt><trkpt lat="42.259306910147686" lon="-0.08324837839318455"><ele>640.0</ele><time>2026-04-25T08:06:38.941Z</time></trkpt><trkpt lat="42.25924711913693" lon="-0.08333252711996057"><ele>639.1666666666667</ele><time>2026-04-25T08:06:39.942Z</time></trkpt><trkpt lat="42.25920144714198" lon="-0.0834244599846856"><ele>638.3333333333334</ele><time>2026-04-25T08:06:40.942Z</time></trkpt><trkpt lat="42.259183908371774" lon="-0.08351174090128992"><ele>637.5</ele><time>2026-04-25T08:06:41.942Z</time></trkpt><trkpt lat="42.25920302717018" lon="-0.08361052931694425"><ele>636.6666666666666</ele><time>2026-04-25T08:06:42.941Z</time></trkpt><trkpt lat="42.2592402179493" lon="-0.08371894974281253"><ele>635.8333333333333</ele><time>2026-04-25T08:06:43.941Z</time></trkpt><trkpt lat="42.259271677868064" lon="-0.08383081034128932"><ele>635.0</ele><time>2026-04-25T08:06:44.941Z</time></trkpt><trkpt lat="42.25931356042396" lon="-0.08396093872617122"><ele>635.0</ele><time>2026-04-25T08:06:45.941Z</time></trkpt><trkpt lat="42.25935428309089" lon="-0.08409322067526152"><ele>635.0</ele><time>2026-04-25T08:06:46.941Z</time></trkpt><trkpt lat="42.25938724514341" lon="-0.08421035942219679"><ele>635.0</ele><time>2026-04-25T08:06:47.941Z</time></trkpt><trkpt lat="42.259413061698545" lon="-0.08431194578336344"><ele>635.0</ele><time>2026-04-25T08:06:48.941Z</time></trkpt><trkpt lat="42.25942864953906" lon="-0.08440005158661319"><ele>635.0</ele><time>2026-04-25T08:06:49.941Z</time></trkpt><trkpt lat="42.25945129104551" lon="-0.08455804185813841"><ele>634.2</ele><time>2026-04-25T08:06:52.941Z</time></trkpt><trkpt lat="42.25946564470697" lon="-0.08465847591788761"><ele>633.4</ele><time>2026-04-25T08:08:10.939Z</time></trkpt><trkpt lat="42.25947571929592" lon="-0.08477773183423652"><ele>632.6</ele><time>2026-04-25T08:08:12.939Z</time></trkpt><trkpt lat="42.259523251410464" lon="-0.08488973316262294"><ele>631.8</ele><time>2026-04-25T08:08:14.939Z</time></trkpt><trkpt lat="42.25963574536145" lon="-0.08492067580024935"><ele>631.0</ele><time>2026-04-25T08:08:16.939Z</time></trkpt><trkpt lat="42.25970790925872" lon="-0.08489349397397566"><ele>631.3333333333334</ele><time>2026-04-25T08:08:17.939Z</time></trkpt><trkpt lat="42.259784714658814" lon="-0.08486058226991085"><ele>631.6666666666667</ele><time>2026-04-25T08:08:18.939Z</time></trkpt><trkpt lat="42.25985860952467" lon="-0.08482855145602011"><ele>632.0</ele><time>2026-04-25T08:08:19.939Z</time></trkpt><trkpt lat="42.25993474843365" lon="-0.08480536422737386"><ele>632.3333333333334</ele><time>2026-04-25T08:08:20.939Z</time></trkpt><trkpt lat="42.260018634014216" lon="-0.08478784679829217"><ele>632.6666666666666</ele><time>2026-04-25T08:08:21.939Z</time></trkpt><trkpt lat="42.2600976852826" lon="-0.08477604802826333"><ele>633.0</ele><time>2026-04-25T08:08:22.939Z</time></trkpt><trkpt lat="42.260166409070564" lon="-0.08477112586325285"><ele>633.0</ele><time>2026-04-25T08:08:23.939Z</time></trkpt><trkpt lat="42.26023217379588" lon="-0.08476874910772982"><ele>633.0</ele><time>2026-04-25T08:08:24.939Z</time></trkpt><trkpt lat="42.26035115944183" lon="-0.08475960480818437"><ele>633.0</ele><time>2026-04-25T08:08:26.939Z</time></trkpt><trkpt lat="42.260448514752255" lon="-0.08474263687593502"><ele>633.0</ele><time>2026-04-25T08:08:28.939Z</time></trkpt><trkpt lat="42.260541065066526" lon="-0.08473053995773973"><ele>633.0</ele><time>2026-04-25T08:08:30.939Z</time></trkpt><trkpt lat="42.26064192300771" lon="-0.08469214690873919"><ele>632.6666666666666</ele><time>2026-04-25T08:08:32.939Z</time></trkpt><trkpt lat="42.26074121521985" lon="-0.08464863779536143"><ele>632.3333333333334</ele><time>2026-04-25T08:08:34.939Z</time></trkpt><trkpt lat="42.260810790935196" lon="-0.08461291580556306"><ele>632.0</ele><time>2026-04-25T08:08:36.939Z</time></trkpt><trkpt lat="42.26087932748152" lon="-0.08461151304069281"><ele>631.6666666666667</ele><time>2026-04-25T08:08:39.939Z</time></trkpt><trkpt lat="42.26096494281171" lon="-0.08457997650946589"><ele>631.3333333333334</ele><time>2026-04-25T08:09:09.938Z</time></trkpt><trkpt lat="42.261052251238866" lon="-0.08453665061597242"><ele>631.0</ele><time>2026-04-25T08:09:11.938Z</time></trkpt><trkpt lat="42.26111921453296" lon="-0.0845287155215707"><ele>631.0</ele><time>2026-04-25T08:09:12.938Z</time></trkpt><trkpt lat="42.26122359329032" lon="-0.0845253030339543"><ele>631.0</ele><time>2026-04-25T08:09:14.938Z</time></trkpt><trkpt lat="42.26133777575818" lon="-0.08453184196084661"><ele>631.0</ele><time>2026-04-25T08:09:16.938Z</time></trkpt><trkpt lat="42.26140483880107" lon="-0.08452965829261194"><ele>631.0</ele><time>2026-04-25T08:09:17.938Z</time></trkpt><trkpt lat="42.26147157683451" lon="-0.08452399507076587"><ele>631.0</ele><time>2026-04-25T08:09:18.938Z</time></trkpt><trkpt lat="42.261546968760605" lon="-0.08451810469938005"><ele>631.0</ele><time>2026-04-25T08:09:19.938Z</time></trkpt><trkpt lat="42.26163147289257" lon="-0.08452756700999642"><ele>631.4</ele><time>2026-04-25T08:09:20.938Z</time></trkpt><trkpt lat="42.26172696369086" lon="-0.08455446159779267"><ele>631.8</ele><time>2026-04-25T08:09:21.938Z</time></trkpt><trkpt lat="42.26181914101701" lon="-0.08459192615330735"><ele>632.1999999999999</ele><time>2026-04-25T08:09:22.938Z</time></trkpt><trkpt lat="42.26190484707447" lon="-0.08464010143069098"><ele>632.6</ele><time>2026-04-25T08:09:23.938Z</time></trkpt><trkpt lat="42.26199630677071" lon="-0.08469160474002403"><ele>633.0</ele><time>2026-04-25T08:09:24.938Z</time></trkpt><trkpt lat="42.26208947022903" lon="-0.08475617656958424"><ele>633.0</ele><time>2026-04-25T08:09:25.938Z</time></trkpt><trkpt lat="42.26219248695488" lon="-0.08480675431970695"><ele>633.0</ele><time>2026-04-25T08:09:26.938Z</time></trkpt><trkpt lat="42.26230664209497" lon="-0.08482857407318774"><ele>633.0</ele><time>2026-04-25T08:09:27.938Z</time></trkpt><trkpt lat="42.26242749305489" lon="-0.08484173008147118"><ele>633.0</ele><time>2026-04-25T08:09:28.937Z</time></trkpt><trkpt lat="42.262538655955275" lon="-0.08484837990896137"><ele>633.0</ele><time>2026-04-25T08:09:29.937Z</time></trkpt><trkpt lat="42.26264137678701" lon="-0.08484961370650775"><ele>633.0</ele><time>2026-04-25T08:09:30.937Z</time></trkpt><trkpt lat="42.2627437398919" lon="-0.08485673521180404"><ele>633.0</ele><time>2026-04-25T08:09:31.937Z</time></trkpt><trkpt lat="42.26284187464685" lon="-0.084891201792263"><ele>633.0</ele><time>2026-04-25T08:09:32.937Z</time></trkpt><trkpt lat="42.262939184655906" lon="-0.08495296864460074"><ele>633.0</ele><time>2026-04-25T08:09:33.937Z</time></trkpt><trkpt lat="42.263022733326416" lon="-0.08503670143528541"><ele>634.8</ele><time>2026-04-25T08:09:34.937Z</time></trkpt><trkpt lat="42.263095629562336" lon="-0.08513228608625582"><ele>636.5999999999999</ele><time>2026-04-25T08:09:35.937Z</time></trkpt><trkpt lat="42.263145519921615" lon="-0.08523824815628935"><ele>638.4000000000001</ele><time>2026-04-25T08:09:36.937Z</time></trkpt><trkpt lat="42.26318298340439" lon="-0.08534938840087292"><ele>640.2</ele><time>2026-04-25T08:09:37.937Z</time></trkpt><trkpt lat="42.26322464583557" lon="-0.08546046620759996"><ele>642.0</ele><time>2026-04-25T08:09:38.937Z</time></trkpt><trkpt lat="42.26327738168048" lon="-0.08556566616612682"><ele>642.0</ele><time>2026-04-25T08:09:39.937Z</time></trkpt><trkpt lat="42.263340708141946" lon="-0.08566618088342864"><ele>642.0</ele><time>2026-04-25T08:09:40.937Z</time></trkpt><trkpt lat="42.26339561609146" lon="-0.08576479154433284"><ele>642.0</ele><time>2026-04-25T08:09:41.937Z</time></trkpt><trkpt lat="42.26342746046837" lon="-0.08586760797366043"><ele>642.0</ele><time>2026-04-25T08:09:42.937Z</time></trkpt><trkpt lat="42.26343079748479" lon="-0.08596746366160064"><ele>642.0</ele><time>2026-04-25T08:09:43.937Z</time></trkpt><trkpt lat="42.263409255386414" lon="-0.0860694653714273"><ele>642.0</ele><time>2026-04-25T08:09:44.937Z</time></trkpt><trkpt lat="42.26336530313054" lon="-0.08616001280213656"><ele>643.8</ele><time>2026-04-25T08:09:45.937Z</time></trkpt><trkpt lat="42.263303793798485" lon="-0.08622239324727426"><ele>645.6</ele><time>2026-04-25T08:09:46.937Z</time></trkpt><trkpt lat="42.26321952324294" lon="-0.08624981496220588"><ele>647.4</ele><time>2026-04-25T08:09:47.937Z</time></trkpt><trkpt lat="42.26312032795078" lon="-0.08624259328750407"><ele>649.1999999999999</ele><time>2026-04-25T08:09:48.937Z</time></trkpt><trkpt lat="42.26301804812335" lon="-0.08620799175239661"><ele>651.0</ele><time>2026-04-25T08:09:49.937Z</time></trkpt><trkpt lat="42.26291923779022" lon="-0.08616450672174066"><ele>653.0</ele><time>2026-04-25T08:09:50.937Z</time></trkpt><trkpt lat="42.26282937074728" lon="-0.08612757873578882"><ele>655.0</ele><time>2026-04-25T08:09:51.937Z</time></trkpt><trkpt lat="42.26275023218367" lon="-0.0861111037028456"><ele>657.0</ele><time>2026-04-25T08:09:52.937Z</time></trkpt><trkpt lat="42.2626803803794" lon="-0.08609358506648444"><ele>659.0</ele><time>2026-04-25T08:09:53.937Z</time></trkpt><trkpt lat="42.262615288741074" lon="-0.08605472138294823"><ele>661.0</ele><time>2026-04-25T08:09:54.937Z</time></trkpt><trkpt lat="42.26255884938644" lon="-0.08600075413331293"><ele>663.0</ele><time>2026-04-25T08:09:55.937Z</time></trkpt><trkpt lat="42.262467538870446" lon="-0.08594515972993842"><ele>663.0</ele><time>2026-04-25T08:09:57.937Z</time></trkpt><trkpt lat="42.2623995478852" lon="-0.0859657402996955"><ele>663.0</ele><time>2026-04-25T08:10:00.937Z</time></trkpt><trkpt lat="42.262347264946" lon="-0.08602952454194507"><ele>663.0</ele><time>2026-04-25T08:10:02.937Z</time></trkpt><trkpt lat="42.26229603919506" lon="-0.08613804268312635"><ele>663.0</ele><time>2026-04-25T08:10:04.937Z</time></trkpt><trkpt lat="42.26223972319464" lon="-0.086247365680661"><ele>663.0</ele><time>2026-04-25T08:10:06.937Z</time></trkpt><trkpt lat="42.262195808017225" lon="-0.08631392970521176"><ele>663.0</ele><time>2026-04-25T08:10:08.937Z</time></trkpt><trkpt lat="42.26214085992245" lon="-0.08638271873732893"><ele>663.6666666666666</ele><time>2026-04-25T08:10:10.937Z</time></trkpt><trkpt lat="42.2620815899784" lon="-0.08642333267236563"><ele>664.3333333333334</ele><time>2026-04-25T08:10:13.937Z</time></trkpt><trkpt lat="42.26202090053072" lon="-0.08646204767678688"><ele>665.0</ele><time>2026-04-25T08:10:15.937Z</time></trkpt><trkpt lat="42.26193182634237" lon="-0.08649964025838756"><ele>665.6666666666667</ele><time>2026-04-25T08:10:17.937Z</time></trkpt><trkpt lat="42.26183149236336" lon="-0.0865442369384439"><ele>666.3333333333334</ele><time>2026-04-25T08:10:19.937Z</time></trkpt><trkpt lat="42.261742796630294" lon="-0.08658580018229059"><ele>667.0</ele><time>2026-04-25T08:10:21.937Z</time></trkpt><trkpt lat="42.261651192587" lon="-0.08663870185931867"><ele>668.2</ele><time>2026-04-25T08:10:23.937Z</time></trkpt><trkpt lat="42.26157246425564" lon="-0.08668666727058458"><ele>669.4000000000001</ele><time>2026-04-25T08:10:25.937Z</time></trkpt><trkpt lat="42.261469816776824" lon="-0.0867250069957055"><ele>670.5999999999999</ele><time>2026-04-25T08:10:27.937Z</time></trkpt><trkpt lat="42.26140495796483" lon="-0.08674392485755374"><ele>671.8</ele><time>2026-04-25T08:10:28.936Z</time></trkpt><trkpt lat="42.26127453826558" lon="-0.08678779601348455"><ele>673.0</ele><time>2026-04-25T08:10:30.936Z</time></trkpt><trkpt lat="42.26121249482208" lon="-0.08682015526250839"><ele>673.0</ele><time>2026-04-25T08:10:31.936Z</time></trkpt><trkpt lat="42.26111620635316" lon="-0.08692521483534255"><ele>673.0</ele><time>2026-04-25T08:10:33.936Z</time></trkpt><trkpt lat="42.261034036506224" lon="-0.08702737930679082"><ele>673.0</ele><time>2026-04-25T08:10:35.936Z</time></trkpt><trkpt lat="42.26094346305649" lon="-0.08707920225465847"><ele>673.0</ele><time>2026-04-25T08:10:37.936Z</time></trkpt><trkpt lat="42.260824837907315" lon="-0.08711629290134186"><ele>673.0</ele><time>2026-04-25T08:10:39.936Z</time></trkpt><trkpt lat="42.26071253456504" lon="-0.08717270263049287"><ele>673.0</ele><time>2026-04-25T08:10:41.936Z</time></trkpt><trkpt lat="42.26065389958435" lon="-0.08720400025733928"><ele>673.0</ele><time>2026-04-25T08:10:42.936Z</time></trkpt><trkpt lat="42.260592063563045" lon="-0.08723586632425148"><ele>673.0</ele><time>2026-04-25T08:10:43.936Z</time></trkpt><trkpt lat="42.260476030459365" lon="-0.0872871787849105"><ele>673.0</ele><time>2026-04-25T08:10:45.936Z</time></trkpt><trkpt lat="42.260360776933226" lon="-0.08729745421124709"><ele>672.4</ele><time>2026-04-25T08:10:47.936Z</time></trkpt><trkpt lat="42.260252215718936" lon="-0.08730850879004518"><ele>671.8</ele><time>2026-04-25T08:10:49.936Z</time></trkpt><trkpt lat="42.26015207694321" lon="-0.08737083909258639"><ele>671.2</ele><time>2026-04-25T08:10:51.934Z</time></trkpt><trkpt lat="42.260089473268934" lon="-0.08749013535643246"><ele>670.6</ele><time>2026-04-25T08:10:53.934Z</time></trkpt><trkpt lat="42.26004901857859" lon="-0.08763485090506418"><ele>670.0</ele><time>2026-04-25T08:10:55.935Z</time></trkpt><trkpt lat="42.26003258233339" lon="-0.08772357566948898"><ele>670.4</ele><time>2026-04-25T08:10:56.935Z</time></trkpt><trkpt lat="42.25997955005342" lon="-0.08786808955938909"><ele>670.8</ele><time>2026-04-25T08:10:58.934Z</time></trkpt><trkpt lat="42.25990389159504" lon="-0.0879882949460416"><ele>671.2</ele><time>2026-04-25T08:11:00.934Z</time></trkpt><trkpt lat="42.25982401340396" lon="-0.08810094913657705"><ele>671.6</ele><time>2026-04-25T08:11:02.934Z</time></trkpt><trkpt lat="42.259775956054085" lon="-0.08816116919693825"><ele>672.0</ele><time>2026-04-25T08:11:03.934Z</time></trkpt><trkpt lat="42.25973073963408" lon="-0.08822356614960272"><ele>676.0</ele><time>2026-04-25T08:11:04.934Z</time></trkpt><trkpt lat="42.259644003389596" lon="-0.08833334156013944"><ele>680.0</ele><time>2026-04-25T08:11:06.934Z</time></trkpt><trkpt lat="42.259555916102315" lon="-0.08843838481223398"><ele>684.0</ele><time>2026-04-25T08:11:08.934Z</time></trkpt><trkpt lat="42.259474876816334" lon="-0.0884690642207538"><ele>688.0</ele><time>2026-04-25T08:11:10.934Z</time></trkpt><trkpt lat="42.25937725974551" lon="-0.08843674376051226"><ele>692.0</ele><time>2026-04-25T08:11:12.934Z</time></trkpt><trkpt lat="42.25923876682713" lon="-0.0883852297313179"><ele>692.0</ele><time>2026-04-25T08:11:14.934Z</time></trkpt><trkpt lat="42.259154741327535" lon="-0.0883931805497318"><ele>692.0</ele><time>2026-04-25T08:11:15.934Z</time></trkpt><trkpt lat="42.259086738887774" lon="-0.08842072679206942"><ele>692.0</ele><time>2026-04-25T08:11:16.934Z</time></trkpt><trkpt lat="42.259007786638385" lon="-0.08846963816009433"><ele>692.0</ele><time>2026-04-25T08:11:17.934Z</time></trkpt><trkpt lat="42.258930348205865" lon="-0.08851459929696447"><ele>692.0</ele><time>2026-04-25T08:11:18.934Z</time></trkpt><trkpt lat="42.25886138760977" lon="-0.08855686021856361"><ele>692.0</ele><time>2026-04-25T08:11:19.934Z</time></trkpt><trkpt lat="42.25877901321486" lon="-0.08858815298790111"><ele>690.8333333333333</ele><time>2026-04-25T08:11:20.934Z</time></trkpt><trkpt lat="42.2586958301485" lon="-0.08861117640189382"><ele>689.6666666666666</ele><time>2026-04-25T08:11:21.934Z</time></trkpt><trkpt lat="42.25861983861597" lon="-0.08862974161667322"><ele>688.5</ele><time>2026-04-25T08:11:22.934Z</time></trkpt><trkpt lat="42.25854756232024" lon="-0.08866253337672514"><ele>687.3333333333334</ele><time>2026-04-25T08:11:23.934Z</time></trkpt><trkpt lat="42.25847897921098" lon="-0.08870197336798574"><ele>686.1666666666667</ele><time>2026-04-25T08:11:24.934Z</time></trkpt><trkpt lat="42.258391887558005" lon="-0.0887510637162518"><ele>685.0</ele><time>2026-04-25T08:11:26.934Z</time></trkpt><trkpt lat="42.258293137818924" lon="-0.08881851586502094"><ele>685.0</ele><time>2026-04-25T08:11:41.934Z</time></trkpt><trkpt lat="42.258191869036985" lon="-0.08886820677154922"><ele>685.0</ele><time>2026-04-25T08:11:43.934Z</time></trkpt><trkpt lat="42.25810211415579" lon="-0.08890742424827268"><ele>685.0</ele><time>2026-04-25T08:11:45.934Z</time></trkpt><trkpt lat="42.25805094238394" lon="-0.08898741386218842"><ele>685.0</ele><time>2026-04-25T08:11:47.934Z</time></trkpt><trkpt lat="42.258036095156704" lon="-0.08912955346324174"><ele>685.0</ele><time>2026-04-25T08:11:49.934Z</time></trkpt><trkpt lat="42.25797693069313" lon="-0.08927499770588297"><ele>686.1666666666667</ele><time>2026-04-25T08:11:51.933Z</time></trkpt><trkpt lat="42.2579179021183" lon="-0.08932610419663498"><ele>687.3333333333334</ele><time>2026-04-25T08:11:52.933Z</time></trkpt><trkpt lat="42.25784796862065" lon="-0.08936263978131866"><ele>688.5</ele><time>2026-04-25T08:11:53.933Z</time></trkpt><trkpt lat="42.25777591597707" lon="-0.08937813637432827"><ele>689.6666666666666</ele><time>2026-04-25T08:11:54.933Z</time></trkpt><trkpt lat="42.257694688927515" lon="-0.08937459916657221"><ele>690.8333333333333</ele><time>2026-04-25T08:11:55.933Z</time></trkpt><trkpt lat="42.25761411174353" lon="-0.08936708564535482"><ele>692.0</ele><time>2026-04-25T08:11:56.933Z</time></trkpt><trkpt lat="42.257527563979856" lon="-0.08936866412265124"><ele>692.0</ele><time>2026-04-25T08:11:57.933Z</time></trkpt><trkpt lat="42.257439776953966" lon="-0.08936346472775647"><ele>692.0</ele><time>2026-04-25T08:11:58.933Z</time></trkpt><trkpt lat="42.25734282964721" lon="-0.08935105519603612"><ele>692.0</ele><time>2026-04-25T08:11:59.933Z</time></trkpt><trkpt lat="42.25725268308763" lon="-0.08933111831564834"><ele>692.0</ele><time>2026-04-25T08:12:00.933Z</time></trkpt><trkpt lat="42.25716456566677" lon="-0.08930388149991389"><ele>692.0</ele><time>2026-04-25T08:12:01.933Z</time></trkpt><trkpt lat="42.257072596565806" lon="-0.08926776930219617"><ele>692.2</ele><time>2026-04-25T08:12:02.933Z</time></trkpt><trkpt lat="42.25697281149404" lon="-0.0892295999782302"><ele>692.4000000000001</ele><time>2026-04-25T08:12:03.933Z</time></trkpt><trkpt lat="42.25686243308521" lon="-0.0892001319195761"><ele>692.5999999999999</ele><time>2026-04-25T08:12:04.933Z</time></trkpt><trkpt lat="42.25674601765393" lon="-0.08916798021619105"><ele>692.8</ele><time>2026-04-25T08:12:05.933Z</time></trkpt><trkpt lat="42.25664342756097" lon="-0.08913045549405385"><ele>693.0</ele><time>2026-04-25T08:12:06.933Z</time></trkpt><trkpt lat="42.25655160919229" lon="-0.08909673062289485"><ele>690.8</ele><time>2026-04-25T08:12:07.933Z</time></trkpt><trkpt lat="42.25646806145377" lon="-0.08906691269251267"><ele>688.5999999999999</ele><time>2026-04-25T08:12:08.933Z</time></trkpt><trkpt lat="42.25637527455967" lon="-0.0890509791191813"><ele>686.4000000000001</ele><time>2026-04-25T08:12:09.933Z</time></trkpt><trkpt lat="42.25628135710524" lon="-0.08903353427840073"><ele>684.2</ele><time>2026-04-25T08:12:10.933Z</time></trkpt><trkpt lat="42.256181367093696" lon="-0.08899357688285572"><ele>682.0</ele><time>2026-04-25T08:12:11.933Z</time></trkpt><trkpt lat="42.25608782363456" lon="-0.08892723364288901"><ele>682.0</ele><time>2026-04-25T08:12:12.933Z</time></trkpt><trkpt lat="42.256005870502264" lon="-0.08887510406644596"><ele>682.0</ele><time>2026-04-25T08:12:13.933Z</time></trkpt><trkpt lat="42.255942868936856" lon="-0.08883697080728033"><ele>682.0</ele><time>2026-04-25T08:12:14.933Z</time></trkpt><trkpt lat="42.25585968397367" lon="-0.08884724692818892"><ele>682.0</ele><time>2026-04-25T08:12:16.933Z</time></trkpt><trkpt lat="42.25579178121049" lon="-0.08892687462553628"><ele>682.0</ele><time>2026-04-25T08:12:18.933Z</time></trkpt><trkpt lat="42.25574726143011" lon="-0.08900173118146108"><ele>682.0</ele><time>2026-04-25T08:12:19.933Z</time></trkpt><trkpt lat="42.25569758333361" lon="-0.08909448504279013"><ele>681.6</ele><time>2026-04-25T08:12:20.933Z</time></trkpt><trkpt lat="42.25565076536412" lon="-0.08920966965087189"><ele>681.2</ele><time>2026-04-25T08:12:21.933Z</time></trkpt><trkpt lat="42.2555974230337" lon="-0.08933300613828296"><ele>680.8</ele><time>2026-04-25T08:12:22.933Z</time></trkpt><trkpt lat="42.255541530846884" lon="-0.08944840236770692"><ele>680.4</ele><time>2026-04-25T08:12:23.933Z</time></trkpt><trkpt lat="42.255493138753245" lon="-0.08955230355285795"><ele>680.0</ele><time>2026-04-25T08:12:24.933Z</time></trkpt><trkpt lat="42.25544641380856" lon="-0.08962732942216184"><ele>680.0</ele><time>2026-04-25T08:12:25.933Z</time></trkpt><trkpt lat="42.255390148893596" lon="-0.08967356050020554"><ele>680.0</ele><time>2026-04-25T08:12:26.933Z</time></trkpt><trkpt lat="42.25532049356585" lon="-0.08969864800413901"><ele>680.0</ele><time>2026-04-25T08:12:27.933Z</time></trkpt><trkpt lat="42.255235110250375" lon="-0.08971710915156875"><ele>680.0</ele><time>2026-04-25T08:12:28.933Z</time></trkpt><trkpt lat="42.255139516947395" lon="-0.0897416691249553"><ele>680.0</ele><time>2026-04-25T08:12:29.933Z</time></trkpt><trkpt lat="42.255035168827455" lon="-0.08977809364526891"><ele>680.0</ele><time>2026-04-25T08:12:30.933Z</time></trkpt><trkpt lat="42.25493100070366" lon="-0.0898007514715929"><ele>680.0</ele><time>2026-04-25T08:12:31.933Z</time></trkpt><trkpt lat="42.2548422402485" lon="-0.08982811458437688"><ele>680.0</ele><time>2026-04-25T08:12:32.933Z</time></trkpt><trkpt lat="42.254774015234126" lon="-0.08985255314162317"><ele>680.0</ele><time>2026-04-25T08:12:33.933Z</time></trkpt><trkpt lat="42.25465255351211" lon="-0.0899000509868354"><ele>680.0</ele><time>2026-04-25T08:12:35.933Z</time></trkpt><trkpt lat="42.2545795231413" lon="-0.08990748595843963"><ele>680.0</ele><time>2026-04-25T08:12:36.933Z</time></trkpt><trkpt lat="42.25450574654733" lon="-0.08989940615736086"><ele>680.0</ele><time>2026-04-25T08:12:37.933Z</time></trkpt><trkpt lat="42.25442651831899" lon="-0.08989873653576536"><ele>679.2</ele><time>2026-04-25T08:12:38.933Z</time></trkpt><trkpt lat="42.25436120494967" lon="-0.08990364396787062"><ele>678.4</ele><time>2026-04-25T08:12:39.933Z</time></trkpt><trkpt lat="42.25424810826113" lon="-0.0899367282151805"><ele>677.5999999999999</ele><time>2026-04-25T08:12:41.933Z</time></trkpt><trkpt lat="42.25412759469101" lon="-0.08995988775013483"><ele>676.8</ele><time>2026-04-25T08:12:43.933Z</time></trkpt><trkpt lat="42.254056164897996" lon="-0.09000353248859558"><ele>676.0</ele><time>2026-04-25T08:12:44.933Z</time></trkpt><trkpt lat="42.25398454062221" lon="-0.09003808911141768"><ele>677.0</ele><time>2026-04-25T08:12:45.933Z</time></trkpt><trkpt lat="42.25390987534454" lon="-0.0900514317109012"><ele>678.0</ele><time>2026-04-25T08:12:46.933Z</time></trkpt><trkpt lat="42.25384070274337" lon="-0.09003772976450362"><ele>679.0</ele><time>2026-04-25T08:12:47.933Z</time></trkpt><trkpt lat="42.25377081802468" lon="-0.09003279322492821"><ele>680.0</ele><time>2026-04-25T08:12:48.933Z</time></trkpt><trkpt lat="42.25369938776816" lon="-0.0900392489395963"><ele>681.0</ele><time>2026-04-25T08:12:49.933Z</time></trkpt><trkpt lat="42.253623681978425" lon="-0.09006041703665517"><ele>682.0</ele><time>2026-04-25T08:12:50.932Z</time></trkpt><trkpt lat="42.25354570213903" lon="-0.09009104940422094"><ele>683.0</ele><time>2026-04-25T08:12:51.932Z</time></trkpt><trkpt lat="42.25347477593698" lon="-0.09011652168962656"><ele>683.0</ele><time>2026-04-25T08:12:52.932Z</time></trkpt><trkpt lat="42.25340688834301" lon="-0.09013235660272757"><ele>683.0</ele><time>2026-04-25T08:12:53.932Z</time></trkpt><trkpt lat="42.2532979293496" lon="-0.09015621481843729"><ele>683.0</ele><time>2026-04-25T08:12:55.932Z</time></trkpt><trkpt lat="42.253218926607175" lon="-0.09024036025229994"><ele>683.0</ele><time>2026-04-25T08:12:57.931Z</time></trkpt><trkpt lat="42.253207453560115" lon="-0.09036893012956562"><ele>683.0</ele><time>2026-04-25T08:12:59.932Z</time></trkpt><trkpt lat="42.25324093338583" lon="-0.09048026810962456"><ele>683.0</ele><time>2026-04-25T08:13:01.931Z</time></trkpt><trkpt lat="42.253206133900214" lon="-0.09064608786608917"><ele>683.0</ele><time>2026-04-25T08:13:03.932Z</time></trkpt><trkpt lat="42.25316284678774" lon="-0.09073872958873778"><ele>683.0</ele><time>2026-04-25T08:13:04.932Z</time></trkpt><trkpt lat="42.25313046726327" lon="-0.09081798556167689"><ele>683.0</ele><time>2026-04-25T08:13:05.931Z</time></trkpt><trkpt lat="42.2531007717186" lon="-0.09095386158808949"><ele>683.0</ele><time>2026-04-25T08:13:07.931Z</time></trkpt><trkpt lat="42.25307460969239" lon="-0.09111181661326752"><ele>681.8333333333333</ele><time>2026-04-25T08:13:09.931Z</time></trkpt><trkpt lat="42.253028020482034" lon="-0.09118853378455163"><ele>680.6666666666666</ele><time>2026-04-25T08:13:10.931Z</time></trkpt><trkpt lat="42.252957462644886" lon="-0.0912675916844738"><ele>679.5</ele><time>2026-04-25T08:13:11.931Z</time></trkpt><trkpt lat="42.25287565374542" lon="-0.09133031508221694"><ele>678.3333333333334</ele><time>2026-04-25T08:13:12.931Z</time></trkpt><trkpt lat="42.252796771612196" lon="-0.09136225813240506"><ele>677.1666666666667</ele><time>2026-04-25T08:13:13.931Z</time></trkpt><trkpt lat="42.252731637333014" lon="-0.09136871851663815"><ele>676.0</ele><time>2026-04-25T08:13:14.931Z</time></trkpt><trkpt lat="42.25266056131313" lon="-0.09136012196909879"><ele>676.0</ele><time>2026-04-25T08:13:15.931Z</time></trkpt><trkpt lat="42.25257757287495" lon="-0.09132997884854543"><ele>676.0</ele><time>2026-04-25T08:13:16.931Z</time></trkpt><trkpt lat="42.2524716528145" lon="-0.09128829537268142"><ele>676.0</ele><time>2026-04-25T08:13:17.931Z</time></trkpt><trkpt lat="42.2523782946832" lon="-0.09124910742947746"><ele>676.0</ele><time>2026-04-25T08:13:18.931Z</time></trkpt><trkpt lat="42.252297575949605" lon="-0.09121733904744846"><ele>676.0</ele><time>2026-04-25T08:13:19.931Z</time></trkpt><trkpt lat="42.25223146414111" lon="-0.09119540467924432"><ele>676.0</ele><time>2026-04-25T08:13:20.931Z</time></trkpt><trkpt lat="42.2521580325137" lon="-0.09119039228471724"><ele>676.0</ele><time>2026-04-25T08:13:21.931Z</time></trkpt><trkpt lat="42.25208333773163" lon="-0.09118477791894217"><ele>676.0</ele><time>2026-04-25T08:13:22.931Z</time></trkpt><trkpt lat="42.25201749431565" lon="-0.09116998250586228"><ele>676.0</ele><time>2026-04-25T08:13:23.931Z</time></trkpt><trkpt lat="42.251953612461406" lon="-0.09113848024899993"><ele>676.0</ele><time>2026-04-25T08:13:24.931Z</time></trkpt><trkpt lat="42.25188901918091" lon="-0.09109055422816686"><ele>676.0</ele><time>2026-04-25T08:13:25.931Z</time></trkpt><trkpt lat="42.25182147871917" lon="-0.09102708693541067"><ele>676.0</ele><time>2026-04-25T08:13:26.931Z</time></trkpt><trkpt lat="42.25174969872712" lon="-0.09096455381793347"><ele>676.0</ele><time>2026-04-25T08:13:27.931Z</time></trkpt><trkpt lat="42.25167072390461" lon="-0.09090364604165209"><ele>676.0</ele><time>2026-04-25T08:13:28.931Z</time></trkpt><trkpt lat="42.25159808917821" lon="-0.09085195066263949"><ele>676.0</ele><time>2026-04-25T08:13:29.931Z</time></trkpt><trkpt lat="42.25152278139555" lon="-0.09081299230454126"><ele>676.0</ele><time>2026-04-25T08:13:30.931Z</time></trkpt><trkpt lat="42.25145088530418" lon="-0.09079849357803432"><ele>676.0</ele><time>2026-04-25T08:13:31.931Z</time></trkpt><trkpt lat="42.2513712121907" lon="-0.09079728745446454"><ele>676.0</ele><time>2026-04-25T08:13:32.931Z</time></trkpt><trkpt lat="42.25127021096237" lon="-0.09078890318924814"><ele>675.4</ele><time>2026-04-25T08:13:33.931Z</time></trkpt><trkpt lat="42.251159389156996" lon="-0.0907742522735066"><ele>674.8</ele><time>2026-04-25T08:13:34.931Z</time></trkpt><trkpt lat="42.25104882258997" lon="-0.09075689851250296"><ele>674.1999999999999</ele><time>2026-04-25T08:13:35.931Z</time></trkpt><trkpt lat="42.250952498241226" lon="-0.0907413195540213"><ele>673.5999999999999</ele><time>2026-04-25T08:13:36.931Z</time></trkpt><trkpt lat="42.25087471172112" lon="-0.09072859172687854"><ele>673.0</ele><time>2026-04-25T08:13:37.931Z</time></trkpt><trkpt lat="42.25080583795787" lon="-0.090731274248322"><ele>673.0</ele><time>2026-04-25T08:13:38.931Z</time></trkpt><trkpt lat="42.25073814679248" lon="-0.09075698041638176"><ele>673.0</ele><time>2026-04-25T08:13:39.931Z</time></trkpt><trkpt lat="42.250665687615076" lon="-0.0907964771356075"><ele>673.0</ele><time>2026-04-25T08:13:40.931Z</time></trkpt><trkpt lat="42.250602971082664" lon="-0.09085060056357228"><ele>673.0</ele><time>2026-04-25T08:13:41.931Z</time></trkpt><trkpt lat="42.250543529300664" lon="-0.09092773889375343"><ele>673.0</ele><time>2026-04-25T08:13:42.931Z</time></trkpt><trkpt lat="42.25048519289159" lon="-0.091006738024843"><ele>673.0</ele><time>2026-04-25T08:13:43.931Z</time></trkpt><trkpt lat="42.25041835921376" lon="-0.09107868761711208"><ele>671.8</ele><time>2026-04-25T08:13:44.931Z</time></trkpt><trkpt lat="42.250332509951114" lon="-0.09112361190236501"><ele>670.5999999999999</ele><time>2026-04-25T08:13:45.931Z</time></trkpt><trkpt lat="42.25023552996107" lon="-0.09113105020266848"><ele>669.4000000000001</ele><time>2026-04-25T08:13:46.931Z</time></trkpt><trkpt lat="42.250156384195364" lon="-0.09112832983853175"><ele>668.2</ele><time>2026-04-25T08:13:47.931Z</time></trkpt><trkpt lat="42.25005536707091" lon="-0.09106836712424196"><ele>667.0</ele><time>2026-04-25T08:13:49.931Z</time></trkpt><trkpt lat="42.24997560976493" lon="-0.09094173125802495"><ele>667.0</ele><time>2026-04-25T08:13:51.931Z</time></trkpt><trkpt lat="42.24993648591498" lon="-0.0908597698826439"><ele>667.0</ele><time>2026-04-25T08:13:52.931Z</time></trkpt><trkpt lat="42.24990122081968" lon="-0.09077020622963407"><ele>667.0</ele><time>2026-04-25T08:13:53.931Z</time></trkpt><trkpt lat="42.24987119027912" lon="-0.09068543744640258"><ele>667.0</ele><time>2026-04-25T08:13:54.931Z</time></trkpt><trkpt lat="42.24981854008037" lon="-0.0905639350026942"><ele>667.0</ele><time>2026-04-25T08:13:56.931Z</time></trkpt><trkpt lat="42.2497475320286" lon="-0.09049001199894532"><ele>667.0</ele><time>2026-04-25T08:13:58.931Z</time></trkpt><trkpt lat="42.24963254444431" lon="-0.09046447149444296"><ele>663.8</ele><time>2026-04-25T08:14:00.93Z</time></trkpt><trkpt lat="42.24955926575253" lon="-0.0904766407571901"><ele>660.6</ele><time>2026-04-25T08:14:01.93Z</time></trkpt><trkpt lat="42.24947576210363" lon="-0.09050517355509419"><ele>657.4</ele><time>2026-04-25T08:14:02.93Z</time></trkpt><trkpt lat="42.24937451991216" lon="-0.09054459043766161"><ele>654.1999999999999</ele><time>2026-04-25T08:14:03.93Z</time></trkpt><trkpt lat="42.24925981409124" lon="-0.09059498929664545"><ele>651.0</ele><time>2026-04-25T08:14:04.93Z</time></trkpt><trkpt lat="42.2491569647808" lon="-0.0906530053004131"><ele>651.0</ele><time>2026-04-25T08:14:05.93Z</time></trkpt><trkpt lat="42.249070748235496" lon="-0.09071532621965292"><ele>651.0</ele><time>2026-04-25T08:14:06.93Z</time></trkpt><trkpt lat="42.24899614504633" lon="-0.0907548178193438"><ele>651.0</ele><time>2026-04-25T08:14:07.93Z</time></trkpt><trkpt lat="42.24893687021425" lon="-0.09078483159333771"><ele>651.0</ele><time>2026-04-25T08:14:08.93Z</time></trkpt><trkpt lat="42.24887341810264" lon="-0.09080073475843829"><ele>651.0</ele><time>2026-04-25T08:14:09.93Z</time></trkpt><trkpt lat="42.24876342510743" lon="-0.09075274283384573"><ele>651.0</ele><time>2026-04-25T08:14:11.93Z</time></trkpt><trkpt lat="42.24871600622638" lon="-0.09067811119869285"><ele>651.1666666666666</ele><time>2026-04-25T08:14:12.93Z</time></trkpt><trkpt lat="42.24868792279553" lon="-0.0905976598326081"><ele>651.3333333333334</ele><time>2026-04-25T08:14:13.93Z</time></trkpt><trkpt lat="42.248664498265654" lon="-0.090508060459075"><ele>651.5</ele><time>2026-04-25T08:14:15.93Z</time></trkpt><trkpt lat="42.24860409353642" lon="-0.0904161419388271"><ele>651.6666666666667</ele><time>2026-04-25T08:14:24.93Z</time></trkpt><trkpt lat="42.24854225549654" lon="-0.09038158510266682"><ele>651.8333333333334</ele><time>2026-04-25T08:14:27.93Z</time></trkpt><trkpt lat="42.248483324235394" lon="-0.09033073898048943"><ele>652.0</ele><time>2026-04-25T08:14:30.93Z</time></trkpt><trkpt lat="42.248391153778734" lon="-0.09025009347442886"><ele>652.0</ele><time>2026-04-25T08:14:32.93Z</time></trkpt><trkpt lat="42.24831815084956" lon="-0.09021803815709975"><ele>652.0</ele><time>2026-04-25T08:14:33.93Z</time></trkpt><trkpt lat="42.24825002243872" lon="-0.09019383971219308"><ele>652.0</ele><time>2026-04-25T08:14:34.93Z</time></trkpt><trkpt lat="42.24817327761949" lon="-0.09018026489607964"><ele>652.0</ele><time>2026-04-25T08:14:35.93Z</time></trkpt><trkpt lat="42.24807765055203" lon="-0.09018187512113497"><ele>652.0</ele><time>2026-04-25T08:14:36.93Z</time></trkpt><trkpt lat="42.24798279732324" lon="-0.09019801252186394"><ele>652.0</ele><time>2026-04-25T08:14:37.93Z</time></trkpt><trkpt lat="42.247897028818386" lon="-0.09021132353066919"><ele>652.6666666666667</ele><time>2026-04-25T08:14:38.93Z</time></trkpt><trkpt lat="42.24782185521176" lon="-0.0902205685629154"><ele>653.3333333333334</ele><time>2026-04-25T08:14:39.93Z</time></trkpt><trkpt lat="42.24774578123192" lon="-0.09023027582737528"><ele>654.0</ele><time>2026-04-25T08:14:40.93Z</time></trkpt><trkpt lat="42.2476709726519" lon="-0.09026504531778334"><ele>654.6666666666666</ele><time>2026-04-25T08:14:41.93Z</time></trkpt><trkpt lat="42.24759409501047" lon="-0.09030834743487565"><ele>655.3333333333333</ele><time>2026-04-25T08:14:42.93Z</time></trkpt><trkpt lat="42.247505903386624" lon="-0.09036371857879992"><ele>656.0</ele><time>2026-04-25T08:14:43.93Z</time></trkpt><trkpt lat="42.24741803748644" lon="-0.09042605930760556"><ele>656.0</ele><time>2026-04-25T08:14:44.93Z</time></trkpt><trkpt lat="42.247332521143235" lon="-0.09049202019192183"><ele>656.0</ele><time>2026-04-25T08:14:45.93Z</time></trkpt><trkpt lat="42.24725220936644" lon="-0.09056018592448344"><ele>656.0</ele><time>2026-04-25T08:14:46.93Z</time></trkpt><trkpt lat="42.24718012587175" lon="-0.09062383147212841"><ele>656.0</ele><time>2026-04-25T08:14:47.93Z</time></trkpt><trkpt lat="42.24712108800642" lon="-0.0907006193799177"><ele>656.0</ele><time>2026-04-25T08:14:48.93Z</time></trkpt><trkpt lat="42.247072992573806" lon="-0.09076645820229828"><ele>656.0</ele><time>2026-04-25T08:14:49.93Z</time></trkpt><trkpt lat="42.247033071806904" lon="-0.09083778890895766"><ele>657.0</ele><time>2026-04-25T08:14:50.93Z</time></trkpt><trkpt lat="42.247006748562484" lon="-0.09091836058887902"><ele>658.0</ele><time>2026-04-25T08:14:51.93Z</time></trkpt><trkpt lat="42.24697237906055" lon="-0.09101052308780085"><ele>659.0</ele><time>2026-04-25T08:14:52.93Z</time></trkpt><trkpt lat="42.246931624770944" lon="-0.0911151012185968"><ele>660.0</ele><time>2026-04-25T08:14:53.93Z</time></trkpt><trkpt lat="42.246888818066026" lon="-0.09121440609415275"><ele>661.0</ele><time>2026-04-25T08:14:54.93Z</time></trkpt><trkpt lat="42.24686755689403" lon="-0.0913065305442942"><ele>662.0</ele><time>2026-04-25T08:14:55.93Z</time></trkpt><trkpt lat="42.2468105690868" lon="-0.09141941520569774"><ele>662.0</ele><time>2026-04-25T08:14:57.93Z</time></trkpt><trkpt lat="42.2467421324008" lon="-0.09144033886247488"><ele>662.0</ele><time>2026-04-25T08:14:58.93Z</time></trkpt><trkpt lat="42.246654059078" lon="-0.09145108106849784"><ele>662.0</ele><time>2026-04-25T08:14:59.929Z</time></trkpt><trkpt lat="42.24655604890201" lon="-0.09146240708764032"><ele>662.0</ele><time>2026-04-25T08:15:00.929Z</time></trkpt><trkpt lat="42.246448196905924" lon="-0.09148357551573369"><ele>662.0</ele><time>2026-04-25T08:15:01.929Z</time></trkpt><trkpt lat="42.24634222520882" lon="-0.09151196290206123"><ele>660.6666666666666</ele><time>2026-04-25T08:15:02.929Z</time></trkpt><trkpt lat="42.246246906757506" lon="-0.09154614138301873"><ele>659.3333333333333</ele><time>2026-04-25T08:15:03.929Z</time></trkpt><trkpt lat="42.246158251991375" lon="-0.09158806136944242"><ele>658.0</ele><time>2026-04-25T08:15:04.929Z</time></trkpt><trkpt lat="42.246078101228555" lon="-0.09164918228329672"><ele>656.6666666666666</ele><time>2026-04-25T08:15:05.928Z</time></trkpt><trkpt lat="42.24601340623777" lon="-0.09170686399794746"><ele>655.3333333333334</ele><time>2026-04-25T08:15:06.928Z</time></trkpt><trkpt lat="42.24594717215688" lon="-0.09174831169347268"><ele>654.0</ele><time>2026-04-25T08:15:07.928Z</time></trkpt><trkpt lat="42.24587579303087" lon="-0.09176166949900566"><ele>656.6</ele><time>2026-04-25T08:15:08.928Z</time></trkpt><trkpt lat="42.24580442197963" lon="-0.09173892942767778"><ele>659.2</ele><time>2026-04-25T08:15:09.927Z</time></trkpt><trkpt lat="42.24569592383186" lon="-0.0917064739088223"><ele>661.8000000000001</ele><time>2026-04-25T08:15:11.929Z</time></trkpt><trkpt lat="42.24560017914995" lon="-0.09178920046545215"><ele>664.4000000000001</ele><time>2026-04-25T08:15:13.928Z</time></trkpt><trkpt lat="42.24548032002941" lon="-0.09184093259193764"><ele>667.0</ele><time>2026-04-25T08:15:15.927Z</time></trkpt><trkpt lat="42.245413354396796" lon="-0.09181763888296682"><ele>667.0</ele><time>2026-04-25T08:15:16.927Z</time></trkpt><trkpt lat="42.24533084369208" lon="-0.09178438869929742"><ele>667.0</ele><time>2026-04-25T08:15:17.927Z</time></trkpt><trkpt lat="42.24525280091295" lon="-0.09176668115971687"><ele>667.0</ele><time>2026-04-25T08:15:18.927Z</time></trkpt><trkpt lat="42.24518313115526" lon="-0.09174974326592948"><ele>667.0</ele><time>2026-04-25T08:15:19.927Z</time></trkpt><trkpt lat="42.24511155278386" lon="-0.09170662145990947"><ele>667.0</ele><time>2026-04-25T08:15:20.927Z</time></trkpt><trkpt lat="42.24504674048138" lon="-0.09163519403857137"><ele>667.0</ele><time>2026-04-25T08:15:21.927Z</time></trkpt><trkpt lat="42.24497935602595" lon="-0.09157866596138205"><ele>666.3333333333334</ele><time>2026-04-25T08:15:22.927Z</time></trkpt><trkpt lat="42.24491603554457" lon="-0.09154424683695143"><ele>665.6666666666667</ele><time>2026-04-25T08:15:23.927Z</time></trkpt><trkpt lat="42.24479270581238" lon="-0.09152690211057807"><ele>665.0</ele><time>2026-04-25T08:15:25.927Z</time></trkpt><trkpt lat="42.24472261252648" lon="-0.09154192105701368"><ele>664.3333333333334</ele><time>2026-04-25T08:15:26.927Z</time></trkpt><trkpt lat="42.24464305584853" lon="-0.09157711386873456"><ele>663.6666666666666</ele><time>2026-04-25T08:15:27.927Z</time></trkpt><trkpt lat="42.24456555531275" lon="-0.0916187091353003"><ele>663.0</ele><time>2026-04-25T08:15:28.927Z</time></trkpt><trkpt lat="42.244491352171686" lon="-0.09164445224288295"><ele>663.0</ele><time>2026-04-25T08:15:29.927Z</time></trkpt><trkpt lat="42.24441892386713" lon="-0.09168225720265878"><ele>663.0</ele><time>2026-04-25T08:15:30.927Z</time></trkpt><trkpt lat="42.2443459852292" lon="-0.0917080113063876"><ele>663.0</ele><time>2026-04-25T08:15:31.927Z</time></trkpt><trkpt lat="42.24427466946823" lon="-0.09173025734025185"><ele>663.0</ele><time>2026-04-25T08:15:32.927Z</time></trkpt><trkpt lat="42.244194203245826" lon="-0.09173929471152666"><ele>663.0</ele><time>2026-04-25T08:15:33.927Z</time></trkpt><trkpt lat="42.244122429693775" lon="-0.09176649627141546"><ele>663.0</ele><time>2026-04-25T08:15:34.927Z</time></trkpt><trkpt lat="42.24405171214892" lon="-0.09180089368079586"><ele>662.8333333333334</ele><time>2026-04-25T08:15:35.927Z</time></trkpt><trkpt lat="42.24396039447178" lon="-0.09187140463600535"><ele>662.6666666666666</ele><time>2026-04-25T08:15:37.927Z</time></trkpt><trkpt lat="42.24390160162639" lon="-0.09191263632865389"><ele>662.5</ele><time>2026-04-25T08:15:38.927Z</time></trkpt><trkpt lat="42.24383665914398" lon="-0.09193420053621858"><ele>662.3333333333333</ele><time>2026-04-25T08:15:39.927Z</time></trkpt><trkpt lat="42.243759857345765" lon="-0.09196865947025042"><ele>662.1666666666666</ele><time>2026-04-25T08:15:40.927Z</time></trkpt><trkpt lat="42.243674665991065" lon="-0.09199180663236607"><ele>662.0</ele><time>2026-04-25T08:15:41.927Z</time></trkpt><trkpt lat="42.243578550890746" lon="-0.09201864098049713"><ele>662.0</ele><time>2026-04-25T08:15:42.927Z</time></trkpt><trkpt lat="42.243483741668335" lon="-0.0920524297275471"><ele>662.0</ele><time>2026-04-25T08:15:43.927Z</time></trkpt><trkpt lat="42.24338866775946" lon="-0.09206578552138218"><ele>662.0</ele><time>2026-04-25T08:15:44.927Z</time></trkpt><trkpt lat="42.24329550072858" lon="-0.09206448329524058"><ele>662.0</ele><time>2026-04-25T08:15:45.927Z</time></trkpt><trkpt lat="42.24320464204559" lon="-0.0920559975449405"><ele>662.0</ele><time>2026-04-25T08:15:46.927Z</time></trkpt><trkpt lat="42.2431228050183" lon="-0.09203403542552738"><ele>662.0</ele><time>2026-04-25T08:15:47.927Z</time></trkpt><trkpt lat="42.24306021361643" lon="-0.09201215655050224"><ele>662.0</ele><time>2026-04-25T08:15:48.927Z</time></trkpt><trkpt lat="42.242975490214675" lon="-0.0920276709196365"><ele>662.0</ele><time>2026-04-25T08:15:50.927Z</time></trkpt><trkpt lat="42.24290045138722" lon="-0.09204996672978469"><ele>662.0</ele><time>2026-04-25T08:16:09.926Z</time></trkpt><trkpt lat="42.24278907571234" lon="-0.09204181364822071"><ele>662.0</ele><time>2026-04-25T08:16:11.926Z</time></trkpt><trkpt lat="42.242674361647246" lon="-0.09203074934839267"><ele>662.0</ele><time>2026-04-25T08:16:13.926Z</time></trkpt><trkpt lat="42.242607033554826" lon="-0.09201989067000466"><ele>662.0</ele><time>2026-04-25T08:16:14.926Z</time></trkpt><trkpt lat="42.24253323498094" lon="-0.09201035588571438"><ele>662.0</ele><time>2026-04-25T08:16:15.926Z</time></trkpt><trkpt lat="42.242453277693926" lon="-0.09199744410931819"><ele>662.0</ele><time>2026-04-25T08:16:16.926Z</time></trkpt><trkpt lat="42.242367273043705" lon="-0.09198363624836495"><ele>662.0</ele><time>2026-04-25T08:16:17.926Z</time></trkpt><trkpt lat="42.242277945456124" lon="-0.09196590080216997"><ele>662.0</ele><time>2026-04-25T08:16:18.926Z</time></trkpt><trkpt lat="42.24218968298674" lon="-0.09194923602946481"><ele>662.8333333333333</ele><time>2026-04-25T08:16:19.926Z</time></trkpt><trkpt lat="42.24210438106127" lon="-0.09193279356655662"><ele>663.6666666666666</ele><time>2026-04-25T08:16:20.926Z</time></trkpt><trkpt lat="42.24202621315151" lon="-0.09191790007798253"><ele>664.5</ele><time>2026-04-25T08:16:21.926Z</time></trkpt><trkpt lat="42.24194795316766" lon="-0.0919051436073962"><ele>665.3333333333334</ele><time>2026-04-25T08:16:22.926Z</time></trkpt><trkpt lat="42.24186611098918" lon="-0.09190263003091739"><ele>666.1666666666667</ele><time>2026-04-25T08:16:23.926Z</time></trkpt><trkpt lat="42.241778261801244" lon="-0.09191051717109872"><ele>667.0</ele><time>2026-04-25T08:16:24.926Z</time></trkpt><trkpt lat="42.24168184549455" lon="-0.09190913359669507"><ele>667.0</ele><time>2026-04-25T08:16:25.926Z</time></trkpt><trkpt lat="42.24158476097715" lon="-0.09191518242376491"><ele>667.0</ele><time>2026-04-25T08:16:26.926Z</time></trkpt><trkpt lat="42.2414901951393" lon="-0.09193138892227475"><ele>667.0</ele><time>2026-04-25T08:16:27.926Z</time></trkpt><trkpt lat="42.24139773654444" lon="-0.0919486018880604"><ele>667.0</ele><time>2026-04-25T08:16:28.926Z</time></trkpt><trkpt lat="42.241303424017126" lon="-0.09197107380946379"><ele>667.0</ele><time>2026-04-25T08:16:29.926Z</time></trkpt><trkpt lat="42.24121556695803" lon="-0.09200297142993798"><ele>665.3333333333334</ele><time>2026-04-25T08:16:30.926Z</time></trkpt><trkpt lat="42.24114027108429" lon="-0.09203993247114675"><ele>663.6666666666667</ele><time>2026-04-25T08:16:31.926Z</time></trkpt><trkpt lat="42.24107701225461" lon="-0.09207942648167813"><ele>662.0</ele><time>2026-04-25T08:16:32.926Z</time></trkpt><trkpt lat="42.24101309140897" lon="-0.0921186118557789"><ele>660.3333333333334</ele><time>2026-04-25T08:16:33.926Z</time></trkpt><trkpt lat="42.240944970791624" lon="-0.09216187067869254"><ele>658.6666666666666</ele><time>2026-04-25T08:16:34.926Z</time></trkpt><trkpt lat="42.24088072031563" lon="-0.09221254256744003"><ele>657.0</ele><time>2026-04-25T08:16:35.926Z</time></trkpt><trkpt lat="42.24081366919023" lon="-0.09227566649590646"><ele>657.0</ele><time>2026-04-25T08:16:36.926Z</time></trkpt><trkpt lat="42.24074147497698" lon="-0.09234464890483544"><ele>657.0</ele><time>2026-04-25T08:16:37.926Z</time></trkpt><trkpt lat="42.24066683386927" lon="-0.09240438415741897"><ele>657.0</ele><time>2026-04-25T08:16:38.926Z</time></trkpt><trkpt lat="42.240587858608976" lon="-0.0924607068487549"><ele>657.0</ele><time>2026-04-25T08:16:39.926Z</time></trkpt><trkpt lat="42.240511605406894" lon="-0.09251472225765553"><ele>657.0</ele><time>2026-04-25T08:16:40.926Z</time></trkpt><trkpt lat="42.2404280310185" lon="-0.09255502578979273"><ele>657.0</ele><time>2026-04-25T08:16:41.926Z</time></trkpt><trkpt lat="42.24034284593608" lon="-0.09257455705581265"><ele>660.0</ele><time>2026-04-25T08:16:42.926Z</time></trkpt><trkpt lat="42.24025647902769" lon="-0.09259113312971863"><ele>663.0</ele><time>2026-04-25T08:16:43.926Z</time></trkpt><trkpt lat="42.24016481316501" lon="-0.09259619205483331"><ele>666.0</ele><time>2026-04-25T08:16:44.926Z</time></trkpt><trkpt lat="42.24007268131427" lon="-0.0925969778226865"><ele>669.0</ele><time>2026-04-25T08:16:45.926Z</time></trkpt><trkpt lat="42.239980587066555" lon="-0.09259078982932253"><ele>672.0</ele><time>2026-04-25T08:16:46.926Z</time></trkpt><trkpt lat="42.23990091652428" lon="-0.09257725706074445"><ele>675.0</ele><time>2026-04-25T08:16:47.926Z</time></trkpt><trkpt lat="42.23983148559164" lon="-0.09256089303036868"><ele>674.3333333333334</ele><time>2026-04-25T08:16:48.926Z</time></trkpt><trkpt lat="42.239765977258415" lon="-0.09254479207447959"><ele>673.6666666666666</ele><time>2026-04-25T08:16:49.926Z</time></trkpt><trkpt lat="42.239646276420146" lon="-0.09248395045500367"><ele>673.0</ele><time>2026-04-25T08:16:51.926Z</time></trkpt><trkpt lat="42.23958448757051" lon="-0.09244370414789838"><ele>672.3333333333333</ele><time>2026-04-25T08:16:52.926Z</time></trkpt><trkpt lat="42.239528771989406" lon="-0.09239958995263622"><ele>671.6666666666666</ele><time>2026-04-25T08:16:53.926Z</time></trkpt><trkpt lat="42.239423524825284" lon="-0.09235059497058581"><ele>671.0</ele><time>2026-04-25T08:16:55.926Z</time></trkpt><trkpt lat="42.239347000334014" lon="-0.09238086747931902"><ele>671.0</ele><time>2026-04-25T08:16:57.926Z</time></trkpt><trkpt lat="42.239325783635195" lon="-0.09247502569767643"><ele>671.0</ele><time>2026-04-25T08:16:59.926Z</time></trkpt><trkpt lat="42.239367620149885" lon="-0.09259981997593891"><ele>671.0</ele><time>2026-04-25T08:17:01.926Z</time></trkpt><trkpt lat="42.23943673781173" lon="-0.0927110263459071"><ele>671.0</ele><time>2026-04-25T08:17:03.925Z</time></trkpt><trkpt lat="42.23950901470622" lon="-0.09282973099463594"><ele>671.0</ele><time>2026-04-25T08:17:05.925Z</time></trkpt><trkpt lat="42.23956135236398" lon="-0.09290091854086516"><ele>671.0</ele><time>2026-04-25T08:17:06.925Z</time></trkpt><trkpt lat="42.23961975609495" lon="-0.09298643639529128"><ele>671.0</ele><time>2026-04-25T08:17:07.925Z</time></trkpt><trkpt lat="42.23967945765363" lon="-0.09306844069665958"><ele>671.0</ele><time>2026-04-25T08:17:08.926Z</time></trkpt><trkpt lat="42.23973503054368" lon="-0.09313692148943391"><ele>671.0</ele><time>2026-04-25T08:17:09.925Z</time></trkpt><trkpt lat="42.23979735248544" lon="-0.09324117307106025"><ele>671.0</ele><time>2026-04-25T08:17:11.925Z</time></trkpt><trkpt lat="42.23983175064371" lon="-0.0933726314938445"><ele>671.0</ele><time>2026-04-25T08:17:13.925Z</time></trkpt><trkpt lat="42.23984975440703" lon="-0.09345571100224148"><ele>670.5999999999999</ele><time>2026-04-25T08:17:15.925Z</time></trkpt><trkpt lat="42.23983030077552" lon="-0.0935807260036566"><ele>670.2</ele><time>2026-04-25T08:17:18.924Z</time></trkpt><trkpt lat="42.23977031595848" lon="-0.0936180993858414"><ele>669.8</ele><time>2026-04-25T08:17:20.925Z</time></trkpt><trkpt lat="42.23967922582369" lon="-0.09358643826825035"><ele>669.4000000000001</ele><time>2026-04-25T08:17:22.925Z</time></trkpt><trkpt lat="42.239558332910434" lon="-0.09352343676764231"><ele>669.0</ele><time>2026-04-25T08:17:24.925Z</time></trkpt><trkpt lat="42.23948562253337" lon="-0.09349536966641343"><ele>669.0</ele><time>2026-04-25T08:17:25.925Z</time></trkpt><trkpt lat="42.23940275770954" lon="-0.093476310715426"><ele>669.0</ele><time>2026-04-25T08:17:26.925Z</time></trkpt><trkpt lat="42.23931833080392" lon="-0.09345987967091493"><ele>669.0</ele><time>2026-04-25T08:17:27.925Z</time></trkpt><trkpt lat="42.23921208990395" lon="-0.09343853512433949"><ele>669.0</ele><time>2026-04-25T08:17:28.925Z</time></trkpt><trkpt lat="42.23911430912023" lon="-0.09342272523285981"><ele>669.0</ele><time>2026-04-25T08:17:29.925Z</time></trkpt><trkpt lat="42.23902174743758" lon="-0.093407043884183"><ele>671.0</ele><time>2026-04-25T08:17:30.925Z</time></trkpt><trkpt lat="42.23893136905439" lon="-0.0933833943985724"><ele>673.0</ele><time>2026-04-25T08:17:31.925Z</time></trkpt><trkpt lat="42.23884714684769" lon="-0.09336698286624179"><ele>675.0</ele><time>2026-04-25T08:17:32.925Z</time></trkpt><trkpt lat="42.23875784516285" lon="-0.09333674290804118"><ele>677.0</ele><time>2026-04-25T08:17:33.925Z</time></trkpt><trkpt lat="42.23866872376345" lon="-0.09330329405946937"><ele>679.0</ele><time>2026-04-25T08:17:34.925Z</time></trkpt><trkpt lat="42.23858464203098" lon="-0.09326723119515866"><ele>676.2</ele><time>2026-04-25T08:17:35.925Z</time></trkpt><trkpt lat="42.23849738547036" lon="-0.09320960005444008"><ele>673.4000000000001</ele><time>2026-04-25T08:17:36.925Z</time></trkpt><trkpt lat="42.23841136064512" lon="-0.09313939628340101"><ele>670.6</ele><time>2026-04-25T08:17:37.925Z</time></trkpt><trkpt lat="42.23832340938793" lon="-0.09307052345180748"><ele>667.8</ele><time>2026-04-25T08:17:38.925Z</time></trkpt><trkpt lat="42.23823762453059" lon="-0.09301934367307038"><ele>665.0</ele><time>2026-04-25T08:17:39.925Z</time></trkpt><trkpt lat="42.23815835135427" lon="-0.09297086203122074"><ele>668.8333333333333</ele><time>2026-04-25T08:17:40.925Z</time></trkpt><trkpt lat="42.23808282802112" lon="-0.09293311483562403"><ele>672.6666666666666</ele><time>2026-04-25T08:17:41.925Z</time></trkpt><trkpt lat="42.2380103951942" lon="-0.09290739242040379"><ele>676.5</ele><time>2026-04-25T08:17:42.925Z</time></trkpt><trkpt lat="42.23794316928863" lon="-0.09287807018828984"><ele>680.3333333333334</ele><time>2026-04-25T08:17:43.925Z</time></trkpt><trkpt lat="42.237858058607856" lon="-0.09279241187229685"><ele>684.1666666666667</ele><time>2026-04-25T08:17:45.925Z</time></trkpt><trkpt lat="42.23782048422121" lon="-0.0926927348724246"><ele>688.0</ele><time>2026-04-25T08:17:46.925Z</time></trkpt><trkpt lat="42.23780529608998" lon="-0.09259344145650736"><ele>688.0</ele><time>2026-04-25T08:17:47.925Z</time></trkpt><trkpt lat="42.23776103263345" lon="-0.09249812774748688"><ele>688.0</ele><time>2026-04-25T08:17:48.925Z</time></trkpt><trkpt lat="42.237696480304585" lon="-0.09241703626595714"><ele>688.0</ele><time>2026-04-25T08:17:49.925Z</time></trkpt><trkpt lat="42.23762613104594" lon="-0.09234805826200967"><ele>688.0</ele><time>2026-04-25T08:17:50.925Z</time></trkpt><trkpt lat="42.23756358862203" lon="-0.09226391606039373"><ele>688.0</ele><time>2026-04-25T08:17:51.925Z</time></trkpt><trkpt lat="42.237514565424" lon="-0.09216008349423153"><ele>688.0</ele><time>2026-04-25T08:17:52.925Z</time></trkpt><trkpt lat="42.23748626300035" lon="-0.0920430726950372"><ele>686.0</ele><time>2026-04-25T08:17:53.925Z</time></trkpt><trkpt lat="42.23745562073683" lon="-0.09193585276578907"><ele>684.0</ele><time>2026-04-25T08:17:54.925Z</time></trkpt><trkpt lat="42.23741832303638" lon="-0.09183193504547277"><ele>682.0</ele><time>2026-04-25T08:17:55.925Z</time></trkpt><trkpt lat="42.23736756538317" lon="-0.09171523886604953"><ele>680.0</ele><time>2026-04-25T08:17:56.925Z</time></trkpt><trkpt lat="42.23731044708775" lon="-0.09162404560231584"><ele>678.0</ele><time>2026-04-25T08:17:57.925Z</time></trkpt><trkpt lat="42.23723920479592" lon="-0.09155613372155964"><ele>676.0</ele><time>2026-04-25T08:17:58.925Z</time></trkpt><trkpt lat="42.23717539900391" lon="-0.09150649507850209"><ele>676.0</ele><time>2026-04-25T08:17:59.925Z</time></trkpt><trkpt lat="42.23711868366694" lon="-0.0914601746035292"><ele>676.0</ele><time>2026-04-25T08:18:00.925Z</time></trkpt><trkpt lat="42.23705084199679" lon="-0.0914140110536159"><ele>676.0</ele><time>2026-04-25T08:18:01.925Z</time></trkpt><trkpt lat="42.2369778286956" lon="-0.09138327533442571"><ele>676.0</ele><time>2026-04-25T08:18:02.925Z</time></trkpt><trkpt lat="42.23689096391784" lon="-0.09135986370440442"><ele>676.0</ele><time>2026-04-25T08:18:03.925Z</time></trkpt><trkpt lat="42.23679910903593" lon="-0.09134432435050674"><ele>676.0</ele><time>2026-04-25T08:18:04.925Z</time></trkpt><trkpt lat="42.23670222613664" lon="-0.09132920830337249"><ele>676.0</ele><time>2026-04-25T08:18:05.925Z</time></trkpt><trkpt lat="42.236608258097654" lon="-0.09132630808678545"><ele>676.0</ele><time>2026-04-25T08:18:06.925Z</time></trkpt><trkpt lat="42.23652625763332" lon="-0.0913323510352053"><ele>676.0</ele><time>2026-04-25T08:18:07.925Z</time></trkpt><trkpt lat="42.236435149364056" lon="-0.09132510613582194"><ele>676.0</ele><time>2026-04-25T08:18:08.925Z</time></trkpt><trkpt lat="42.236333840581715" lon="-0.09130505448861312"><ele>676.0</ele><time>2026-04-25T08:18:09.925Z</time></trkpt><trkpt lat="42.23622624752026" lon="-0.09127947691118928"><ele>677.5999999999999</ele><time>2026-04-25T08:18:10.925Z</time></trkpt><trkpt lat="42.236123246390854" lon="-0.09126008365570092"><ele>679.2</ele><time>2026-04-25T08:18:11.925Z</time></trkpt><trkpt lat="42.23601934212751" lon="-0.0912437528566942"><ele>680.8</ele><time>2026-04-25T08:18:12.925Z</time></trkpt><trkpt lat="42.2359144196971" lon="-0.09125702384650472"><ele>682.4000000000001</ele><time>2026-04-25T08:18:13.925Z</time></trkpt><trkpt lat="42.23581301450564" lon="-0.09127271346997214"><ele>684.0</ele><time>2026-04-25T08:18:14.925Z</time></trkpt><trkpt lat="42.23572776476375" lon="-0.09127034325337721"><ele>684.0</ele><time>2026-04-25T08:18:15.925Z</time></trkpt><trkpt lat="42.235649929272775" lon="-0.09127013517607509"><ele>684.0</ele><time>2026-04-25T08:18:16.925Z</time></trkpt><trkpt lat="42.23556563813725" lon="-0.09124801712174233"><ele>684.0</ele><time>2026-04-25T08:18:17.925Z</time></trkpt><trkpt lat="42.23546323493127" lon="-0.09121551750966005"><ele>684.0</ele><time>2026-04-25T08:18:18.925Z</time></trkpt><trkpt lat="42.23536694827393" lon="-0.09119226817608743"><ele>684.0</ele><time>2026-04-25T08:18:19.925Z</time></trkpt><trkpt lat="42.2352762252722" lon="-0.09117499171884208"><ele>685.0</ele><time>2026-04-25T08:18:20.924Z</time></trkpt><trkpt lat="42.235186129688955" lon="-0.09117675613183612"><ele>686.0</ele><time>2026-04-25T08:18:21.924Z</time></trkpt><trkpt lat="42.23509615195631" lon="-0.09119637997260402"><ele>687.0</ele><time>2026-04-25T08:18:22.924Z</time></trkpt><trkpt lat="42.234998454012306" lon="-0.0912373981512733"><ele>688.0</ele><time>2026-04-25T08:18:23.924Z</time></trkpt><trkpt lat="42.234904814185896" lon="-0.09127582837104212"><ele>689.0</ele><time>2026-04-25T08:18:24.924Z</time></trkpt><trkpt lat="42.234828750705745" lon="-0.0912974394241232"><ele>687.2857142857142</ele><time>2026-04-25T08:18:25.924Z</time></trkpt><trkpt lat="42.23476378658072" lon="-0.09131418935470399"><ele>685.5714285714286</ele><time>2026-04-25T08:18:26.924Z</time></trkpt><trkpt lat="42.234693123784794" lon="-0.09131405497397081"><ele>683.8571428571429</ele><time>2026-04-25T08:18:27.924Z</time></trkpt><trkpt lat="42.234621279438066" lon="-0.09131322763228206"><ele>682.1428571428571</ele><time>2026-04-25T08:18:28.924Z</time></trkpt><trkpt lat="42.234553468973616" lon="-0.09131026513293922"><ele>680.4285714285714</ele><time>2026-04-25T08:18:29.924Z</time></trkpt><trkpt lat="42.23448831452943" lon="-0.09132123297443105"><ele>678.7142857142857</ele><time>2026-04-25T08:18:30.924Z</time></trkpt><trkpt lat="42.23441367385597" lon="-0.09133723858722446"><ele>677.0</ele><time>2026-04-25T08:18:31.924Z</time></trkpt><trkpt lat="42.234339644871014" lon="-0.09135449964932962"><ele>677.0</ele><time>2026-04-25T08:18:32.924Z</time></trkpt><trkpt lat="42.234262037234664" lon="-0.09138118126160893"><ele>677.0</ele><time>2026-04-25T08:18:33.924Z</time></trkpt><trkpt lat="42.23418797905421" lon="-0.09141051697984681"><ele>677.0</ele><time>2026-04-25T08:18:34.924Z</time></trkpt><trkpt lat="42.23411993746109" lon="-0.0914426769552019"><ele>677.0</ele><time>2026-04-25T08:18:35.924Z</time></trkpt><trkpt lat="42.234056716652205" lon="-0.09147920140873976"><ele>677.0</ele><time>2026-04-25T08:18:36.924Z</time></trkpt><trkpt lat="42.23396473747345" lon="-0.09157288923477103"><ele>677.0</ele><time>2026-04-25T08:18:38.924Z</time></trkpt><trkpt lat="42.233912157928025" lon="-0.0917156304951011"><ele>675.8</ele><time>2026-04-25T08:18:40.924Z</time></trkpt><trkpt lat="42.23389019428916" lon="-0.09186126433090232"><ele>674.6</ele><time>2026-04-25T08:18:42.924Z</time></trkpt><trkpt lat="42.23388429826605" lon="-0.09202618080550411"><ele>673.4</ele><time>2026-04-25T08:18:44.924Z</time></trkpt><trkpt lat="42.23388319263788" lon="-0.0921230292098015"><ele>672.1999999999999</ele><time>2026-04-25T08:18:45.924Z</time></trkpt><trkpt lat="42.23389106314438" lon="-0.09222457605669136"><ele>671.0</ele><time>2026-04-25T08:18:46.924Z</time></trkpt><trkpt lat="42.233901853130654" lon="-0.09232971744974608"><ele>671.1666666666666</ele><time>2026-04-25T08:18:47.924Z</time></trkpt><trkpt lat="42.233910504831236" lon="-0.09243257757389037"><ele>671.3333333333333</ele><time>2026-04-25T08:18:48.924Z</time></trkpt><trkpt lat="42.233912150870125" lon="-0.09254495344564095"><ele>671.5</ele><time>2026-04-25T08:18:49.924Z</time></trkpt><trkpt lat="42.23391186574531" lon="-0.09264347400568397"><ele>671.6666666666666</ele><time>2026-04-25T08:18:50.924Z</time></trkpt><trkpt lat="42.23389643942697" lon="-0.09274948630362627"><ele>671.8333333333334</ele><time>2026-04-25T08:18:51.924Z</time></trkpt><trkpt lat="42.233881652955645" lon="-0.09285361639991072"><ele>672.0</ele><time>2026-04-25T08:18:52.924Z</time></trkpt><trkpt lat="42.23386562648317" lon="-0.09294431642386151"><ele>672.0</ele><time>2026-04-25T08:18:53.924Z</time></trkpt><trkpt lat="42.23384793782564" lon="-0.09303416931947138"><ele>672.0</ele><time>2026-04-25T08:18:54.924Z</time></trkpt><trkpt lat="42.23383660462102" lon="-0.09312551164815201"><ele>672.0</ele><time>2026-04-25T08:18:55.924Z</time></trkpt><trkpt lat="42.23384598677736" lon="-0.09321759233233616"><ele>672.0</ele><time>2026-04-25T08:18:56.924Z</time></trkpt><trkpt lat="42.23385590693968" lon="-0.09336319297754186"><ele>672.0</ele><time>2026-04-25T08:18:58.924Z</time></trkpt><trkpt lat="42.23379500721567" lon="-0.09345900326955489"><ele>672.0</ele><time>2026-04-25T08:19:00.924Z</time></trkpt><trkpt lat="42.23371081284242" lon="-0.09348968177290981"><ele>672.0</ele><time>2026-04-25T08:19:02.924Z</time></trkpt><trkpt lat="42.23360603714568" lon="-0.09346711939086297"><ele>672.0</ele><time>2026-04-25T08:19:04.924Z</time></trkpt><trkpt lat="42.23354954435902" lon="-0.09342189015063371"><ele>672.0</ele><time>2026-04-25T08:19:05.924Z</time></trkpt><trkpt lat="42.23349098620755" lon="-0.093360299631352"><ele>672.0</ele><time>2026-04-25T08:19:06.924Z</time></trkpt><trkpt lat="42.23343427114164" lon="-0.09329137132107294"><ele>672.0</ele><time>2026-04-25T08:19:07.924Z</time></trkpt><trkpt lat="42.23336950295518" lon="-0.0932266336251451"><ele>672.0</ele><time>2026-04-25T08:19:08.924Z</time></trkpt><trkpt lat="42.23330396530204" lon="-0.09317474250805642"><ele>672.0</ele><time>2026-04-25T08:19:09.924Z</time></trkpt><trkpt lat="42.23320457635298" lon="-0.09311684562155542"><ele>672.0</ele><time>2026-04-25T08:19:11.924Z</time></trkpt><trkpt lat="42.23314294967334" lon="-0.09316682242646444"><ele>672.0</ele><time>2026-04-25T08:19:13.924Z</time></trkpt><trkpt lat="42.23310676906812" lon="-0.09329143965722984"><ele>672.0</ele><time>2026-04-25T08:19:15.922Z</time></trkpt><trkpt lat="42.233134993412904" lon="-0.09345700160272118"><ele>672.0</ele><time>2026-04-25T08:19:17.922Z</time></trkpt><trkpt lat="42.2331620378137" lon="-0.09355647173089114"><ele>672.8571428571429</ele><time>2026-04-25T08:19:18.922Z</time></trkpt><trkpt lat="42.233204315808585" lon="-0.09364748958616534"><ele>673.7142857142858</ele><time>2026-04-25T08:19:19.922Z</time></trkpt><trkpt lat="42.2332379814682" lon="-0.09373432707967849"><ele>674.5714285714286</ele><time>2026-04-25T08:19:20.922Z</time></trkpt><trkpt lat="42.233262581499595" lon="-0.09381550050700917"><ele>675.4285714285714</ele><time>2026-04-25T08:19:21.923Z</time></trkpt><trkpt lat="42.23329812952722" lon="-0.09391247898745175"><ele>676.2857142857143</ele><time>2026-04-25T08:19:22.923Z</time></trkpt><trkpt lat="42.23333362156329" lon="-0.093991401051018"><ele>677.1428571428571</ele><time>2026-04-25T08:19:23.923Z</time></trkpt><trkpt lat="42.23337311309677" lon="-0.09407424225605293"><ele>678.0</ele><time>2026-04-25T08:19:24.922Z</time></trkpt><trkpt lat="42.23341941259299" lon="-0.0941503660761776"><ele>680.0</ele><time>2026-04-25T08:19:25.922Z</time></trkpt><trkpt lat="42.23345815927098" lon="-0.09422741857006309"><ele>682.0</ele><time>2026-04-25T08:19:26.922Z</time></trkpt><trkpt lat="42.23352502149614" lon="-0.09437669059795122"><ele>684.0</ele><time>2026-04-25T08:19:28.922Z</time></trkpt><trkpt lat="42.23354840340249" lon="-0.09447462862454754"><ele>686.0</ele><time>2026-04-25T08:19:29.922Z</time></trkpt><trkpt lat="42.233570250331205" lon="-0.09456867143198087"><ele>688.0</ele><time>2026-04-25T08:19:30.922Z</time></trkpt><trkpt lat="42.23357630245528" lon="-0.09466300240950704"><ele>690.0</ele><time>2026-04-25T08:19:31.922Z</time></trkpt><trkpt lat="42.233543903962264" lon="-0.09475133169593676"><ele>690.0</ele><time>2026-04-25T08:19:32.922Z</time></trkpt><trkpt lat="42.23349933132318" lon="-0.09484207660302078"><ele>690.0</ele><time>2026-04-25T08:19:33.922Z</time></trkpt><trkpt lat="42.23345132740123" lon="-0.09492170071563834"><ele>690.0</ele><time>2026-04-25T08:19:34.922Z</time></trkpt><trkpt lat="42.2334175886094" lon="-0.09500425217672714"><ele>690.0</ele><time>2026-04-25T08:19:35.922Z</time></trkpt><trkpt lat="42.233410462345134" lon="-0.09509278646726504"><ele>690.0</ele><time>2026-04-25T08:19:36.923Z</time></trkpt><trkpt lat="42.23339314613543" lon="-0.0951769391583394"><ele>690.0</ele><time>2026-04-25T08:19:37.923Z</time></trkpt><trkpt lat="42.23333788688839" lon="-0.09528493200886098"><ele>691.6</ele><time>2026-04-25T08:19:39.924Z</time></trkpt><trkpt lat="42.23326905754385" lon="-0.09526853218815713"><ele>693.2</ele><time>2026-04-25T08:19:41.925Z</time></trkpt><trkpt lat="42.233184356791476" lon="-0.0951586770432649"><ele>694.8</ele><time>2026-04-25T08:19:43.926Z</time></trkpt><trkpt lat="42.23312398036634" lon="-0.09508979554292342"><ele>696.4</ele><time>2026-04-25T08:19:44.926Z</time></trkpt><trkpt lat="42.23306786004013" lon="-0.0950217866670698"><ele>698.0</ele><time>2026-04-25T08:19:45.926Z</time></trkpt><trkpt lat="42.23299327912777" lon="-0.09491382263287029"><ele>698.0</ele><time>2026-04-25T08:19:47.927Z</time></trkpt><trkpt lat="42.23295383793106" lon="-0.09484648236071014"><ele>698.0</ele><time>2026-04-25T08:19:48.927Z</time></trkpt><trkpt lat="42.23290964159742" lon="-0.0946900972169135"><ele>698.0</ele><time>2026-04-25T08:19:50.928Z</time></trkpt><trkpt lat="42.232839182642785" lon="-0.09455619051627691"><ele>698.0</ele><time>2026-04-25T08:19:52.928Z</time></trkpt><trkpt lat="42.23280538334212" lon="-0.09448133088318204"><ele>698.0</ele><time>2026-04-25T08:19:53.928Z</time></trkpt><trkpt lat="42.23275719015407" lon="-0.0944253612089035"><ele>698.0</ele><time>2026-04-25T08:19:54.928Z</time></trkpt><trkpt lat="42.23269902596436" lon="-0.09439256651264885"><ele>698.0</ele><time>2026-04-25T08:19:55.929Z</time></trkpt><trkpt lat="42.232584509103745" lon="-0.0944083356776448"><ele>698.0</ele><time>2026-04-25T08:19:57.929Z</time></trkpt><trkpt lat="42.232517534430514" lon="-0.09444129970611806"><ele>698.0</ele><time>2026-04-25T08:19:58.929Z</time></trkpt><trkpt lat="42.23245455573905" lon="-0.09448500265422063"><ele>698.0</ele><time>2026-04-25T08:19:59.929Z</time></trkpt><trkpt lat="42.23232928138712" lon="-0.09458180361778204"><ele>698.0</ele><time>2026-04-25T08:20:01.929Z</time></trkpt><trkpt lat="42.232256980908005" lon="-0.0946480982329504"><ele>698.4</ele><time>2026-04-25T08:20:02.929Z</time></trkpt><trkpt lat="42.23217506140724" lon="-0.09472086265992898"><ele>698.8</ele><time>2026-04-25T08:20:03.929Z</time></trkpt><trkpt lat="42.23208686364001" lon="-0.09478697223295052"><ele>699.2</ele><time>2026-04-25T08:20:04.93Z</time></trkpt><trkpt lat="42.23200282784057" lon="-0.09485469569334316"><ele>699.6</ele><time>2026-04-25T08:20:05.93Z</time></trkpt><trkpt lat="42.23192223957007" lon="-0.09491171555507529"><ele>700.0</ele><time>2026-04-25T08:20:06.93Z</time></trkpt><trkpt lat="42.23184982328707" lon="-0.09496275859111017"><ele>701.3333333333334</ele><time>2026-04-25T08:20:07.93Z</time></trkpt><trkpt lat="42.231793775629086" lon="-0.09501950954365944"><ele>702.6666666666667</ele><time>2026-04-25T08:20:08.93Z</time></trkpt><trkpt lat="42.23174331402554" lon="-0.09509616565661133"><ele>704.0</ele><time>2026-04-25T08:20:09.93Z</time></trkpt><trkpt lat="42.23170540922399" lon="-0.09519235963457434"><ele>705.3333333333334</ele><time>2026-04-25T08:20:10.93Z</time></trkpt><trkpt lat="42.231655841597345" lon="-0.09528320779166258"><ele>706.6666666666666</ele><time>2026-04-25T08:20:11.93Z</time></trkpt><trkpt lat="42.23159683872188" lon="-0.09538532311361576"><ele>708.0</ele><time>2026-04-25T08:20:12.93Z</time></trkpt><trkpt lat="42.231535399681654" lon="-0.09548262144010004"><ele>708.0</ele><time>2026-04-25T08:20:13.93Z</time></trkpt><trkpt lat="42.23147450408376" lon="-0.09558370264604621"><ele>708.0</ele><time>2026-04-25T08:20:14.93Z</time></trkpt><trkpt lat="42.23141191884892" lon="-0.0956816013480466"><ele>708.0</ele><time>2026-04-25T08:20:15.93Z</time></trkpt><trkpt lat="42.231354148702465" lon="-0.09577952397148697"><ele>708.0</ele><time>2026-04-25T08:20:16.93Z</time></trkpt><trkpt lat="42.23130015653028" lon="-0.0958627925796221"><ele>708.0</ele><time>2026-04-25T08:20:17.93Z</time></trkpt><trkpt lat="42.23124751234221" lon="-0.0959300250454158"><ele>708.0</ele><time>2026-04-25T08:20:18.93Z</time></trkpt><trkpt lat="42.23118469830294" lon="-0.0960276553159662"><ele>709.6666666666666</ele><time>2026-04-25T08:20:20.93Z</time></trkpt><trkpt lat="42.23115792448671" lon="-0.09615637024099512"><ele>711.3333333333334</ele><time>2026-04-25T08:20:22.93Z</time></trkpt><trkpt lat="42.23117389849211" lon="-0.09624590231275947"><ele>713.0</ele><time>2026-04-25T08:20:23.93Z</time></trkpt><trkpt lat="42.23118899008056" lon="-0.09633257892078223"><ele>714.6666666666667</ele><time>2026-04-25T08:20:24.93Z</time></trkpt><trkpt lat="42.23120612446736" lon="-0.09641622818778693"><ele>716.3333333333334</ele><time>2026-04-25T08:20:25.93Z</time></trkpt><trkpt lat="42.23121057625098" lon="-0.0965587953163475"><ele>718.0</ele><time>2026-04-25T08:20:27.93Z</time></trkpt><trkpt lat="42.231130685222325" lon="-0.09662246153413463"><ele>718.0</ele><time>2026-04-25T08:20:29.93Z</time></trkpt><trkpt lat="42.23102918004925" lon="-0.09657740922039124"><ele>718.0</ele><time>2026-04-25T08:20:31.93Z</time></trkpt><trkpt lat="42.23096079789455" lon="-0.09651582334937811"><ele>718.0</ele><time>2026-04-25T08:20:33.93Z</time></trkpt><trkpt lat="42.230872325044295" lon="-0.09646965235848916"><ele>718.0</ele><time>2026-04-25T08:23:00.927Z</time></trkpt><trkpt lat="42.23077084229599" lon="-0.09641634815134374"><ele>718.0</ele><time>2026-04-25T08:23:02.927Z</time></trkpt><trkpt lat="42.23070431792783" lon="-0.09638832495944236"><ele>718.0</ele><time>2026-04-25T08:23:03.927Z</time></trkpt><trkpt lat="42.23064777573732" lon="-0.09635050185887797"><ele>718.0</ele><time>2026-04-25T08:23:04.927Z</time></trkpt><trkpt lat="42.23055956348971" lon="-0.09623548251530467"><ele>718.0</ele><time>2026-04-25T08:23:06.927Z</time></trkpt><trkpt lat="42.23051616817345" lon="-0.09616587546376323"><ele>718.0</ele><time>2026-04-25T08:23:07.927Z</time></trkpt><trkpt lat="42.23048185923179" lon="-0.0960781719472703"><ele>718.0</ele><time>2026-04-25T08:23:08.926Z</time></trkpt><trkpt lat="42.230454616427146" lon="-0.09598818129842852"><ele>718.0</ele><time>2026-04-25T08:23:09.926Z</time></trkpt><trkpt lat="42.23041414452136" lon="-0.09590269134816956"><ele>721.1666666666667</ele><time>2026-04-25T08:23:10.926Z</time></trkpt><trkpt lat="42.2303705136081" lon="-0.09582396591224317"><ele>724.3333333333334</ele><time>2026-04-25T08:23:11.926Z</time></trkpt><trkpt lat="42.23033634567009" lon="-0.09573770390415454"><ele>727.5</ele><time>2026-04-25T08:23:12.926Z</time></trkpt><trkpt lat="42.23030290309498" lon="-0.09563936430846172"><ele>730.6666666666666</ele><time>2026-04-25T08:23:13.926Z</time></trkpt><trkpt lat="42.230273372131045" lon="-0.09555889022304903"><ele>733.8333333333333</ele><time>2026-04-25T08:23:14.926Z</time></trkpt><trkpt lat="42.23024917483931" lon="-0.09540429325584004"><ele>737.0</ele><time>2026-04-25T08:23:16.926Z</time></trkpt><trkpt lat="42.23023670623165" lon="-0.09523872955509131"><ele>737.0</ele><time>2026-04-25T08:23:18.926Z</time></trkpt><trkpt lat="42.23018326637063" lon="-0.0951919236859689"><ele>737.0</ele><time>2026-04-25T08:23:20.926Z</time></trkpt><trkpt lat="42.230089908958284" lon="-0.0952316695970503"><ele>737.0</ele><time>2026-04-25T08:23:22.926Z</time></trkpt><trkpt lat="42.230037773177976" lon="-0.09537224952466498"><ele>737.0</ele><time>2026-04-25T08:23:24.926Z</time></trkpt><trkpt lat="42.22999554042507" lon="-0.09546463193249032"><ele>737.0</ele><time>2026-04-25T08:23:25.926Z</time></trkpt><trkpt lat="42.22994797920544" lon="-0.09553854328157174"><ele>737.0</ele><time>2026-04-25T08:23:26.927Z</time></trkpt><trkpt lat="42.22990423240837" lon="-0.0956231626510003"><ele>737.0</ele><time>2026-04-25T08:23:27.927Z</time></trkpt><trkpt lat="42.229864637763825" lon="-0.09570799769476289"><ele>737.0</ele><time>2026-04-25T08:23:28.927Z</time></trkpt><trkpt lat="42.22978748000292" lon="-0.09582645036304335"><ele>737.0</ele><time>2026-04-25T08:23:30.927Z</time></trkpt><trkpt lat="42.22968825406341" lon="-0.0958324908905322"><ele>737.0</ele><time>2026-04-25T08:23:32.927Z</time></trkpt><trkpt lat="42.2295765946781" lon="-0.09575400189372296"><ele>737.0</ele><time>2026-04-25T08:23:34.926Z</time></trkpt><trkpt lat="42.2294722895205" lon="-0.09578938942559735"><ele>737.1666666666666</ele><time>2026-04-25T08:23:36.927Z</time></trkpt><trkpt lat="42.22939639402372" lon="-0.09592695650603218"><ele>737.3333333333333</ele><time>2026-04-25T08:23:38.927Z</time></trkpt><trkpt lat="42.22935872158731" lon="-0.09600743353386557"><ele>737.5</ele><time>2026-04-25T08:23:39.927Z</time></trkpt><trkpt lat="42.22932218639111" lon="-0.09607992457210264"><ele>737.6666666666666</ele><time>2026-04-25T08:23:40.927Z</time></trkpt><trkpt lat="42.22927389458831" lon="-0.09620432089898269"><ele>737.8333333333334</ele><time>2026-04-25T08:23:42.927Z</time></trkpt><trkpt lat="42.22923230998919" lon="-0.09629569598021331"><ele>738.0</ele><time>2026-04-25T08:23:46.927Z</time></trkpt><trkpt lat="42.22917475173233" lon="-0.09638811790429008"><ele>738.0</ele><time>2026-04-25T08:23:49.927Z</time></trkpt><trkpt lat="42.22911899331191" lon="-0.09648867569281601"><ele>738.0</ele><time>2026-04-25T08:23:51.927Z</time></trkpt><trkpt lat="42.22906574329461" lon="-0.09659765462698869"><ele>738.0</ele><time>2026-04-25T08:23:53.927Z</time></trkpt><trkpt lat="42.22898557309774" lon="-0.09664893756196352"><ele>738.0</ele><time>2026-04-25T08:23:55.927Z</time></trkpt><trkpt lat="42.22888440866738" lon="-0.09667230291843479"><ele>738.0</ele><time>2026-04-25T08:23:57.927Z</time></trkpt><trkpt lat="42.22877115472511" lon="-0.09671180902015007"><ele>736.2</ele><time>2026-04-25T08:23:59.927Z</time></trkpt><trkpt lat="42.22869989226159" lon="-0.09674606217682005"><ele>734.4</ele><time>2026-04-25T08:24:00.927Z</time></trkpt><trkpt lat="42.22863844887349" lon="-0.09678275851790989"><ele>732.6</ele><time>2026-04-25T08:24:01.927Z</time></trkpt><trkpt lat="42.22853496176184" lon="-0.09685709079279503"><ele>730.8000000000001</ele><time>2026-04-25T08:24:03.927Z</time></trkpt><trkpt lat="42.228458421193075" lon="-0.09696695703500856"><ele>729.0</ele><time>2026-04-25T08:24:05.927Z</time></trkpt><trkpt lat="42.22840936679624" lon="-0.09712358887053713"><ele>729.0</ele><time>2026-04-25T08:24:07.927Z</time></trkpt><trkpt lat="42.22839649272813" lon="-0.0972127967097609"><ele>729.0</ele><time>2026-04-25T08:24:08.927Z</time></trkpt><trkpt lat="42.22836824700391" lon="-0.09729514174250709"><ele>729.0</ele><time>2026-04-25T08:24:09.927Z</time></trkpt><trkpt lat="42.22833965576201" lon="-0.09737906228595546"><ele>729.0</ele><time>2026-04-25T08:24:10.927Z</time></trkpt><trkpt lat="42.22830930367716" lon="-0.097476699626314"><ele>729.0</ele><time>2026-04-25T08:24:11.927Z</time></trkpt><trkpt lat="42.22828922145174" lon="-0.0975705084636865"><ele>729.0</ele><time>2026-04-25T08:24:12.927Z</time></trkpt><trkpt lat="42.228275229002286" lon="-0.09766671643402658"><ele>729.0</ele><time>2026-04-25T08:24:13.927Z</time></trkpt><trkpt lat="42.228239554399394" lon="-0.09775000723668932"><ele>729.8000000000001</ele><time>2026-04-25T08:24:14.927Z</time></trkpt><trkpt lat="42.228170639553305" lon="-0.09790047123462305"><ele>730.6</ele><time>2026-04-25T08:24:16.926Z</time></trkpt><trkpt lat="42.22812975576833" lon="-0.09798553460841737"><ele>731.4</ele><time>2026-04-25T08:24:17.926Z</time></trkpt><trkpt lat="42.2280804004217" lon="-0.09806768996725818"><ele>732.2</ele><time>2026-04-25T08:24:18.926Z</time></trkpt><trkpt lat="42.228019633056974" lon="-0.09814907502700229"><ele>733.0</ele><time>2026-04-25T08:24:19.926Z</time></trkpt><trkpt lat="42.22794845293902" lon="-0.09823033760471435"><ele>733.1666666666667</ele><time>2026-04-25T08:24:20.926Z</time></trkpt><trkpt lat="42.227882205873115" lon="-0.09828766585520979"><ele>733.3333333333334</ele><time>2026-04-25T08:24:21.926Z</time></trkpt><trkpt lat="42.22778812007091" lon="-0.09833577177278567"><ele>733.5</ele><time>2026-04-25T08:24:22.926Z</time></trkpt><trkpt lat="42.227712693035606" lon="-0.09838300332379982"><ele>733.6666666666666</ele><time>2026-04-25T08:24:23.926Z</time></trkpt><trkpt lat="42.22765469220925" lon="-0.09843209669098917"><ele>733.8333333333333</ele><time>2026-04-25T08:24:24.926Z</time></trkpt><trkpt lat="42.22759028349702" lon="-0.0985356447953505"><ele>734.0</ele><time>2026-04-25T08:24:26.926Z</time></trkpt><trkpt lat="42.22755324882705" lon="-0.09863149313230249"><ele>734.0</ele><time>2026-04-25T08:24:29.926Z</time></trkpt><trkpt lat="42.22749081244839" lon="-0.09871276020678442"><ele>734.0</ele><time>2026-04-25T08:24:31.926Z</time></trkpt><trkpt lat="42.22740455939542" lon="-0.09882328691273382"><ele>734.0</ele><time>2026-04-25T08:24:33.926Z</time></trkpt><trkpt lat="42.22729169362903" lon="-0.09888128426225522"><ele>734.0</ele><time>2026-04-25T08:24:35.926Z</time></trkpt><trkpt lat="42.22722362294024" lon="-0.09891094228546975"><ele>734.0</ele><time>2026-04-25T08:24:36.926Z</time></trkpt><trkpt lat="42.22716957075396" lon="-0.09895716862912872"><ele>736.0</ele><time>2026-04-25T08:24:37.926Z</time></trkpt><trkpt lat="42.22709916718962" lon="-0.09899972824580484"><ele>738.0</ele><time>2026-04-25T08:24:38.926Z</time></trkpt><trkpt lat="42.22703126215195" lon="-0.09902894056957111"><ele>740.0</ele><time>2026-04-25T08:24:39.926Z</time></trkpt><trkpt lat="42.226961779465746" lon="-0.09905160818461158"><ele>742.0</ele><time>2026-04-25T08:24:40.926Z</time></trkpt><trkpt lat="42.226888340514726" lon="-0.0990622054223638"><ele>744.0</ele><time>2026-04-25T08:24:41.926Z</time></trkpt><trkpt lat="42.226821299677745" lon="-0.09907273190593628"><ele>746.0</ele><time>2026-04-25T08:24:42.926Z</time></trkpt><trkpt lat="42.22675600462901" lon="-0.09909635082780023"><ele>748.0</ele><time>2026-04-25T08:24:43.926Z</time></trkpt><trkpt lat="42.226709311210456" lon="-0.09915626420912967"><ele>748.0</ele><time>2026-04-25T08:24:44.926Z</time></trkpt><trkpt lat="42.22664867341073" lon="-0.0992318362732049"><ele>748.0</ele><time>2026-04-25T08:24:46.926Z</time></trkpt><trkpt lat="42.22661220767534" lon="-0.09914847861142996"><ele>748.0</ele><time>2026-04-25T08:24:49.926Z</time></trkpt><trkpt lat="42.22663522123476" lon="-0.09898572396020772"><ele>748.0</ele><time>2026-04-25T08:24:51.926Z</time></trkpt><trkpt lat="42.226631659584896" lon="-0.09888816060114657"><ele>748.0</ele><time>2026-04-25T08:24:52.926Z</time></trkpt><trkpt lat="42.22663726132015" lon="-0.09876955433165865"><ele>748.0</ele><time>2026-04-25T08:24:53.926Z</time></trkpt><trkpt lat="42.22661061364735" lon="-0.09862136611248272"><ele>748.0</ele><time>2026-04-25T08:24:55.926Z</time></trkpt><trkpt lat="42.22658485496827" lon="-0.09854339746460691"><ele>748.0</ele><time>2026-04-25T08:24:56.926Z</time></trkpt><trkpt lat="42.22650734554162" lon="-0.0983892526437538"><ele>748.0</ele><time>2026-04-25T08:24:58.926Z</time></trkpt><trkpt lat="42.22647463211076" lon="-0.09830549388521032"><ele>748.0</ele><time>2026-04-25T08:24:59.926Z</time></trkpt><trkpt lat="42.226430549200174" lon="-0.09820468659331119"><ele>748.0</ele><time>2026-04-25T08:25:00.926Z</time></trkpt><trkpt lat="42.22640094134403" lon="-0.09811583643735822"><ele>748.0</ele><time>2026-04-25T08:25:01.926Z</time></trkpt><trkpt lat="42.22637109940241" lon="-0.09800756520742501"><ele>752.1666666666667</ele><time>2026-04-25T08:25:02.926Z</time></trkpt><trkpt lat="42.226343046427516" lon="-0.09792931785823956"><ele>756.3333333333334</ele><time>2026-04-25T08:25:03.926Z</time></trkpt><trkpt lat="42.226320761518885" lon="-0.09782689857856644"><ele>760.5</ele><time>2026-04-25T08:25:04.926Z</time></trkpt><trkpt lat="42.226295376037385" lon="-0.09772636794340928"><ele>764.6666666666667</ele><time>2026-04-25T08:25:05.926Z</time></trkpt><trkpt lat="42.22626772632547" lon="-0.09761238839896444"><ele>768.8333333333334</ele><time>2026-04-25T08:25:06.926Z</time></trkpt><trkpt lat="42.22624589617169" lon="-0.09752406603030846"><ele>773.0</ele><time>2026-04-25T08:25:07.926Z</time></trkpt><trkpt lat="42.226213350354335" lon="-0.09743233974810955"><ele>773.2</ele><time>2026-04-25T08:25:08.926Z</time></trkpt><trkpt lat="42.22617907270955" lon="-0.09734951010086676"><ele>773.4</ele><time>2026-04-25T08:25:09.926Z</time></trkpt><trkpt lat="42.226095625398834" lon="-0.09721321375680377"><ele>773.6</ele><time>2026-04-25T08:25:11.926Z</time></trkpt><trkpt lat="42.2260470027258" lon="-0.0971571151163636"><ele>773.8000000000001</ele><time>2026-04-25T08:25:12.926Z</time></trkpt><trkpt lat="42.22599950939623" lon="-0.09709128350304487"><ele>774.0</ele><time>2026-04-25T08:25:13.926Z</time></trkpt><trkpt lat="42.225940825444866" lon="-0.0969425663881635"><ele>774.0</ele><time>2026-04-25T08:25:15.926Z</time></trkpt><trkpt lat="42.22593553112416" lon="-0.0968428600209794"><ele>774.0</ele><time>2026-04-25T08:25:16.926Z</time></trkpt><trkpt lat="42.22593610238929" lon="-0.09674656693506103"><ele>774.0</ele><time>2026-04-25T08:25:17.926Z</time></trkpt><trkpt lat="42.22595179229141" lon="-0.09663231128341467"><ele>774.0</ele><time>2026-04-25T08:25:18.926Z</time></trkpt><trkpt lat="42.22597543344539" lon="-0.09654569152497647"><ele>774.0</ele><time>2026-04-25T08:25:19.926Z</time></trkpt><trkpt lat="42.22598624668557" lon="-0.09645670345449753"><ele>774.0</ele><time>2026-04-25T08:25:20.926Z</time></trkpt><trkpt lat="42.2259908023183" lon="-0.09636652603735159"><ele>774.0</ele><time>2026-04-25T08:25:21.926Z</time></trkpt><trkpt lat="42.225984783422696" lon="-0.09627417065999054"><ele>775.1428571428571</ele><time>2026-04-25T08:25:22.925Z</time></trkpt><trkpt lat="42.22597843278522" lon="-0.09618330777708531"><ele>776.2857142857143</ele><time>2026-04-25T08:25:23.925Z</time></trkpt><trkpt lat="42.22597536667356" lon="-0.09609256111292268"><ele>777.4285714285713</ele><time>2026-04-25T08:25:24.925Z</time></trkpt><trkpt lat="42.22597305026749" lon="-0.0960013564428125"><ele>778.5714285714286</ele><time>2026-04-25T08:25:25.925Z</time></trkpt><trkpt lat="42.225977463323936" lon="-0.09590707033691623"><ele>779.7142857142857</ele><time>2026-04-25T08:25:26.925Z</time></trkpt><trkpt lat="42.22598347674296" lon="-0.09581023472218582"><ele>780.8571428571428</ele><time>2026-04-25T08:25:27.925Z</time></trkpt><trkpt lat="42.22599966764739" lon="-0.09571683553974256"><ele>782.0</ele><time>2026-04-25T08:25:28.925Z</time></trkpt><trkpt lat="42.22602181304986" lon="-0.09562741417516864"><ele>782.5000000000001</ele><time>2026-04-25T08:25:29.925Z</time></trkpt><trkpt lat="42.226068182381184" lon="-0.09547326823579586"><ele>783.0</ele><time>2026-04-25T08:25:31.925Z</time></trkpt><trkpt lat="42.22609248705484" lon="-0.09538783592045891"><ele>783.5</ele><time>2026-04-25T08:25:32.925Z</time></trkpt><trkpt lat="42.22611760417011" lon="-0.09529720141929213"><ele>784.0</ele><time>2026-04-25T08:25:33.924Z</time></trkpt><trkpt lat="42.22614422703739" lon="-0.09521800224858704"><ele>784.5000000000001</ele><time>2026-04-25T08:25:34.924Z</time></trkpt><trkpt lat="42.226165617829615" lon="-0.0951304739710543"><ele>785.0</ele><time>2026-04-25T08:25:35.924Z</time></trkpt><trkpt lat="42.22618866714998" lon="-0.09496465501707095"><ele>784.1666666666667</ele><time>2026-04-25T08:25:37.924Z</time></trkpt><trkpt lat="42.22622152709607" lon="-0.09480664248277083"><ele>783.3333333333334</ele><time>2026-04-25T08:25:39.924Z</time></trkpt><trkpt lat="42.2262412226781" lon="-0.094722897924037"><ele>782.5</ele><time>2026-04-25T08:25:40.924Z</time></trkpt><trkpt lat="42.22626607340977" lon="-0.09464307419442658"><ele>781.6666666666667</ele><time>2026-04-25T08:25:41.924Z</time></trkpt><trkpt lat="42.2262886749977" lon="-0.09456228925686144"><ele>780.8333333333334</ele><time>2026-04-25T08:25:42.924Z</time></trkpt><trkpt lat="42.22631902705216" lon="-0.09441606528158332"><ele>780.0</ele><time>2026-04-25T08:25:44.924Z</time></trkpt><trkpt lat="42.226334259414365" lon="-0.09428912621296504"><ele>780.0</ele><time>2026-04-25T08:25:46.923Z</time></trkpt><trkpt lat="42.22632261774153" lon="-0.09416414711995157"><ele>780.0</ele><time>2026-04-25T08:25:48.923Z</time></trkpt><trkpt lat="42.22629670368336" lon="-0.09403094735298827"><ele>780.0</ele><time>2026-04-25T08:25:50.923Z</time></trkpt><trkpt lat="42.22627465697953" lon="-0.09394126373116424"><ele>780.0</ele><time>2026-04-25T08:25:52.923Z</time></trkpt><trkpt lat="42.22623417275417" lon="-0.09381447600023791"><ele>780.0</ele><time>2026-04-25T08:25:54.923Z</time></trkpt><trkpt lat="42.22617148165922" lon="-0.09367455086750764"><ele>777.6666666666666</ele><time>2026-04-25T08:25:56.923Z</time></trkpt><trkpt lat="42.22611894028157" lon="-0.0936178059662803"><ele>775.3333333333334</ele><time>2026-04-25T08:25:57.923Z</time></trkpt><trkpt lat="42.226054841363876" lon="-0.09356224585649783"><ele>773.0</ele><time>2026-04-25T08:25:58.923Z</time></trkpt><trkpt lat="42.22598396677325" lon="-0.09351328217578593"><ele>770.6666666666667</ele><time>2026-04-25T08:25:59.923Z</time></trkpt><trkpt lat="42.22591766404458" lon="-0.09344519356281739"><ele>768.3333333333334</ele><time>2026-04-25T08:26:00.923Z</time></trkpt><trkpt lat="42.225854720726645" lon="-0.09337867504716545"><ele>766.0</ele><time>2026-04-25T08:26:01.923Z</time></trkpt><trkpt lat="42.22579537112161" lon="-0.09330685629252754"><ele>766.0</ele><time>2026-04-25T08:26:02.923Z</time></trkpt><trkpt lat="42.225730039796915" lon="-0.09326091606504776"><ele>766.0</ele><time>2026-04-25T08:26:03.923Z</time></trkpt><trkpt lat="42.225667586044906" lon="-0.09321705253110793"><ele>766.0</ele><time>2026-04-25T08:26:04.923Z</time></trkpt><trkpt lat="42.225597135294095" lon="-0.09318869182705912"><ele>766.0</ele><time>2026-04-25T08:26:05.923Z</time></trkpt><trkpt lat="42.22552521952133" lon="-0.09317425881014045"><ele>766.0</ele><time>2026-04-25T08:26:06.923Z</time></trkpt><trkpt lat="42.22545118291097" lon="-0.09316749622864534"><ele>766.0</ele><time>2026-04-25T08:26:07.923Z</time></trkpt><trkpt lat="42.22537361605766" lon="-0.09315236290957503"><ele>766.0</ele><time>2026-04-25T08:26:08.923Z</time></trkpt><trkpt lat="42.22530228505916" lon="-0.09313854302868964"><ele>767.8333333333334</ele><time>2026-04-25T08:26:09.923Z</time></trkpt><trkpt lat="42.22523175712759" lon="-0.09312162053654706"><ele>769.6666666666667</ele><time>2026-04-25T08:26:10.923Z</time></trkpt><trkpt lat="42.225164397942116" lon="-0.0930927448165089"><ele>771.5</ele><time>2026-04-25T08:26:11.923Z</time></trkpt><trkpt lat="42.22508978057741" lon="-0.093048032741879"><ele>773.3333333333334</ele><time>2026-04-25T08:26:12.923Z</time></trkpt><trkpt lat="42.225015508109244" lon="-0.09300844562341029"><ele>775.1666666666666</ele><time>2026-04-25T08:26:13.923Z</time></trkpt><trkpt lat="42.224948340697" lon="-0.09296409756010882"><ele>777.0</ele><time>2026-04-25T08:26:14.923Z</time></trkpt><trkpt lat="42.2248744824572" lon="-0.09291646161721785"><ele>779.8333333333334</ele><time>2026-04-25T08:26:15.923Z</time></trkpt><trkpt lat="42.22480361699127" lon="-0.09286174187534395"><ele>782.6666666666667</ele><time>2026-04-25T08:26:16.923Z</time></trkpt><trkpt lat="42.224724593131974" lon="-0.09281840701365417"><ele>785.5</ele><time>2026-04-25T08:26:17.923Z</time></trkpt><trkpt lat="42.224646709832385" lon="-0.09277464744208945"><ele>788.3333333333334</ele><time>2026-04-25T08:26:18.923Z</time></trkpt><trkpt lat="42.224563860307555" lon="-0.09274056167179462"><ele>791.1666666666667</ele><time>2026-04-25T08:26:19.923Z</time></trkpt><trkpt lat="42.224493723545876" lon="-0.09271376150265807"><ele>794.0</ele><time>2026-04-25T08:26:20.923Z</time></trkpt><trkpt lat="42.22442813689001" lon="-0.09269282405066875"><ele>794.0</ele><time>2026-04-25T08:26:21.923Z</time></trkpt><trkpt lat="42.224295423767956" lon="-0.09263114647589275"><ele>794.0</ele><time>2026-04-25T08:26:23.923Z</time></trkpt><trkpt lat="42.224223994962365" lon="-0.09259554643666076"><ele>794.0</ele><time>2026-04-25T08:26:24.923Z</time></trkpt><trkpt lat="42.22408048917242" lon="-0.09254514340506688"><ele>794.0</ele><time>2026-04-25T08:26:26.923Z</time></trkpt><trkpt lat="42.224015621034525" lon="-0.09251745117123501"><ele>794.0</ele><time>2026-04-25T08:26:27.923Z</time></trkpt><trkpt lat="42.22394091133872" lon="-0.09249821948422504"><ele>798.0000000000001</ele><time>2026-04-25T08:26:28.923Z</time></trkpt><trkpt lat="42.22386707197178" lon="-0.09247786168625137"><ele>802.0</ele><time>2026-04-25T08:26:29.923Z</time></trkpt><trkpt lat="42.22379704802007" lon="-0.0924668972457171"><ele>806.0</ele><time>2026-04-25T08:26:30.923Z</time></trkpt><trkpt lat="42.22372731682782" lon="-0.09245213936410247"><ele>810.0</ele><time>2026-04-25T08:26:31.923Z</time></trkpt><trkpt lat="42.22365867348933" lon="-0.09243932245382397"><ele>814.0000000000001</ele><time>2026-04-25T08:26:32.923Z</time></trkpt><trkpt lat="42.22357381934169" lon="-0.09241393548681714"><ele>818.0</ele><time>2026-04-25T08:26:33.923Z</time></trkpt><trkpt lat="42.22349982469317" lon="-0.09238313841018622"><ele>818.0000000000001</ele><time>2026-04-25T08:26:34.923Z</time></trkpt><trkpt lat="42.22343392490322" lon="-0.09235710887061409"><ele>818.0</ele><time>2026-04-25T08:26:35.923Z</time></trkpt><trkpt lat="42.22336053130328" lon="-0.09232735438033655"><ele>818.0</ele><time>2026-04-25T08:26:36.923Z</time></trkpt><trkpt lat="42.22328380930394" lon="-0.09229793304708693"><ele>818.0</ele><time>2026-04-25T08:26:37.923Z</time></trkpt><trkpt lat="42.22321463302804" lon="-0.09226388618298008"><ele>818.0000000000001</ele><time>2026-04-25T08:26:38.923Z</time></trkpt><trkpt lat="42.22314719483168" lon="-0.09220833996372431"><ele>818.0</ele><time>2026-04-25T08:26:39.923Z</time></trkpt><trkpt lat="42.223072444025064" lon="-0.0921628733357094"><ele>821.3333333333334</ele><time>2026-04-25T08:26:40.923Z</time></trkpt><trkpt lat="42.22299443228192" lon="-0.09213722680572742"><ele>824.6666666666667</ele><time>2026-04-25T08:26:41.923Z</time></trkpt><trkpt lat="42.22292073676669" lon="-0.09211031338591029"><ele>828.0</ele><time>2026-04-25T08:26:42.923Z</time></trkpt><trkpt lat="42.22284782799463" lon="-0.09208477046354095"><ele>831.3333333333333</ele><time>2026-04-25T08:26:43.923Z</time></trkpt><trkpt lat="42.22277039488193" lon="-0.09206566599613768"><ele>834.6666666666666</ele><time>2026-04-25T08:26:44.923Z</time></trkpt><trkpt lat="42.22269459543498" lon="-0.09205401097338177"><ele>838.0</ele><time>2026-04-25T08:26:45.923Z</time></trkpt><trkpt lat="42.222626318764455" lon="-0.09205355394321425"><ele>837.9999999999999</ele><time>2026-04-25T08:26:46.923Z</time></trkpt><trkpt lat="42.22255197084463" lon="-0.09207339182735098"><ele>838.0</ele><time>2026-04-25T08:26:47.923Z</time></trkpt><trkpt lat="42.22249044406137" lon="-0.09210251482227005"><ele>838.0</ele><time>2026-04-25T08:26:48.922Z</time></trkpt><trkpt lat="42.22242384475458" lon="-0.09214167748353319"><ele>838.0</ele><time>2026-04-25T08:26:49.922Z</time></trkpt><trkpt lat="42.22235306679707" lon="-0.09217385723111701"><ele>838.0</ele><time>2026-04-25T08:26:50.922Z</time></trkpt><trkpt lat="42.222276191282326" lon="-0.09220075012890774"><ele>837.9999999999999</ele><time>2026-04-25T08:26:51.922Z</time></trkpt><trkpt lat="42.222207850896964" lon="-0.09222542598949705"><ele>838.0</ele><time>2026-04-25T08:26:52.922Z</time></trkpt><trkpt lat="42.22214840490347" lon="-0.09226752808115486"><ele>840.8</ele><time>2026-04-25T08:26:53.922Z</time></trkpt><trkpt lat="42.22210372137204" lon="-0.0923394473220336"><ele>843.5999999999999</ele><time>2026-04-25T08:26:54.922Z</time></trkpt><trkpt lat="42.222048785682055" lon="-0.09247704570888775"><ele>846.4000000000001</ele><time>2026-04-25T08:26:56.922Z</time></trkpt><trkpt lat="42.22203609726116" lon="-0.0926539938746418"><ele>849.2</ele><time>2026-04-25T08:26:58.922Z</time></trkpt><trkpt lat="42.222036512827344" lon="-0.09275695535712766"><ele>852.0</ele><time>2026-04-25T08:26:59.922Z</time></trkpt><trkpt lat="42.22201771538962" lon="-0.09291634761498066"><ele>852.0</ele><time>2026-04-25T08:27:01.922Z</time></trkpt><trkpt lat="42.22195296138348" lon="-0.09304452088134589"><ele>852.0</ele><time>2026-04-25T08:27:03.922Z</time></trkpt><trkpt lat="42.22183443971804" lon="-0.09309464435992153"><ele>852.0</ele><time>2026-04-25T08:27:05.922Z</time></trkpt><trkpt lat="42.22176023871218" lon="-0.09310984174499883"><ele>852.0</ele><time>2026-04-25T08:27:06.922Z</time></trkpt><trkpt lat="42.22169596658349" lon="-0.09314816505632494"><ele>852.0</ele><time>2026-04-25T08:27:07.922Z</time></trkpt><trkpt lat="42.22163238847637" lon="-0.09318879185832314"><ele>851.9999999999999</ele><time>2026-04-25T08:27:08.922Z</time></trkpt><trkpt lat="42.221563581048706" lon="-0.09321898556491465"><ele>852.0</ele><time>2026-04-25T08:27:09.922Z</time></trkpt><trkpt lat="42.22149701623497" lon="-0.09325124047745573"><ele>852.0</ele><time>2026-04-25T08:27:10.922Z</time></trkpt><trkpt lat="42.221426719613824" lon="-0.09326867280464295"><ele>852.0</ele><time>2026-04-25T08:27:11.922Z</time></trkpt><trkpt lat="42.22136237208458" lon="-0.09326374412105969"><ele>852.0</ele><time>2026-04-25T08:27:12.922Z</time></trkpt><trkpt lat="42.221291260909496" lon="-0.09324728223843151"><ele>851.9999999999999</ele><time>2026-04-25T08:27:13.922Z</time></trkpt><trkpt lat="42.22121682544576" lon="-0.09323460505815086"><ele>852.0</ele><time>2026-04-25T08:27:14.922Z</time></trkpt><trkpt lat="42.22113185968278" lon="-0.09324831703189276"><ele>854.0</ele><time>2026-04-25T08:27:15.922Z</time></trkpt><trkpt lat="42.22106587838944" lon="-0.09327692501506957"><ele>856.0</ele><time>2026-04-25T08:27:16.922Z</time></trkpt><trkpt lat="42.2209672329838" lon="-0.09327612264319758"><ele>858.0</ele><time>2026-04-25T08:27:18.922Z</time></trkpt><trkpt lat="42.22091449068968" lon="-0.09322131209959322"><ele>860.0</ele><time>2026-04-25T08:27:21.922Z</time></trkpt><trkpt lat="42.22087681726759" lon="-0.0931521320384078"><ele>862.0</ele><time>2026-04-25T08:29:23.92Z</time></trkpt><trkpt lat="42.220840245466945" lon="-0.09308145307533766"><ele>864.0</ele><time>2026-04-25T08:29:25.92Z</time></trkpt><trkpt lat="42.22076254040847" lon="-0.09296250511110614"><ele>864.0</ele><time>2026-04-25T08:29:27.92Z</time></trkpt><trkpt lat="42.22072012966158" lon="-0.09289836441264558"><ele>864.0000000000001</ele><time>2026-04-25T08:29:28.92Z</time></trkpt><trkpt lat="42.22067149203795" lon="-0.09283665828310435"><ele>864.0000000000001</ele><time>2026-04-25T08:29:29.92Z</time></trkpt><trkpt lat="42.220589582283516" lon="-0.09272861705452402"><ele>864.0</ele><time>2026-04-25T08:29:31.92Z</time></trkpt><trkpt lat="42.22050872575401" lon="-0.0926453823894329"><ele>864.0</ele><time>2026-04-25T08:29:33.92Z</time></trkpt><trkpt lat="42.22040063238549" lon="-0.09259933011353498"><ele>863.1666666666666</ele><time>2026-04-25T08:29:35.919Z</time></trkpt><trkpt lat="42.220303065156166" lon="-0.09263268443037495"><ele>862.3333333333333</ele><time>2026-04-25T08:29:37.919Z</time></trkpt><trkpt lat="42.220220779335826" lon="-0.09270270931457113"><ele>861.5</ele><time>2026-04-25T08:29:39.919Z</time></trkpt><trkpt lat="42.220148846275585" lon="-0.09274503354828885"><ele>860.6666666666666</ele><time>2026-04-25T08:29:41.919Z</time></trkpt><trkpt lat="42.22007330128412" lon="-0.09275481971080375"><ele>859.8333333333333</ele><time>2026-04-25T08:29:43.919Z</time></trkpt><trkpt lat="42.21998437274253" lon="-0.0927842227664648"><ele>859.0</ele><time>2026-04-25T08:29:45.92Z</time></trkpt><trkpt lat="42.21990792013249" lon="-0.0928430057466569"><ele>858.9999999999999</ele><time>2026-04-25T08:29:47.92Z</time></trkpt><trkpt lat="42.2198580190205" lon="-0.0929052028164524"><ele>859.0</ele><time>2026-04-25T08:29:49.919Z</time></trkpt><trkpt lat="42.21979924620655" lon="-0.09297341974556443"><ele>859.0</ele><time>2026-04-25T08:29:52.919Z</time></trkpt><trkpt lat="42.21973965042539" lon="-0.0930015270898582"><ele>859.0</ele><time>2026-04-25T08:29:55.919Z</time></trkpt><trkpt lat="42.21967657131318" lon="-0.09295039399951603"><ele>859.0</ele><time>2026-04-25T08:29:58.919Z</time></trkpt><trkpt lat="42.21963276836713" lon="-0.09285688130618514"><ele>858.9999999999999</ele><time>2026-04-25T08:30:00.919Z</time></trkpt><trkpt lat="42.219593332916915" lon="-0.09275483876196362"><ele>859.0</ele><time>2026-04-25T08:30:02.919Z</time></trkpt><trkpt lat="42.21955111219608" lon="-0.0926425924342005"><ele>852.8000000000001</ele><time>2026-04-25T08:30:04.919Z</time></trkpt><trkpt lat="42.21950241966649" lon="-0.0925220960927777"><ele>846.6000000000001</ele><time>2026-04-25T08:30:06.919Z</time></trkpt><trkpt lat="42.21947155388357" lon="-0.09238813323713915"><ele>840.4</ele><time>2026-04-25T08:30:08.919Z</time></trkpt><trkpt lat="42.219463636242914" lon="-0.0923029608029815"><ele>834.2</ele><time>2026-04-25T08:30:09.919Z</time></trkpt><trkpt lat="42.21946050744163" lon="-0.09214619076739779"><ele>828.0</ele><time>2026-04-25T08:30:11.919Z</time></trkpt><trkpt lat="42.21945320641204" lon="-0.09201623699483315"><ele>827.0</ele><time>2026-04-25T08:30:13.919Z</time></trkpt><trkpt lat="42.21945608313796" lon="-0.09186477178566221"><ele>826.0</ele><time>2026-04-25T08:30:15.919Z</time></trkpt><trkpt lat="42.21948694986762" lon="-0.09171698973546268"><ele>825.0</ele><time>2026-04-25T08:30:17.919Z</time></trkpt><trkpt lat="42.219527486172254" lon="-0.0915851274131079"><ele>824.0</ele><time>2026-04-25T08:30:19.919Z</time></trkpt><trkpt lat="42.21955802462389" lon="-0.09145084114836428"><ele>823.0</ele><time>2026-04-25T08:30:21.919Z</time></trkpt><trkpt lat="42.21958559335838" lon="-0.09129973414045961"><ele>820.2</ele><time>2026-04-25T08:30:23.919Z</time></trkpt><trkpt lat="42.21960264267003" lon="-0.09114024989529015"><ele>817.4</ele><time>2026-04-25T08:30:25.919Z</time></trkpt><trkpt lat="42.219614577851395" lon="-0.0909798622798019"><ele>814.6</ele><time>2026-04-25T08:30:27.919Z</time></trkpt><trkpt lat="42.219604813349534" lon="-0.09088879077671351"><ele>811.8000000000001</ele><time>2026-04-25T08:30:28.919Z</time></trkpt><trkpt lat="42.21959269264889" lon="-0.09080130854023324"><ele>809.0</ele><time>2026-04-25T08:30:29.919Z</time></trkpt><trkpt lat="42.2195728775618" lon="-0.09064521064165157"><ele>808.8333333333334</ele><time>2026-04-25T08:30:31.919Z</time></trkpt><trkpt lat="42.21956143634122" lon="-0.09056011834617275"><ele>808.6666666666667</ele><time>2026-04-25T08:30:32.919Z</time></trkpt><trkpt lat="42.21954598624117" lon="-0.09046863023353474"><ele>808.5</ele><time>2026-04-25T08:30:33.919Z</time></trkpt><trkpt lat="42.2195344863637" lon="-0.09037681748147522"><ele>808.3333333333333</ele><time>2026-04-25T08:30:34.919Z</time></trkpt><trkpt lat="42.21952940606679" lon="-0.09028815541684058"><ele>808.1666666666666</ele><time>2026-04-25T08:30:35.919Z</time></trkpt><trkpt lat="42.21952322001001" lon="-0.09019139218573595"><ele>808.0</ele><time>2026-04-25T08:30:36.919Z</time></trkpt><trkpt lat="42.21951997769438" lon="-0.09003969992539053"><ele>807.4999999999999</ele><time>2026-04-25T08:30:38.918Z</time></trkpt><trkpt lat="42.21951344439938" lon="-0.08991941836155351"><ele>807.0</ele><time>2026-04-25T08:30:40.918Z</time></trkpt><trkpt lat="42.21950966139968" lon="-0.08979650789317416"><ele>806.5</ele><time>2026-04-25T08:30:42.918Z</time></trkpt><trkpt lat="42.2194882458743" lon="-0.08970515767316821"><ele>806.0</ele><time>2026-04-25T08:30:44.918Z</time></trkpt><trkpt lat="42.21945098491648" lon="-0.08963002584244703"><ele>805.4999999999999</ele><time>2026-04-25T08:30:47.918Z</time></trkpt><trkpt lat="42.21940026847699" lon="-0.08953953175056269"><ele>805.0</ele><time>2026-04-25T08:30:50.918Z</time></trkpt><trkpt lat="42.21934663450589" lon="-0.08943690360858807"><ele>804.9999999999999</ele><time>2026-04-25T08:30:53.918Z</time></trkpt><trkpt lat="42.21929330429512" lon="-0.0893323993147914"><ele>805.0</ele><time>2026-04-25T08:30:55.918Z</time></trkpt><trkpt lat="42.219222709343164" lon="-0.08923629750466432"><ele>805.0</ele><time>2026-04-25T08:30:57.918Z</time></trkpt><trkpt lat="42.21915729945771" lon="-0.08915206336973193"><ele>805.0</ele><time>2026-04-25T08:30:59.918Z</time></trkpt><trkpt lat="42.219086992381165" lon="-0.08912300283431905"><ele>804.9999999999999</ele><time>2026-04-25T08:31:01.918Z</time></trkpt><trkpt lat="42.219017266440844" lon="-0.0891513785438442"><ele>805.0</ele><time>2026-04-25T08:31:03.918Z</time></trkpt><trkpt lat="42.2189768214706" lon="-0.08925939224486688"><ele>799.25</ele><time>2026-04-25T08:31:05.918Z</time></trkpt><trkpt lat="42.218969194421206" lon="-0.08941091396082455"><ele>793.5</ele><time>2026-04-25T08:31:07.918Z</time></trkpt><trkpt lat="42.218963217288454" lon="-0.08955399503323985"><ele>787.75</ele><time>2026-04-25T08:31:09.918Z</time></trkpt><trkpt lat="42.21896136422123" lon="-0.08971780437309394"><ele>782.0</ele><time>2026-04-25T08:31:11.918Z</time></trkpt><trkpt lat="42.2189558320485" lon="-0.08987147477423803"><ele>780.0</ele><time>2026-04-25T08:31:13.918Z</time></trkpt><trkpt lat="42.218934008387365" lon="-0.0900174679695946"><ele>778.0</ele><time>2026-04-25T08:31:15.918Z</time></trkpt><trkpt lat="42.218916284491755" lon="-0.09016583926358343"><ele>776.0</ele><time>2026-04-25T08:31:17.918Z</time></trkpt><trkpt lat="42.21888795947462" lon="-0.090306530251231"><ele>774.0</ele><time>2026-04-25T08:31:19.918Z</time></trkpt><trkpt lat="42.218857932593416" lon="-0.09042568487192332"><ele>772.0</ele><time>2026-04-25T08:31:21.918Z</time></trkpt><trkpt lat="42.21881806902108" lon="-0.09054721993667071"><ele>771.9999999999999</ele><time>2026-04-25T08:31:23.918Z</time></trkpt><trkpt lat="42.21875544977476" lon="-0.09063428693669205"><ele>772.0</ele><time>2026-04-25T08:31:25.918Z</time></trkpt><trkpt lat="42.218714418414784" lon="-0.09072445793153039"><ele>772.0</ele><time>2026-04-25T08:31:27.918Z</time></trkpt><trkpt lat="42.218665303073934" lon="-0.09079553450406645"><ele>772.0</ele><time>2026-04-25T08:31:29.918Z</time></trkpt><trkpt lat="42.2185878332135" lon="-0.09086409577041012"><ele>771.9999999999999</ele><time>2026-04-25T08:31:31.918Z</time></trkpt><trkpt lat="42.21850656368653" lon="-0.09094686705199459"><ele>772.0</ele><time>2026-04-25T08:31:33.918Z</time></trkpt><trkpt lat="42.21843389625803" lon="-0.09102412073875202"><ele>771.2</ele><time>2026-04-25T08:31:35.918Z</time></trkpt><trkpt lat="42.21836456104883" lon="-0.0911019636951817"><ele>770.4000000000001</ele><time>2026-04-25T08:31:37.918Z</time></trkpt><trkpt lat="42.21828549320387" lon="-0.09116338091813377"><ele>769.5999999999999</ele><time>2026-04-25T08:31:39.918Z</time></trkpt><trkpt lat="42.218208450834226" lon="-0.09124384540254524"><ele>768.8</ele><time>2026-04-25T08:31:41.918Z</time></trkpt><trkpt lat="42.21812687720641" lon="-0.09132412964769276"><ele>768.0</ele><time>2026-04-25T08:31:43.917Z</time></trkpt><trkpt lat="42.218059064501716" lon="-0.09139804925240999"><ele>764.0</ele><time>2026-04-25T08:31:45.917Z</time></trkpt><trkpt lat="42.21797621815367" lon="-0.0914782135372971"><ele>760.0</ele><time>2026-04-25T08:31:47.917Z</time></trkpt><trkpt lat="42.21788875617371" lon="-0.09158672932717148"><ele>756.0</ele><time>2026-04-25T08:31:49.917Z</time></trkpt><trkpt lat="42.21783620017297" lon="-0.0916503672910922"><ele>752.0</ele><time>2026-04-25T08:31:50.917Z</time></trkpt><trkpt lat="42.21777046864405" lon="-0.09169813583446469"><ele>748.0</ele><time>2026-04-25T08:31:51.917Z</time></trkpt><trkpt lat="42.2177060274393" lon="-0.09172774104791623"><ele>744.0</ele><time>2026-04-25T08:31:52.917Z</time></trkpt><trkpt lat="42.217595617050264" lon="-0.09176109270645909"><ele>744.0</ele><time>2026-04-25T08:31:54.917Z</time></trkpt><trkpt lat="42.217502573169014" lon="-0.0917750030902517"><ele>744.0</ele><time>2026-04-25T08:31:56.917Z</time></trkpt><trkpt lat="42.21739991989926" lon="-0.09179963808272233"><ele>744.0</ele><time>2026-04-25T08:31:58.917Z</time></trkpt><trkpt lat="42.21730796377583" lon="-0.09182300716542698"><ele>744.0</ele><time>2026-04-25T08:32:00.917Z</time></trkpt><trkpt lat="42.217218195933995" lon="-0.09183155493025597"><ele>744.0</ele><time>2026-04-25T08:32:02.917Z</time></trkpt><trkpt lat="42.21711330618628" lon="-0.09184273972646194"><ele>737.8000000000001</ele><time>2026-04-25T08:32:04.917Z</time></trkpt><trkpt lat="42.21702230047842" lon="-0.09186908202334153"><ele>731.6</ele><time>2026-04-25T08:32:06.917Z</time></trkpt><trkpt lat="42.21693180880058" lon="-0.09190307707725268"><ele>725.4</ele><time>2026-04-25T08:32:08.917Z</time></trkpt><trkpt lat="42.21683314541947" lon="-0.09194298113513913"><ele>719.2</ele><time>2026-04-25T08:32:10.917Z</time></trkpt><trkpt lat="42.2167339171286" lon="-0.09199097038774667"><ele>713.0</ele><time>2026-04-25T08:32:12.917Z</time></trkpt><trkpt lat="42.21665440582607" lon="-0.09205812829164783"><ele>713.0</ele><time>2026-04-25T08:32:14.917Z</time></trkpt><trkpt lat="42.21658944925914" lon="-0.09213131137218318"><ele>713.0</ele><time>2026-04-25T08:32:16.917Z</time></trkpt><trkpt lat="42.21654451756637" lon="-0.09223182925288867"><ele>713.0</ele><time>2026-04-25T08:32:18.917Z</time></trkpt><trkpt lat="42.21650508302055" lon="-0.09235739448045148"><ele>713.0</ele><time>2026-04-25T08:32:20.917Z</time></trkpt><trkpt lat="42.21646680859214" lon="-0.09250216592301988"><ele>713.0</ele><time>2026-04-25T08:32:22.917Z</time></trkpt><trkpt lat="42.21642498546079" lon="-0.09262947448002457"><ele>706.0</ele><time>2026-04-25T08:32:24.917Z</time></trkpt><trkpt lat="42.21638424176629" lon="-0.09274215068120639"><ele>699.0</ele><time>2026-04-25T08:32:26.917Z</time></trkpt><trkpt lat="42.21633446730421" lon="-0.0928592152926844"><ele>692.0</ele><time>2026-04-25T08:32:28.917Z</time></trkpt><trkpt lat="42.21627646426306" lon="-0.09299019305492418"><ele>685.0</ele><time>2026-04-25T08:32:30.917Z</time></trkpt><trkpt lat="42.216216044570714" lon="-0.09312577637823534"><ele>678.0</ele><time>2026-04-25T08:32:32.917Z</time></trkpt><trkpt lat="42.216155244261216" lon="-0.09324958711785213"><ele>678.4</ele><time>2026-04-25T08:32:34.917Z</time></trkpt><trkpt lat="42.216092730829416" lon="-0.09337884657535336"><ele>678.8</ele><time>2026-04-25T08:32:36.917Z</time></trkpt><trkpt lat="42.216031040264426" lon="-0.09349230119919807"><ele>679.2</ele><time>2026-04-25T08:32:38.916Z</time></trkpt><trkpt lat="42.2159713913591" lon="-0.0936073715310426"><ele>679.6</ele><time>2026-04-25T08:32:40.916Z</time></trkpt><trkpt lat="42.21591833355808" lon="-0.09373155715123363"><ele>680.0</ele><time>2026-04-25T08:32:42.916Z</time></trkpt><trkpt lat="42.21586369491386" lon="-0.09384724610187468"><ele>680.0</ele><time>2026-04-25T08:32:44.916Z</time></trkpt><trkpt lat="42.215819179872206" lon="-0.09395973905952862"><ele>680.0</ele><time>2026-04-25T08:32:46.916Z</time></trkpt><trkpt lat="42.21577926472902" lon="-0.0940744627221324"><ele>680.0</ele><time>2026-04-25T08:32:48.916Z</time></trkpt><trkpt lat="42.21573207679203" lon="-0.09418034208564469"><ele>680.0</ele><time>2026-04-25T08:32:50.916Z</time></trkpt><trkpt lat="42.21566876665466" lon="-0.09428965916352326"><ele>680.0</ele><time>2026-04-25T08:32:52.916Z</time></trkpt><trkpt lat="42.215631786193995" lon="-0.09441619104235847"><ele>673.6</ele><time>2026-04-25T08:32:54.916Z</time></trkpt><trkpt lat="42.21561379013822" lon="-0.0945362929705911"><ele>667.2</ele><time>2026-04-25T08:32:56.916Z</time></trkpt><trkpt lat="42.21559557469421" lon="-0.09466107020463199"><ele>660.8</ele><time>2026-04-25T08:32:58.916Z</time></trkpt><trkpt lat="42.21556332415559" lon="-0.09479355172362713"><ele>654.4</ele><time>2026-04-25T08:33:00.916Z</time></trkpt><trkpt lat="42.21552387265449" lon="-0.0949320391336234"><ele>648.0</ele><time>2026-04-25T08:33:02.916Z</time></trkpt><trkpt lat="42.21549320449627" lon="-0.09506244029954165"><ele>647.6666666666666</ele><time>2026-04-25T08:33:04.916Z</time></trkpt><trkpt lat="42.21546126850655" lon="-0.09517328436738946"><ele>647.3333333333334</ele><time>2026-04-25T08:33:06.916Z</time></trkpt><trkpt lat="42.21542832663066" lon="-0.09526177115693404"><ele>647.0</ele><time>2026-04-25T08:33:09.916Z</time></trkpt><trkpt lat="42.21538487739381" lon="-0.09538068694243129"><ele>646.6666666666667</ele><time>2026-04-25T08:33:12.916Z</time></trkpt><trkpt lat="42.21532869882608" lon="-0.09544405222586036"><ele>646.3333333333334</ele><time>2026-04-25T08:33:14.916Z</time></trkpt><trkpt lat="42.21524657848706" lon="-0.09550814737842765"><ele>646.0</ele><time>2026-04-25T08:33:16.916Z</time></trkpt><trkpt lat="42.21515888156495" lon="-0.09553912094378049"><ele>646.0</ele><time>2026-04-25T08:33:18.916Z</time></trkpt><trkpt lat="42.21507127638051" lon="-0.09560660584927243"><ele>646.0</ele><time>2026-04-25T08:33:20.916Z</time></trkpt><trkpt lat="42.21502010358684" lon="-0.09574260705278238"><ele>646.0</ele><time>2026-04-25T08:33:22.916Z</time></trkpt><trkpt lat="42.21498625594399" lon="-0.0958491865861434"><ele>646.0</ele><time>2026-04-25T08:33:24.916Z</time></trkpt><trkpt lat="42.214941447429986" lon="-0.09596089365099439"><ele>646.0</ele><time>2026-04-25T08:33:26.916Z</time></trkpt><trkpt lat="42.21487077839415" lon="-0.09608023886516098"><ele>642.4</ele><time>2026-04-25T08:33:28.916Z</time></trkpt><trkpt lat="42.2148008118561" lon="-0.09620636763823166"><ele>638.8</ele><time>2026-04-25T08:33:30.916Z</time></trkpt><trkpt lat="42.214741876628366" lon="-0.09632114819541435"><ele>635.1999999999999</ele><time>2026-04-25T08:33:32.916Z</time></trkpt><trkpt lat="42.21465410719216" lon="-0.09641196512477247"><ele>631.5999999999999</ele><time>2026-04-25T08:33:34.916Z</time></trkpt><trkpt lat="42.21459714058011" lon="-0.0964839140604957"><ele>628.0</ele><time>2026-04-25T08:33:36.916Z</time></trkpt><trkpt lat="42.21458342779168" lon="-0.09657775041630595"><ele>627.1999999999999</ele><time>2026-04-25T08:33:38.916Z</time></trkpt><trkpt lat="42.21460602565797" lon="-0.09672269566031184"><ele>626.4</ele><time>2026-04-25T08:33:41.916Z</time></trkpt><trkpt lat="42.21459406964684" lon="-0.09683995489651853"><ele>625.5999999999999</ele><time>2026-04-25T08:33:43.915Z</time></trkpt><trkpt lat="42.214567047028154" lon="-0.09699704009235759"><ele>624.8</ele><time>2026-04-25T08:33:45.915Z</time></trkpt><trkpt lat="42.2145225973042" lon="-0.09712872900814772"><ele>624.0</ele><time>2026-04-25T08:33:47.915Z</time></trkpt><trkpt lat="42.21446533918938" lon="-0.09725239103162905"><ele>624.0</ele><time>2026-04-25T08:33:49.915Z</time></trkpt><trkpt lat="42.21438945427886" lon="-0.09736371830399619"><ele>624.0</ele><time>2026-04-25T08:33:51.915Z</time></trkpt><trkpt lat="42.214324919769794" lon="-0.09748080043908788"><ele>624.0</ele><time>2026-04-25T08:33:53.915Z</time></trkpt><trkpt lat="42.21424572329821" lon="-0.0976015154883091"><ele>624.0</ele><time>2026-04-25T08:33:55.915Z</time></trkpt><trkpt lat="42.21418962337637" lon="-0.09768472285144938"><ele>624.0</ele><time>2026-04-25T08:33:57.915Z</time></trkpt><trkpt lat="42.214142014734044" lon="-0.09774682055104154"><ele>624.0</ele><time>2026-04-25T08:33:58.915Z</time></trkpt><trkpt lat="42.214087580338074" lon="-0.097826748666295"><ele>624.0</ele><time>2026-04-25T08:33:59.914Z</time></trkpt><trkpt lat="42.21404753044465" lon="-0.09792201065823888"><ele>624.0</ele><time>2026-04-25T08:34:00.914Z</time></trkpt><trkpt lat="42.2140253191382" lon="-0.09801309810767221"><ele>624.0</ele><time>2026-04-25T08:34:01.914Z</time></trkpt><trkpt lat="42.213998750762705" lon="-0.09812622313527498"><ele>624.0</ele><time>2026-04-25T08:34:02.914Z</time></trkpt><trkpt lat="42.213968411115296" lon="-0.0982154016195016"><ele>624.0</ele><time>2026-04-25T08:34:03.914Z</time></trkpt><trkpt lat="42.213938953659174" lon="-0.09833597797584745"><ele>624.6666666666666</ele><time>2026-04-25T08:34:04.914Z</time></trkpt><trkpt lat="42.2139033942161" lon="-0.09844721197406449"><ele>625.3333333333334</ele><time>2026-04-25T08:34:05.914Z</time></trkpt><trkpt lat="42.213875449739916" lon="-0.09854591938503847"><ele>626.0</ele><time>2026-04-25T08:34:06.914Z</time></trkpt><trkpt lat="42.21388347968093" lon="-0.09865140804098267"><ele>626.6666666666667</ele><time>2026-04-25T08:34:07.914Z</time></trkpt><trkpt lat="42.21390862851742" lon="-0.09873742553782175"><ele>627.3333333333334</ele><time>2026-04-25T08:34:08.914Z</time></trkpt><trkpt lat="42.21401846878246" lon="-0.09881545428124924"><ele>628.0</ele><time>2026-04-25T08:34:10.914Z</time></trkpt><trkpt lat="42.214127907332504" lon="-0.09882264137209601"><ele>628.0</ele><time>2026-04-25T08:34:12.914Z</time></trkpt><trkpt lat="42.21424206562126" lon="-0.09879066407295355"><ele>628.0</ele><time>2026-04-25T08:34:14.914Z</time></trkpt><trkpt lat="42.21433919557376" lon="-0.09886014167210674"><ele>628.0</ele><time>2026-04-25T08:34:16.914Z</time></trkpt><trkpt lat="42.21436992106404" lon="-0.09894138477677943"><ele>628.0</ele><time>2026-04-25T08:34:17.914Z</time></trkpt><trkpt lat="42.21443742062305" lon="-0.09908028699558658"><ele>628.0</ele><time>2026-04-25T08:34:19.914Z</time></trkpt><trkpt lat="42.214481856285595" lon="-0.09915733135893946"><ele>629.0</ele><time>2026-04-25T08:34:20.914Z</time></trkpt><trkpt lat="42.21452459346908" lon="-0.09923265208618352"><ele>630.0</ele><time>2026-04-25T08:34:21.914Z</time></trkpt><trkpt lat="42.214570777742914" lon="-0.09930075517521537"><ele>631.0</ele><time>2026-04-25T08:34:22.914Z</time></trkpt><trkpt lat="42.21462126433381" lon="-0.09937672000135961"><ele>632.0</ele><time>2026-04-25T08:34:23.914Z</time></trkpt><trkpt lat="42.214668642134" lon="-0.09944027085254813"><ele>633.0</ele><time>2026-04-25T08:34:24.914Z</time></trkpt><trkpt lat="42.214723640310076" lon="-0.09951754668485994"><ele>634.0</ele><time>2026-04-25T08:34:25.914Z</time></trkpt><trkpt lat="42.21481853223774" lon="-0.09963698721681402"><ele>633.25</ele><time>2026-04-25T08:34:27.914Z</time></trkpt><trkpt lat="42.21489488777824" lon="-0.09976723261980888"><ele>632.5</ele><time>2026-04-25T08:34:29.914Z</time></trkpt><trkpt lat="42.21496719225608" lon="-0.09987973611876215"><ele>631.75</ele><time>2026-04-25T08:34:31.914Z</time></trkpt><trkpt lat="42.21504423499894" lon="-0.09999491936412075"><ele>631.0</ele><time>2026-04-25T08:34:33.914Z</time></trkpt><trkpt lat="42.21508996765689" lon="-0.10011966322925554"><ele>632.6666666666667</ele><time>2026-04-25T08:34:35.914Z</time></trkpt><trkpt lat="42.21511048919408" lon="-0.1002126361274402"><ele>634.3333333333334</ele><time>2026-04-25T08:34:36.914Z</time></trkpt><trkpt lat="42.21506995665298" lon="-0.1003516063778405"><ele>636.0</ele><time>2026-04-25T08:34:38.914Z</time></trkpt><trkpt lat="42.21502439903313" lon="-0.10041256442727868"><ele>637.6666666666666</ele><time>2026-04-25T08:34:39.914Z</time></trkpt><trkpt lat="42.21493839638787" lon="-0.10052463010962391"><ele>639.3333333333333</ele><time>2026-04-25T08:34:41.914Z</time></trkpt><trkpt lat="42.214909852837366" lon="-0.10061859531482809"><ele>641.0</ele><time>2026-04-25T08:34:42.914Z</time></trkpt><trkpt lat="42.21490031132207" lon="-0.10071437823394364"><ele>641.3333333333333</ele><time>2026-04-25T08:34:43.914Z</time></trkpt><trkpt lat="42.214884647450305" lon="-0.10081047443461341"><ele>641.6666666666666</ele><time>2026-04-25T08:34:44.914Z</time></trkpt><trkpt lat="42.21485582001894" lon="-0.10089328075277942"><ele>642.0</ele><time>2026-04-25T08:34:45.914Z</time></trkpt><trkpt lat="42.214811454462925" lon="-0.10095619553968276"><ele>642.3333333333334</ele><time>2026-04-25T08:34:46.914Z</time></trkpt><trkpt lat="42.21476004711486" lon="-0.10101605415147341"><ele>642.6666666666667</ele><time>2026-04-25T08:34:47.914Z</time></trkpt><trkpt lat="42.21470941358255" lon="-0.10107581112921217"><ele>643.0</ele><time>2026-04-25T08:34:48.914Z</time></trkpt><trkpt lat="42.21467579556381" lon="-0.10121772202399536"><ele>643.0</ele><time>2026-04-25T08:34:50.914Z</time></trkpt><trkpt lat="42.214673678680576" lon="-0.10139132868139059"><ele>643.0</ele><time>2026-04-25T08:34:52.914Z</time></trkpt><trkpt lat="42.21470870049519" lon="-0.10154261528621662"><ele>643.0</ele><time>2026-04-25T08:34:54.914Z</time></trkpt><trkpt lat="42.21474121686218" lon="-0.10168903284491757"><ele>643.0</ele><time>2026-04-25T08:34:56.914Z</time></trkpt><trkpt lat="42.214783639201265" lon="-0.10185278081986962"><ele>644.3333333333334</ele><time>2026-04-25T08:34:58.913Z</time></trkpt><trkpt lat="42.21480837374494" lon="-0.10195243458121309"><ele>645.6666666666667</ele><time>2026-04-25T08:34:59.913Z</time></trkpt><trkpt lat="42.21483432010183" lon="-0.1020423124216141"><ele>647.0</ele><time>2026-04-25T08:35:00.913Z</time></trkpt><trkpt lat="42.21488891460116" lon="-0.10219285312503838"><ele>648.3333333333334</ele><time>2026-04-25T08:35:02.913Z</time></trkpt><trkpt lat="42.214918703653986" lon="-0.10226999552085347"><ele>649.6666666666666</ele><time>2026-04-25T08:35:03.913Z</time></trkpt><trkpt lat="42.21494379187591" lon="-0.10235756873065646"><ele>651.0</ele><time>2026-04-25T08:35:04.913Z</time></trkpt><trkpt lat="42.21497350920348" lon="-0.10244523891969118"><ele>653.1428571428571</ele><time>2026-04-25T08:35:05.913Z</time></trkpt><trkpt lat="42.21500370788994" lon="-0.10253237700131441"><ele>655.2857142857142</ele><time>2026-04-25T08:35:06.913Z</time></trkpt><trkpt lat="42.21503329742529" lon="-0.10261599591960296"><ele>657.4285714285714</ele><time>2026-04-25T08:35:07.913Z</time></trkpt><trkpt lat="42.21506934240077" lon="-0.10269858208817954"><ele>659.5714285714286</ele><time>2026-04-25T08:35:08.913Z</time></trkpt><trkpt lat="42.21510023072053" lon="-0.10278094045341131"><ele>661.7142857142857</ele><time>2026-04-25T08:35:09.913Z</time></trkpt><trkpt lat="42.21513328224814" lon="-0.10286970518818118"><ele>663.8571428571429</ele><time>2026-04-25T08:35:10.913Z</time></trkpt><trkpt lat="42.21515705730816" lon="-0.10295621737829697"><ele>666.0</ele><time>2026-04-25T08:35:11.913Z</time></trkpt><trkpt lat="42.21517417219578" lon="-0.10305064941344244"><ele>666.0</ele><time>2026-04-25T08:35:12.913Z</time></trkpt><trkpt lat="42.215190328808205" lon="-0.10313741864274438"><ele>666.0</ele><time>2026-04-25T08:35:13.913Z</time></trkpt><trkpt lat="42.21522964096304" lon="-0.10330769688496197"><ele>666.0</ele><time>2026-04-25T08:35:15.913Z</time></trkpt><trkpt lat="42.21527967931713" lon="-0.10346290022927496"><ele>666.0</ele><time>2026-04-25T08:35:17.913Z</time></trkpt><trkpt lat="42.21530161860496" lon="-0.1035535238410214"><ele>666.0</ele><time>2026-04-25T08:35:18.913Z</time></trkpt><trkpt lat="42.2153248806081" lon="-0.10364793483308328"><ele>666.1666666666666</ele><time>2026-04-25T08:35:19.913Z</time></trkpt><trkpt lat="42.2153710450548" lon="-0.10379312630566562"><ele>666.3333333333334</ele><time>2026-04-25T08:35:21.913Z</time></trkpt><trkpt lat="42.215399083320726" lon="-0.10388100934620234"><ele>666.5</ele><time>2026-04-25T08:35:22.913Z</time></trkpt><trkpt lat="42.215426446587855" lon="-0.10396112185847958"><ele>666.6666666666667</ele><time>2026-04-25T08:35:23.913Z</time></trkpt><trkpt lat="42.21548173484059" lon="-0.10411020821086692"><ele>666.8333333333334</ele><time>2026-04-25T08:35:25.913Z</time></trkpt><trkpt lat="42.215519382390994" lon="-0.10419228188400066"><ele>667.0</ele><time>2026-04-25T08:35:26.913Z</time></trkpt><trkpt lat="42.21556418803277" lon="-0.10426944635265782"><ele>667.6</ele><time>2026-04-25T08:35:27.913Z</time></trkpt><trkpt lat="42.21561015596506" lon="-0.1043349980496464"><ele>668.2</ele><time>2026-04-25T08:35:28.913Z</time></trkpt><trkpt lat="42.215654284347856" lon="-0.10439773023786596"><ele>668.8</ele><time>2026-04-25T08:35:29.913Z</time></trkpt><trkpt lat="42.215724702028105" lon="-0.10448980449259446"><ele>669.4</ele><time>2026-04-25T08:35:31.913Z</time></trkpt><trkpt lat="42.215797618862034" lon="-0.10461050596974722"><ele>670.0</ele><time>2026-04-25T08:35:33.913Z</time></trkpt><trkpt lat="42.21584359545954" lon="-0.10474747186393395"><ele>671.8</ele><time>2026-04-25T08:35:35.913Z</time></trkpt><trkpt lat="42.215855181692596" lon="-0.10488613064019091"><ele>673.6</ele><time>2026-04-25T08:35:37.913Z</time></trkpt><trkpt lat="42.21585852623719" lon="-0.10499715055827184"><ele>675.4000000000001</ele><time>2026-04-25T08:35:39.913Z</time></trkpt><trkpt lat="42.21583125404844" lon="-0.10512273080230743"><ele>677.2</ele><time>2026-04-25T08:35:41.914Z</time></trkpt><trkpt lat="42.21576651244976" lon="-0.10524443415341321"><ele>679.0</ele><time>2026-04-25T08:35:43.915Z</time></trkpt><trkpt lat="42.21563974894194" lon="-0.10529575953234262"><ele>679.0</ele><time>2026-04-25T08:35:45.915Z</time></trkpt><trkpt lat="42.215563321021875" lon="-0.10525800454298449"><ele>679.0</ele><time>2026-04-25T08:35:46.916Z</time></trkpt><trkpt lat="42.2154941578819" lon="-0.1052224498727468"><ele>679.0</ele><time>2026-04-25T08:35:47.916Z</time></trkpt><trkpt lat="42.21542333967095" lon="-0.10519457386590941"><ele>679.0</ele><time>2026-04-25T08:35:48.916Z</time></trkpt><trkpt lat="42.215346934375816" lon="-0.10518192495525062"><ele>679.0</ele><time>2026-04-25T08:35:49.916Z</time></trkpt><trkpt lat="42.2152824587132" lon="-0.10518904480564137"><ele>679.0</ele><time>2026-04-25T08:35:50.917Z</time></trkpt><trkpt lat="42.21520890853957" lon="-0.10520251026172343"><ele>679.0</ele><time>2026-04-25T08:35:51.917Z</time></trkpt><trkpt lat="42.21512055596458" lon="-0.10522313541029012"><ele>679.0</ele><time>2026-04-25T08:35:52.917Z</time></trkpt><trkpt lat="42.215044247979755" lon="-0.10526097984441897"><ele>679.0</ele><time>2026-04-25T08:35:53.917Z</time></trkpt><trkpt lat="42.214963886848224" lon="-0.10532415175172341"><ele>679.0</ele><time>2026-04-25T08:35:54.918Z</time></trkpt><trkpt lat="42.21489473176984" lon="-0.10538927577913679"><ele>679.0</ele><time>2026-04-25T08:35:55.918Z</time></trkpt><trkpt lat="42.2148243299866" lon="-0.10545711793578695"><ele>679.0</ele><time>2026-04-25T08:35:56.918Z</time></trkpt><trkpt lat="42.21476638826088" lon="-0.10552422524585711"><ele>679.0</ele><time>2026-04-25T08:35:57.918Z</time></trkpt><trkpt lat="42.214682736869335" lon="-0.1055926650849182"><ele>678.6666666666667</ele><time>2026-04-25T08:35:59.918Z</time></trkpt><trkpt lat="42.21460544885932" lon="-0.1056156651899384"><ele>678.3333333333334</ele><time>2026-04-25T08:36:01.919Z</time></trkpt><trkpt lat="42.214544390668266" lon="-0.10564556510819258"><ele>678.0</ele><time>2026-04-25T08:36:04.917Z</time></trkpt><trkpt lat="42.2144801151598" lon="-0.10565622199641315"><ele>677.6666666666666</ele><time>2026-04-25T08:36:08.917Z</time></trkpt><trkpt lat="42.21440882717889" lon="-0.10566032322633379"><ele>677.3333333333333</ele><time>2026-04-25T08:36:13.917Z</time></trkpt><trkpt lat="42.21432060291037" lon="-0.10567690428301926"><ele>677.0</ele><time>2026-04-25T08:37:23.918Z</time></trkpt><trkpt lat="42.214215240090226" lon="-0.10570009549450783"><ele>677.0</ele><time>2026-04-25T08:37:26.918Z</time></trkpt><trkpt lat="42.214097279981914" lon="-0.10574379865351392"><ele>677.0</ele><time>2026-04-25T08:37:28.918Z</time></trkpt><trkpt lat="42.21403579187995" lon="-0.10577422824774269"><ele>677.0</ele><time>2026-04-25T08:37:29.918Z</time></trkpt><trkpt lat="42.21397397877038" lon="-0.1058042721128499"><ele>677.0</ele><time>2026-04-25T08:37:30.918Z</time></trkpt><trkpt lat="42.21389990698011" lon="-0.10585989534839797"><ele>677.0</ele><time>2026-04-25T08:37:31.918Z</time></trkpt><trkpt lat="42.21383409522173" lon="-0.10592881324231021"><ele>677.0</ele><time>2026-04-25T08:37:32.918Z</time></trkpt><trkpt lat="42.21378443374304" lon="-0.10601283016476659"><ele>676.5</ele><time>2026-04-25T08:37:33.918Z</time></trkpt><trkpt lat="42.213722528063926" lon="-0.10610155570369198"><ele>676.0</ele><time>2026-04-25T08:37:34.918Z</time></trkpt><trkpt lat="42.213648281680854" lon="-0.10617167468984379"><ele>675.5</ele><time>2026-04-25T08:37:35.918Z</time></trkpt><trkpt lat="42.213575250676385" lon="-0.10623045275289508"><ele>675.0</ele><time>2026-04-25T08:37:36.918Z</time></trkpt><trkpt lat="42.21350213528741" lon="-0.10629450480745818"><ele>674.5</ele><time>2026-04-25T08:37:37.918Z</time></trkpt><trkpt lat="42.21342992290916" lon="-0.10637357419009427"><ele>674.0</ele><time>2026-04-25T08:37:38.918Z</time></trkpt><trkpt lat="42.21338383696909" lon="-0.10646067187887745"><ele>674.0</ele><time>2026-04-25T08:37:39.918Z</time></trkpt><trkpt lat="42.21333442960932" lon="-0.10656871398375471"><ele>674.0</ele><time>2026-04-25T08:37:40.918Z</time></trkpt><trkpt lat="42.21326076829804" lon="-0.10668218310266427"><ele>674.0</ele><time>2026-04-25T08:37:41.918Z</time></trkpt><trkpt lat="42.213176354143926" lon="-0.1067679608042037"><ele>674.0</ele><time>2026-04-25T08:37:42.918Z</time></trkpt><trkpt lat="42.21307658409824" lon="-0.10687882657261127"><ele>674.0</ele><time>2026-04-25T08:37:43.918Z</time></trkpt><trkpt lat="42.212971076708115" lon="-0.1069956293423399"><ele>674.75</ele><time>2026-04-25T08:37:44.918Z</time></trkpt><trkpt lat="42.21286254359557" lon="-0.10709615151503901"><ele>675.5</ele><time>2026-04-25T08:37:45.918Z</time></trkpt><trkpt lat="42.212754798088184" lon="-0.10717921788295154"><ele>676.25</ele><time>2026-04-25T08:37:46.918Z</time></trkpt><trkpt lat="42.21265027495326" lon="-0.10724882294571926"><ele>677.0</ele><time>2026-04-25T08:37:47.918Z</time></trkpt><trkpt lat="42.212559705845266" lon="-0.10731611535728437"><ele>677.0</ele><time>2026-04-25T08:37:48.917Z</time></trkpt><trkpt lat="42.21247378953684" lon="-0.10740164085662861"><ele>677.0</ele><time>2026-04-25T08:37:49.917Z</time></trkpt><trkpt lat="42.21239368886537" lon="-0.10751383714855645"><ele>677.0</ele><time>2026-04-25T08:37:50.917Z</time></trkpt><trkpt lat="42.21231808129255" lon="-0.10764807479990654"><ele>677.0</ele><time>2026-04-25T08:37:51.917Z</time></trkpt><trkpt lat="42.21222242624397" lon="-0.10776598730621324"><ele>677.25</ele><time>2026-04-25T08:37:52.917Z</time></trkpt><trkpt lat="42.21211919509728" lon="-0.1078744528396358"><ele>677.5</ele><time>2026-04-25T08:37:53.917Z</time></trkpt><trkpt lat="42.21200695360843" lon="-0.10796052039214653"><ele>677.75</ele><time>2026-04-25T08:37:54.917Z</time></trkpt><trkpt lat="42.2118828537707" lon="-0.10803891794747733"><ele>678.0</ele><time>2026-04-25T08:37:55.917Z</time></trkpt><trkpt lat="42.21177655418466" lon="-0.10813631850518021"><ele>678.0</ele><time>2026-04-25T08:37:56.917Z</time></trkpt><trkpt lat="42.211657615108386" lon="-0.10820931325779078"><ele>678.0</ele><time>2026-04-25T08:37:57.917Z</time></trkpt><trkpt lat="42.211522286711244" lon="-0.10827988258861992"><ele>678.0</ele><time>2026-04-25T08:37:58.917Z</time></trkpt><trkpt lat="42.21139781392715" lon="-0.10834216599067051"><ele>678.0</ele><time>2026-04-25T08:37:59.917Z</time></trkpt><trkpt lat="42.21130160910798" lon="-0.10839234756333317"><ele>680.0</ele><time>2026-04-25T08:38:00.917Z</time></trkpt><trkpt lat="42.21122454819098" lon="-0.10842282556778832"><ele>682.0</ele><time>2026-04-25T08:38:01.917Z</time></trkpt><trkpt lat="42.211153935000844" lon="-0.10841604592725443"><ele>684.0</ele><time>2026-04-25T08:38:02.917Z</time></trkpt><trkpt lat="42.211080614601656" lon="-0.10839147055952111"><ele>686.0</ele><time>2026-04-25T08:38:03.917Z</time></trkpt><trkpt lat="42.21099625827556" lon="-0.10836581110970583"><ele>688.0</ele><time>2026-04-25T08:38:04.917Z</time></trkpt><trkpt lat="42.21092088205396" lon="-0.10835904343902954"><ele>690.0</ele><time>2026-04-25T08:38:05.917Z</time></trkpt><trkpt lat="42.21084489138921" lon="-0.108382577729107"><ele>690.0</ele><time>2026-04-25T08:38:06.917Z</time></trkpt><trkpt lat="42.210776056224866" lon="-0.10843046278119994"><ele>690.0</ele><time>2026-04-25T08:38:07.917Z</time></trkpt><trkpt lat="42.21070487855884" lon="-0.10851055218825091"><ele>690.0</ele><time>2026-04-25T08:38:08.917Z</time></trkpt><trkpt lat="42.210632898445375" lon="-0.10859796279029127"><ele>690.0</ele><time>2026-04-25T08:38:09.916Z</time></trkpt><trkpt lat="42.21054273825828" lon="-0.1086792673863963"><ele>690.0</ele><time>2026-04-25T08:38:10.916Z</time></trkpt><trkpt lat="42.21043402652502" lon="-0.10873964527597381"><ele>688.0</ele><time>2026-04-25T08:38:11.916Z</time></trkpt><trkpt lat="42.2103145053389" lon="-0.10878194731398007"><ele>686.0</ele><time>2026-04-25T08:38:12.916Z</time></trkpt><trkpt lat="42.2101948348292" lon="-0.10882482718662588"><ele>684.0</ele><time>2026-04-25T08:38:13.916Z</time></trkpt><trkpt lat="42.210084574953434" lon="-0.1088687323819948"><ele>682.0</ele><time>2026-04-25T08:38:14.916Z</time></trkpt><trkpt lat="42.20998241933912" lon="-0.1089167408476572"><ele>682.0</ele><time>2026-04-25T08:38:15.916Z</time></trkpt><trkpt lat="42.20988140075286" lon="-0.10896342086329357"><ele>682.0</ele><time>2026-04-25T08:38:16.916Z</time></trkpt><trkpt lat="42.209797130247146" lon="-0.10898597000537977"><ele>682.0</ele><time>2026-04-25T08:38:17.916Z</time></trkpt><trkpt lat="42.20971471321495" lon="-0.10902136475902452"><ele>682.0</ele><time>2026-04-25T08:38:18.916Z</time></trkpt><trkpt lat="42.20961781574658" lon="-0.10907480972951131"><ele>682.0</ele><time>2026-04-25T08:38:19.916Z</time></trkpt><trkpt lat="42.20952528452357" lon="-0.10910184099507353"><ele>683.0</ele><time>2026-04-25T08:38:20.916Z</time></trkpt><trkpt lat="42.209436120637456" lon="-0.10910492686488801"><ele>684.0</ele><time>2026-04-25T08:38:21.915Z</time></trkpt><trkpt lat="42.20932866683017" lon="-0.10909072613204229"><ele>685.0</ele><time>2026-04-25T08:38:22.915Z</time></trkpt><trkpt lat="42.209207144946824" lon="-0.10907264938448645"><ele>686.0</ele><time>2026-04-25T08:38:23.915Z</time></trkpt><trkpt lat="42.20908318509137" lon="-0.1090695202042003"><ele>687.0</ele><time>2026-04-25T08:38:24.915Z</time></trkpt><trkpt lat="42.208962095123844" lon="-0.10907944978107448"><ele>688.8</ele><time>2026-04-25T08:38:25.915Z</time></trkpt><trkpt lat="42.208864686517366" lon="-0.1090794273114789"><ele>690.6</ele><time>2026-04-25T08:38:26.915Z</time></trkpt><trkpt lat="42.20876721296152" lon="-0.10907199880155485"><ele>692.4</ele><time>2026-04-25T08:38:27.915Z</time></trkpt><trkpt lat="42.20868094702666" lon="-0.10907355927548312"><ele>694.1999999999999</ele><time>2026-04-25T08:38:28.915Z</time></trkpt><trkpt lat="42.2085940921338" lon="-0.10910925896006064"><ele>696.0</ele><time>2026-04-25T08:38:29.915Z</time></trkpt><trkpt lat="42.20849764960937" lon="-0.10917058232372137"><ele>696.0</ele><time>2026-04-25T08:38:30.915Z</time></trkpt><trkpt lat="42.20839121974114" lon="-0.10925660852186946"><ele>696.0</ele><time>2026-04-25T08:38:31.915Z</time></trkpt><trkpt lat="42.2082751472117" lon="-0.10934434619129374"><ele>696.0</ele><time>2026-04-25T08:38:32.915Z</time></trkpt><trkpt lat="42.20815331619203" lon="-0.10943766068409017"><ele>696.0</ele><time>2026-04-25T08:38:33.915Z</time></trkpt><trkpt lat="42.20803771839132" lon="-0.10952549068245443"><ele>695.5</ele><time>2026-04-25T08:38:34.915Z</time></trkpt><trkpt lat="42.20794788843814" lon="-0.10961741722893631"><ele>695.0</ele><time>2026-04-25T08:38:35.915Z</time></trkpt><trkpt lat="42.20787630921715" lon="-0.10970105559504938"><ele>694.5</ele><time>2026-04-25T08:38:36.915Z</time></trkpt><trkpt lat="42.20781038758429" lon="-0.1097622375702319"><ele>694.0</ele><time>2026-04-25T08:38:37.915Z</time></trkpt><trkpt lat="42.207753393216585" lon="-0.1098094386297383"><ele>693.5</ele><time>2026-04-25T08:38:38.915Z</time></trkpt><trkpt lat="42.20768485573474" lon="-0.10984222010124058"><ele>693.0</ele><time>2026-04-25T08:38:39.915Z</time></trkpt><trkpt lat="42.20761586597657" lon="-0.10987790221679032"><ele>692.3333333333334</ele><time>2026-04-25T08:38:40.915Z</time></trkpt><trkpt lat="42.207541443399656" lon="-0.10992737052427792"><ele>691.6666666666666</ele><time>2026-04-25T08:38:42.915Z</time></trkpt><trkpt lat="42.20746081401791" lon="-0.10997242593028053"><ele>691.0</ele><time>2026-04-25T08:38:46.915Z</time></trkpt><trkpt lat="42.207399845322634" lon="-0.1100029475491999"><ele>690.3333333333333</ele><time>2026-04-25T08:38:48.915Z</time></trkpt><trkpt lat="42.20731428092973" lon="-0.11006279774365717"><ele>689.6666666666666</ele><time>2026-04-25T08:38:51.915Z</time></trkpt><trkpt lat="42.20720665003698" lon="-0.1101201821304091"><ele>689.0</ele><time>2026-04-25T08:38:53.915Z</time></trkpt><trkpt lat="42.207146545665616" lon="-0.11017352983251825"><ele>688.8333333333333</ele><time>2026-04-25T08:38:55.915Z</time></trkpt><trkpt lat="42.20706269855224" lon="-0.11023990604514834"><ele>688.6666666666666</ele><time>2026-04-25T08:39:06.915Z</time></trkpt><trkpt lat="42.20701309765996" lon="-0.11029448299827607"><ele>688.5</ele><time>2026-04-25T08:39:07.915Z</time></trkpt><trkpt lat="42.20695464142869" lon="-0.11035449643868181"><ele>688.3333333333334</ele><time>2026-04-25T08:39:08.915Z</time></trkpt><trkpt lat="42.206888894742626" lon="-0.11041659841101355"><ele>688.1666666666667</ele><time>2026-04-25T08:39:09.915Z</time></trkpt><trkpt lat="42.2068099249813" lon="-0.11045299436172536"><ele>688.0</ele><time>2026-04-25T08:39:10.915Z</time></trkpt><trkpt lat="42.20672487224124" lon="-0.11048766128675548"><ele>688.0</ele><time>2026-04-25T08:39:11.915Z</time></trkpt><trkpt lat="42.20662723455043" lon="-0.11051774178882595"><ele>688.0</ele><time>2026-04-25T08:39:12.914Z</time></trkpt><trkpt lat="42.20652754381579" lon="-0.1105597543146793"><ele>688.0</ele><time>2026-04-25T08:39:13.914Z</time></trkpt><trkpt lat="42.20641944753747" lon="-0.11060113355215495"><ele>688.0</ele><time>2026-04-25T08:39:14.914Z</time></trkpt><trkpt lat="42.20630832001173" lon="-0.11064188153889411"><ele>688.0</ele><time>2026-04-25T08:39:15.914Z</time></trkpt><trkpt lat="42.20620964502475" lon="-0.11068184037037583"><ele>687.6666666666667</ele><time>2026-04-25T08:39:16.914Z</time></trkpt><trkpt lat="42.20611773880603" lon="-0.11071384821683955"><ele>687.3333333333334</ele><time>2026-04-25T08:39:17.914Z</time></trkpt><trkpt lat="42.20602686224892" lon="-0.11073528683628654"><ele>687.0</ele><time>2026-04-25T08:39:18.914Z</time></trkpt><trkpt lat="42.205938806380196" lon="-0.110735213511443"><ele>686.6666666666666</ele><time>2026-04-25T08:39:19.914Z</time></trkpt><trkpt lat="42.20586674837768" lon="-0.11073010715302838"><ele>686.3333333333333</ele><time>2026-04-25T08:39:20.914Z</time></trkpt><trkpt lat="42.20577733350788" lon="-0.11068238085050341"><ele>686.0</ele><time>2026-04-25T08:39:22.914Z</time></trkpt><trkpt lat="42.205705795788674" lon="-0.1106782707939118"><ele>686.0</ele><time>2026-04-25T08:39:25.914Z</time></trkpt></trkseg></trk></gpx>